<?xml version="1.0" encoding="UTF-8" standalone="no" ?>
<gpx xmlns="http://www.topografix.com/GPX/1/1" xmlns:xsi="http://www.w3.org/2001/XMLSchema-instance" xsi:schemaLocation="http://www.topografix.com/GPX/1/1 http://www.topografix.com/GPX/1/1/gpx.xsd" version="1.1" creator="VisuGPX - https://www.visugpx.com">
  <metadata>
    <name>Sainte Lucie</name>
    <desc><![CDATA[départ Martinique Le marin
arrivée Sainte Lucie Soufrière bay
lipari 41 
9 équipiers
2 jours
]]></desc>
  </metadata>
  <trk>
    <name><![CDATA[Tracé actuel: 06 DEC 2016 09:25]]></name>
    <trkseg>
      <trkpt lat="13.85013" lon="-61.06205">
        <ele>8.31</ele>
        <time>2016-12-06T13:25:48Z</time>
      </trkpt>
      <trkpt lat="13.85015" lon="-61.06194">
        <ele>15.52</ele>
        <time>2016-12-06T13:26:12Z</time>
      </trkpt>
      <trkpt lat="13.85014" lon="-61.06194">
        <ele>14.08</ele>
        <time>2016-12-06T13:26:34Z</time>
      </trkpt>
      <trkpt lat="13.85016" lon="-61.06193">
        <ele>13.12</ele>
        <time>2016-12-06T13:27:02Z</time>
      </trkpt>
      <trkpt lat="13.85016" lon="-61.06194">
        <ele>9.75</ele>
        <time>2016-12-06T13:27:35Z</time>
      </trkpt>
      <trkpt lat="13.85016" lon="-61.06193">
        <ele>8.31</ele>
        <time>2016-12-06T13:28:03Z</time>
      </trkpt>
      <trkpt lat="13.85017" lon="-61.06193">
        <ele>7.35</ele>
        <time>2016-12-06T13:28:36Z</time>
      </trkpt>
      <trkpt lat="13.85017" lon="-61.06193">
        <ele>8.31</ele>
        <time>2016-12-06T13:29:02Z</time>
      </trkpt>
      <trkpt lat="13.85018" lon="-61.06193">
        <ele>8.79</ele>
        <time>2016-12-06T13:29:32Z</time>
      </trkpt>
      <trkpt lat="13.85017" lon="-61.06194">
        <ele>9.27</ele>
        <time>2016-12-06T13:29:54Z</time>
      </trkpt>
      <trkpt lat="13.85016" lon="-61.06195">
        <ele>10.23</ele>
        <time>2016-12-06T13:30:19Z</time>
      </trkpt>
      <trkpt lat="13.85011" lon="-61.06185">
        <ele>12.15</ele>
        <time>2016-12-06T13:30:50Z</time>
      </trkpt>
      <trkpt lat="13.85012" lon="-61.06183">
        <ele>12.15</ele>
        <time>2016-12-06T13:31:18Z</time>
      </trkpt>
      <trkpt lat="13.85011" lon="-61.06183">
        <ele>11.67</ele>
        <time>2016-12-06T13:31:44Z</time>
      </trkpt>
      <trkpt lat="13.85004" lon="-61.06185">
        <ele>11.67</ele>
        <time>2016-12-06T13:32:11Z</time>
      </trkpt>
      <trkpt lat="13.85" lon="-61.0619">
        <ele>10.23</ele>
        <time>2016-12-06T13:32:38Z</time>
      </trkpt>
      <trkpt lat="13.85001" lon="-61.06191">
        <ele>10.23</ele>
        <time>2016-12-06T13:32:39Z</time>
      </trkpt>
      <trkpt lat="13.84996" lon="-61.06232">
        <ele>12.15</ele>
        <time>2016-12-06T13:33:03Z</time>
      </trkpt>
      <trkpt lat="13.84973" lon="-61.06282">
        <ele>10.23</ele>
        <time>2016-12-06T13:33:29Z</time>
      </trkpt>
      <trkpt lat="13.84934" lon="-61.06332">
        <ele>10.71</ele>
        <time>2016-12-06T13:33:59Z</time>
      </trkpt>
      <trkpt lat="13.8491" lon="-61.06377">
        <ele>10.71</ele>
        <time>2016-12-06T13:34:20Z</time>
      </trkpt>
      <trkpt lat="13.84878" lon="-61.06427">
        <ele>9.75</ele>
        <time>2016-12-06T13:34:42Z</time>
      </trkpt>
      <trkpt lat="13.84821" lon="-61.06468">
        <ele>10.71</ele>
        <time>2016-12-06T13:35:08Z</time>
      </trkpt>
      <trkpt lat="13.84758" lon="-61.06511">
        <ele>9.75</ele>
        <time>2016-12-06T13:35:35Z</time>
      </trkpt>
      <trkpt lat="13.84695" lon="-61.06557">
        <ele>8.31</ele>
        <time>2016-12-06T13:36:03Z</time>
      </trkpt>
      <trkpt lat="13.84631" lon="-61.0659">
        <ele>10.23</ele>
        <time>2016-12-06T13:36:29Z</time>
      </trkpt>
      <trkpt lat="13.84569" lon="-61.06612">
        <ele>11.19</ele>
        <time>2016-12-06T13:36:52Z</time>
      </trkpt>
      <trkpt lat="13.84514" lon="-61.06639">
        <ele>12.15</ele>
        <time>2016-12-06T13:37:14Z</time>
      </trkpt>
      <trkpt lat="13.8445" lon="-61.06676">
        <ele>12.15</ele>
        <time>2016-12-06T13:37:40Z</time>
      </trkpt>
      <trkpt lat="13.84395" lon="-61.06708">
        <ele>11.67</ele>
        <time>2016-12-06T13:38:03Z</time>
      </trkpt>
      <trkpt lat="13.84331" lon="-61.06733">
        <ele>12.15</ele>
        <time>2016-12-06T13:38:27Z</time>
      </trkpt>
      <trkpt lat="13.84264" lon="-61.06761">
        <ele>12.15</ele>
        <time>2016-12-06T13:38:53Z</time>
      </trkpt>
      <trkpt lat="13.84201" lon="-61.06789">
        <ele>12.63</ele>
        <time>2016-12-06T13:39:17Z</time>
      </trkpt>
      <trkpt lat="13.84146" lon="-61.06821">
        <ele>11.19</ele>
        <time>2016-12-06T13:39:40Z</time>
      </trkpt>
      <trkpt lat="13.84082" lon="-61.0684">
        <ele>10.71</ele>
        <time>2016-12-06T13:40:03Z</time>
      </trkpt>
      <trkpt lat="13.84027" lon="-61.06856">
        <ele>11.19</ele>
        <time>2016-12-06T13:40:23Z</time>
      </trkpt>
      <trkpt lat="13.83972" lon="-61.06874">
        <ele>12.15</ele>
        <time>2016-12-06T13:40:43Z</time>
      </trkpt>
      <trkpt lat="13.83908" lon="-61.06902">
        <ele>12.63</ele>
        <time>2016-12-06T13:41:08Z</time>
      </trkpt>
      <trkpt lat="13.8385" lon="-61.0693">
        <ele>12.63</ele>
        <time>2016-12-06T13:41:31Z</time>
      </trkpt>
      <trkpt lat="13.83781" lon="-61.06952">
        <ele>11.67</ele>
        <time>2016-12-06T13:41:57Z</time>
      </trkpt>
      <trkpt lat="13.83713" lon="-61.0696">
        <ele>10.23</ele>
        <time>2016-12-06T13:42:21Z</time>
      </trkpt>
      <trkpt lat="13.83652" lon="-61.06972">
        <ele>10.71</ele>
        <time>2016-12-06T13:42:43Z</time>
      </trkpt>
      <trkpt lat="13.83602" lon="-61.0699">
        <ele>11.19</ele>
        <time>2016-12-06T13:43:02Z</time>
      </trkpt>
      <trkpt lat="13.83545" lon="-61.0701">
        <ele>11.67</ele>
        <time>2016-12-06T13:43:24Z</time>
      </trkpt>
      <trkpt lat="13.83485" lon="-61.07018">
        <ele>12.15</ele>
        <time>2016-12-06T13:43:45Z</time>
      </trkpt>
      <trkpt lat="13.83433" lon="-61.07026">
        <ele>12.15</ele>
        <time>2016-12-06T13:44:03Z</time>
      </trkpt>
      <trkpt lat="13.83367" lon="-61.07029">
        <ele>11.19</ele>
        <time>2016-12-06T13:44:26Z</time>
      </trkpt>
      <trkpt lat="13.83296" lon="-61.07029">
        <ele>11.19</ele>
        <time>2016-12-06T13:44:50Z</time>
      </trkpt>
      <trkpt lat="13.83234" lon="-61.07023">
        <ele>11.67</ele>
        <time>2016-12-06T13:45:11Z</time>
      </trkpt>
      <trkpt lat="13.83164" lon="-61.07009">
        <ele>11.67</ele>
        <time>2016-12-06T13:45:35Z</time>
      </trkpt>
      <trkpt lat="13.83079" lon="-61.06987">
        <ele>12.15</ele>
        <time>2016-12-06T13:46:05Z</time>
      </trkpt>
      <trkpt lat="13.83014" lon="-61.06961">
        <ele>10.71</ele>
        <time>2016-12-06T13:46:29Z</time>
      </trkpt>
      <trkpt lat="13.82942" lon="-61.06934">
        <ele>10.23</ele>
        <time>2016-12-06T13:46:55Z</time>
      </trkpt>
      <trkpt lat="13.82887" lon="-61.06913">
        <ele>9.75</ele>
        <time>2016-12-06T13:47:15Z</time>
      </trkpt>
      <trkpt lat="13.82825" lon="-61.06892">
        <ele>9.75</ele>
        <time>2016-12-06T13:47:37Z</time>
      </trkpt>
      <trkpt lat="13.82764" lon="-61.06872">
        <ele>12.15</ele>
        <time>2016-12-06T13:47:59Z</time>
      </trkpt>
      <trkpt lat="13.8268" lon="-61.06845">
        <ele>11.67</ele>
        <time>2016-12-06T13:48:29Z</time>
      </trkpt>
      <trkpt lat="13.82614" lon="-61.06814">
        <ele>13.12</ele>
        <time>2016-12-06T13:48:54Z</time>
      </trkpt>
      <trkpt lat="13.82552" lon="-61.0678">
        <ele>14.56</ele>
        <time>2016-12-06T13:49:18Z</time>
      </trkpt>
      <trkpt lat="13.82495" lon="-61.06738">
        <ele>14.56</ele>
        <time>2016-12-06T13:49:42Z</time>
      </trkpt>
      <trkpt lat="13.82452" lon="-61.06689">
        <ele>13.12</ele>
        <time>2016-12-06T13:50:04Z</time>
      </trkpt>
      <trkpt lat="13.82434" lon="-61.06625">
        <ele>12.15</ele>
        <time>2016-12-06T13:50:27Z</time>
      </trkpt>
      <trkpt lat="13.82418" lon="-61.06552">
        <ele>13.12</ele>
        <time>2016-12-06T13:50:53Z</time>
      </trkpt>
      <trkpt lat="13.82417" lon="-61.06494">
        <ele>12.15</ele>
        <time>2016-12-06T13:51:14Z</time>
      </trkpt>
      <trkpt lat="13.82434" lon="-61.06464">
        <ele>12.63</ele>
        <time>2016-12-06T13:51:31Z</time>
      </trkpt>
      <trkpt lat="13.82459" lon="-61.06437">
        <ele>13.6</ele>
        <time>2016-12-06T13:51:56Z</time>
      </trkpt>
      <trkpt lat="13.82467" lon="-61.0643">
        <ele>13.6</ele>
        <time>2016-12-06T13:52:17Z</time>
      </trkpt>
      <trkpt lat="13.82463" lon="-61.0643">
        <ele>13.12</ele>
        <time>2016-12-06T13:52:42Z</time>
      </trkpt>
      <trkpt lat="13.82453" lon="-61.0643">
        <ele>13.12</ele>
        <time>2016-12-06T13:53:05Z</time>
      </trkpt>
      <trkpt lat="13.82451" lon="-61.0643">
        <ele>13.6</ele>
        <time>2016-12-06T13:53:25Z</time>
      </trkpt>
      <trkpt lat="13.82448" lon="-61.06431">
        <ele>13.6</ele>
        <time>2016-12-06T13:53:51Z</time>
      </trkpt>
      <trkpt lat="13.82447" lon="-61.06432">
        <ele>13.12</ele>
        <time>2016-12-06T13:54:14Z</time>
      </trkpt>
      <trkpt lat="13.82447" lon="-61.06432">
        <ele>13.12</ele>
        <time>2016-12-06T13:54:38Z</time>
      </trkpt>
      <trkpt lat="13.82447" lon="-61.06433">
        <ele>13.12</ele>
        <time>2016-12-06T13:54:59Z</time>
      </trkpt>
      <trkpt lat="13.82447" lon="-61.06434">
        <ele>13.12</ele>
        <time>2016-12-06T13:55:18Z</time>
      </trkpt>
      <trkpt lat="13.82446" lon="-61.06436">
        <ele>13.6</ele>
        <time>2016-12-06T13:55:44Z</time>
      </trkpt>
      <trkpt lat="13.82446" lon="-61.06437">
        <ele>14.08</ele>
        <time>2016-12-06T13:56:11Z</time>
      </trkpt>
      <trkpt lat="13.82446" lon="-61.06439">
        <ele>13.12</ele>
        <time>2016-12-06T13:56:31Z</time>
      </trkpt>
      <trkpt lat="13.82446" lon="-61.06441">
        <ele>13.12</ele>
        <time>2016-12-06T13:56:58Z</time>
      </trkpt>
      <trkpt lat="13.82447" lon="-61.06442">
        <ele>13.12</ele>
        <time>2016-12-06T13:57:24Z</time>
      </trkpt>
      <trkpt lat="13.82448" lon="-61.06444">
        <ele>13.6</ele>
        <time>2016-12-06T13:57:55Z</time>
      </trkpt>
      <trkpt lat="13.8245" lon="-61.06445">
        <ele>13.6</ele>
        <time>2016-12-06T13:58:21Z</time>
      </trkpt>
      <trkpt lat="13.82452" lon="-61.06446">
        <ele>13.6</ele>
        <time>2016-12-06T13:58:41Z</time>
      </trkpt>
      <trkpt lat="13.82453" lon="-61.06447">
        <ele>13.6</ele>
        <time>2016-12-06T13:58:58Z</time>
      </trkpt>
      <trkpt lat="13.82442" lon="-61.06438">
        <ele>19.84</ele>
        <time>2016-12-06T14:20:03Z</time>
      </trkpt>
      <trkpt lat="13.82444" lon="-61.06438">
        <ele>15.04</ele>
        <time>2016-12-06T14:20:21Z</time>
      </trkpt>
      <trkpt lat="13.82444" lon="-61.06438">
        <ele>14.56</ele>
        <time>2016-12-06T14:20:43Z</time>
      </trkpt>
      <trkpt lat="13.82442" lon="-61.06438">
        <ele>13.6</ele>
        <time>2016-12-06T14:21:04Z</time>
      </trkpt>
      <trkpt lat="13.82443" lon="-61.06438">
        <ele>16.48</ele>
        <time>2016-12-06T14:21:29Z</time>
      </trkpt>
      <trkpt lat="13.82443" lon="-61.0644">
        <ele>16.48</ele>
        <time>2016-12-06T14:21:52Z</time>
      </trkpt>
      <trkpt lat="13.82443" lon="-61.06439">
        <ele>15.52</ele>
        <time>2016-12-06T14:22:15Z</time>
      </trkpt>
      <trkpt lat="13.82444" lon="-61.06439">
        <ele>14.56</ele>
        <time>2016-12-06T14:22:37Z</time>
      </trkpt>
      <trkpt lat="13.82445" lon="-61.06439">
        <ele>14.56</ele>
        <time>2016-12-06T14:23:00Z</time>
      </trkpt>
      <trkpt lat="13.82446" lon="-61.06439">
        <ele>14.08</ele>
        <time>2016-12-06T14:23:22Z</time>
      </trkpt>
      <trkpt lat="13.82449" lon="-61.06439">
        <ele>13.6</ele>
        <time>2016-12-06T14:23:43Z</time>
      </trkpt>
      <trkpt lat="13.82454" lon="-61.06441">
        <ele>13.6</ele>
        <time>2016-12-06T14:23:51Z</time>
      </trkpt>
      <trkpt lat="13.82486" lon="-61.06468">
        <ele>12.63</ele>
        <time>2016-12-06T14:24:16Z</time>
      </trkpt>
      <trkpt lat="13.82525" lon="-61.06506">
        <ele>14.56</ele>
        <time>2016-12-06T14:24:42Z</time>
      </trkpt>
      <trkpt lat="13.82559" lon="-61.06547">
        <ele>14.08</ele>
        <time>2016-12-06T14:25:05Z</time>
      </trkpt>
      <trkpt lat="13.8259" lon="-61.06586">
        <ele>15.52</ele>
        <time>2016-12-06T14:25:27Z</time>
      </trkpt>
      <trkpt lat="13.82626" lon="-61.06624">
        <ele>14.08</ele>
        <time>2016-12-06T14:25:51Z</time>
      </trkpt>
      <trkpt lat="13.82661" lon="-61.06663">
        <ele>12.63</ele>
        <time>2016-12-06T14:26:15Z</time>
      </trkpt>
      <trkpt lat="13.82691" lon="-61.06693">
        <ele>12.15</ele>
        <time>2016-12-06T14:26:34Z</time>
      </trkpt>
      <trkpt lat="13.82726" lon="-61.06728">
        <ele>13.12</ele>
        <time>2016-12-06T14:26:56Z</time>
      </trkpt>
      <trkpt lat="13.82755" lon="-61.06756">
        <ele>13.6</ele>
        <time>2016-12-06T14:27:15Z</time>
      </trkpt>
      <trkpt lat="13.82793" lon="-61.0679">
        <ele>13.12</ele>
        <time>2016-12-06T14:27:40Z</time>
      </trkpt>
      <trkpt lat="13.82836" lon="-61.06816">
        <ele>13.12</ele>
        <time>2016-12-06T14:28:04Z</time>
      </trkpt>
      <trkpt lat="13.82869" lon="-61.06848">
        <ele>11.67</ele>
        <time>2016-12-06T14:28:26Z</time>
      </trkpt>
      <trkpt lat="13.82899" lon="-61.06887">
        <ele>11.19</ele>
        <time>2016-12-06T14:28:49Z</time>
      </trkpt>
      <trkpt lat="13.82933" lon="-61.06924">
        <ele>11.19</ele>
        <time>2016-12-06T14:29:14Z</time>
      </trkpt>
      <trkpt lat="13.82969" lon="-61.06945">
        <ele>12.63</ele>
        <time>2016-12-06T14:29:37Z</time>
      </trkpt>
      <trkpt lat="13.83011" lon="-61.06961">
        <ele>13.6</ele>
        <time>2016-12-06T14:30:00Z</time>
      </trkpt>
      <trkpt lat="13.83053" lon="-61.06982">
        <ele>14.08</ele>
        <time>2016-12-06T14:30:24Z</time>
      </trkpt>
      <trkpt lat="13.83097" lon="-61.07">
        <ele>16</ele>
        <time>2016-12-06T14:30:45Z</time>
      </trkpt>
      <trkpt lat="13.83139" lon="-61.07025">
        <ele>17.44</ele>
        <time>2016-12-06T14:31:06Z</time>
      </trkpt>
      <trkpt lat="13.83182" lon="-61.07044">
        <ele>16.96</ele>
        <time>2016-12-06T14:31:28Z</time>
      </trkpt>
      <trkpt lat="13.83213" lon="-61.07044">
        <ele>16</ele>
        <time>2016-12-06T14:31:52Z</time>
      </trkpt>
      <trkpt lat="13.83234" lon="-61.07042">
        <ele>16.96</ele>
        <time>2016-12-06T14:32:14Z</time>
      </trkpt>
      <trkpt lat="13.83256" lon="-61.07039">
        <ele>17.44</ele>
        <time>2016-12-06T14:32:38Z</time>
      </trkpt>
      <trkpt lat="13.83277" lon="-61.07033">
        <ele>16.96</ele>
        <time>2016-12-06T14:33:02Z</time>
      </trkpt>
      <trkpt lat="13.83287" lon="-61.07024">
        <ele>17.44</ele>
        <time>2016-12-06T14:33:19Z</time>
      </trkpt>
      <trkpt lat="13.83291" lon="-61.07016">
        <ele>17.44</ele>
        <time>2016-12-06T14:33:29Z</time>
      </trkpt>
      <trkpt lat="13.83293" lon="-61.0701">
        <ele>16.96</ele>
        <time>2016-12-06T14:33:35Z</time>
      </trkpt>
      <trkpt lat="13.83318" lon="-61.07004">
        <ele>16.48</ele>
        <time>2016-12-06T14:33:52Z</time>
      </trkpt>
      <trkpt lat="13.83336" lon="-61.07034">
        <ele>15.52</ele>
        <time>2016-12-06T14:34:10Z</time>
      </trkpt>
      <trkpt lat="13.83362" lon="-61.0706">
        <ele>15.52</ele>
        <time>2016-12-06T14:34:32Z</time>
      </trkpt>
      <trkpt lat="13.83396" lon="-61.07082">
        <ele>16</ele>
        <time>2016-12-06T14:34:56Z</time>
      </trkpt>
      <trkpt lat="13.83425" lon="-61.07098">
        <ele>15.52</ele>
        <time>2016-12-06T14:35:16Z</time>
      </trkpt>
      <trkpt lat="13.83457" lon="-61.07114">
        <ele>16</ele>
        <time>2016-12-06T14:35:37Z</time>
      </trkpt>
      <trkpt lat="13.83497" lon="-61.0713">
        <ele>16</ele>
        <time>2016-12-06T14:35:55Z</time>
      </trkpt>
      <trkpt lat="13.83553" lon="-61.07152">
        <ele>15.52</ele>
        <time>2016-12-06T14:36:16Z</time>
      </trkpt>
      <trkpt lat="13.83605" lon="-61.07173">
        <ele>15.52</ele>
        <time>2016-12-06T14:36:36Z</time>
      </trkpt>
      <trkpt lat="13.83659" lon="-61.07198">
        <ele>16</ele>
        <time>2016-12-06T14:36:57Z</time>
      </trkpt>
      <trkpt lat="13.83718" lon="-61.07224">
        <ele>16.48</ele>
        <time>2016-12-06T14:37:20Z</time>
      </trkpt>
      <trkpt lat="13.83779" lon="-61.07251">
        <ele>16.96</ele>
        <time>2016-12-06T14:37:44Z</time>
      </trkpt>
      <trkpt lat="13.83837" lon="-61.07276">
        <ele>16.48</ele>
        <time>2016-12-06T14:38:07Z</time>
      </trkpt>
      <trkpt lat="13.83893" lon="-61.07299">
        <ele>16</ele>
        <time>2016-12-06T14:38:29Z</time>
      </trkpt>
      <trkpt lat="13.83942" lon="-61.0732">
        <ele>16.48</ele>
        <time>2016-12-06T14:38:48Z</time>
      </trkpt>
      <trkpt lat="13.83994" lon="-61.07342">
        <ele>16.96</ele>
        <time>2016-12-06T14:39:08Z</time>
      </trkpt>
      <trkpt lat="13.84049" lon="-61.07366">
        <ele>16.96</ele>
        <time>2016-12-06T14:39:29Z</time>
      </trkpt>
      <trkpt lat="13.84116" lon="-61.07395">
        <ele>16.96</ele>
        <time>2016-12-06T14:39:55Z</time>
      </trkpt>
      <trkpt lat="13.84171" lon="-61.07419">
        <ele>17.44</ele>
        <time>2016-12-06T14:40:16Z</time>
      </trkpt>
      <trkpt lat="13.84226" lon="-61.0744">
        <ele>18.4</ele>
        <time>2016-12-06T14:40:38Z</time>
      </trkpt>
      <trkpt lat="13.8428" lon="-61.07463">
        <ele>17.44</ele>
        <time>2016-12-06T14:41:01Z</time>
      </trkpt>
      <trkpt lat="13.84341" lon="-61.0749">
        <ele>16</ele>
        <time>2016-12-06T14:41:26Z</time>
      </trkpt>
      <trkpt lat="13.84393" lon="-61.07515">
        <ele>16.96</ele>
        <time>2016-12-06T14:41:48Z</time>
      </trkpt>
      <trkpt lat="13.84434" lon="-61.07535">
        <ele>16.96</ele>
        <time>2016-12-06T14:42:06Z</time>
      </trkpt>
      <trkpt lat="13.84485" lon="-61.0756">
        <ele>17.92</ele>
        <time>2016-12-06T14:42:28Z</time>
      </trkpt>
      <trkpt lat="13.84543" lon="-61.07589">
        <ele>16.96</ele>
        <time>2016-12-06T14:42:53Z</time>
      </trkpt>
      <trkpt lat="13.8459" lon="-61.07611">
        <ele>17.92</ele>
        <time>2016-12-06T14:43:13Z</time>
      </trkpt>
      <trkpt lat="13.84637" lon="-61.07634">
        <ele>17.44</ele>
        <time>2016-12-06T14:43:34Z</time>
      </trkpt>
      <trkpt lat="13.84678" lon="-61.07654">
        <ele>16.48</ele>
        <time>2016-12-06T14:43:52Z</time>
      </trkpt>
      <trkpt lat="13.84724" lon="-61.07675">
        <ele>16.48</ele>
        <time>2016-12-06T14:44:12Z</time>
      </trkpt>
      <trkpt lat="13.84768" lon="-61.07696">
        <ele>16</ele>
        <time>2016-12-06T14:44:30Z</time>
      </trkpt>
      <trkpt lat="13.84823" lon="-61.07722">
        <ele>16.48</ele>
        <time>2016-12-06T14:44:53Z</time>
      </trkpt>
      <trkpt lat="13.84877" lon="-61.07747">
        <ele>16</ele>
        <time>2016-12-06T14:45:16Z</time>
      </trkpt>
      <trkpt lat="13.84929" lon="-61.07776">
        <ele>16</ele>
        <time>2016-12-06T14:45:38Z</time>
      </trkpt>
      <trkpt lat="13.84982" lon="-61.07806">
        <ele>16</ele>
        <time>2016-12-06T14:46:00Z</time>
      </trkpt>
      <trkpt lat="13.85033" lon="-61.07836">
        <ele>15.52</ele>
        <time>2016-12-06T14:46:20Z</time>
      </trkpt>
      <trkpt lat="13.85086" lon="-61.07865">
        <ele>16</ele>
        <time>2016-12-06T14:46:41Z</time>
      </trkpt>
      <trkpt lat="13.85147" lon="-61.07904">
        <ele>15.52</ele>
        <time>2016-12-06T14:47:05Z</time>
      </trkpt>
      <trkpt lat="13.85189" lon="-61.07931">
        <ele>15.52</ele>
        <time>2016-12-06T14:47:22Z</time>
      </trkpt>
      <trkpt lat="13.85228" lon="-61.07956">
        <ele>16</ele>
        <time>2016-12-06T14:47:37Z</time>
      </trkpt>
      <trkpt lat="13.85285" lon="-61.07988">
        <ele>16.48</ele>
        <time>2016-12-06T14:47:59Z</time>
      </trkpt>
      <trkpt lat="13.85335" lon="-61.07998">
        <ele>16.96</ele>
        <time>2016-12-06T14:48:19Z</time>
      </trkpt>
      <trkpt lat="13.85384" lon="-61.08015">
        <ele>17.44</ele>
        <time>2016-12-06T14:48:38Z</time>
      </trkpt>
      <trkpt lat="13.85438" lon="-61.08039">
        <ele>16</ele>
        <time>2016-12-06T14:48:58Z</time>
      </trkpt>
      <trkpt lat="13.8549" lon="-61.08067">
        <ele>15.52</ele>
        <time>2016-12-06T14:49:17Z</time>
      </trkpt>
      <trkpt lat="13.85528" lon="-61.08086">
        <ele>15.04</ele>
        <time>2016-12-06T14:49:32Z</time>
      </trkpt>
      <trkpt lat="13.85573" lon="-61.08107">
        <ele>15.52</ele>
        <time>2016-12-06T14:49:49Z</time>
      </trkpt>
      <trkpt lat="13.85612" lon="-61.08128">
        <ele>16.48</ele>
        <time>2016-12-06T14:50:06Z</time>
      </trkpt>
      <trkpt lat="13.85658" lon="-61.08151">
        <ele>16.48</ele>
        <time>2016-12-06T14:50:26Z</time>
      </trkpt>
      <trkpt lat="13.85694" lon="-61.08172">
        <ele>15.52</ele>
        <time>2016-12-06T14:50:43Z</time>
      </trkpt>
      <trkpt lat="13.85738" lon="-61.08199">
        <ele>15.04</ele>
        <time>2016-12-06T14:51:03Z</time>
      </trkpt>
      <trkpt lat="13.85777" lon="-61.0822">
        <ele>16</ele>
        <time>2016-12-06T14:51:21Z</time>
      </trkpt>
      <trkpt lat="13.8582" lon="-61.08241">
        <ele>14.56</ele>
        <time>2016-12-06T14:51:45Z</time>
      </trkpt>
      <trkpt lat="13.85844" lon="-61.0825">
        <ele>14.56</ele>
        <time>2016-12-06T14:52:02Z</time>
      </trkpt>
      <trkpt lat="13.85873" lon="-61.0827">
        <ele>14.56</ele>
        <time>2016-12-06T14:52:23Z</time>
      </trkpt>
      <trkpt lat="13.85905" lon="-61.0829">
        <ele>16.96</ele>
        <time>2016-12-06T14:52:43Z</time>
      </trkpt>
      <trkpt lat="13.85943" lon="-61.08311">
        <ele>16.96</ele>
        <time>2016-12-06T14:53:04Z</time>
      </trkpt>
      <trkpt lat="13.85981" lon="-61.08334">
        <ele>16</ele>
        <time>2016-12-06T14:53:22Z</time>
      </trkpt>
      <trkpt lat="13.86018" lon="-61.08355">
        <ele>16.48</ele>
        <time>2016-12-06T14:53:40Z</time>
      </trkpt>
      <trkpt lat="13.86053" lon="-61.08374">
        <ele>16</ele>
        <time>2016-12-06T14:53:59Z</time>
      </trkpt>
      <trkpt lat="13.86089" lon="-61.08398">
        <ele>14.56</ele>
        <time>2016-12-06T14:54:20Z</time>
      </trkpt>
      <trkpt lat="13.86129" lon="-61.08423">
        <ele>14.08</ele>
        <time>2016-12-06T14:54:41Z</time>
      </trkpt>
      <trkpt lat="13.8617" lon="-61.08449">
        <ele>13.12</ele>
        <time>2016-12-06T14:55:00Z</time>
      </trkpt>
      <trkpt lat="13.86211" lon="-61.0847">
        <ele>14.08</ele>
        <time>2016-12-06T14:55:17Z</time>
      </trkpt>
      <trkpt lat="13.86245" lon="-61.08487">
        <ele>14.56</ele>
        <time>2016-12-06T14:55:32Z</time>
      </trkpt>
      <trkpt lat="13.86296" lon="-61.08514">
        <ele>15.04</ele>
        <time>2016-12-06T14:55:55Z</time>
      </trkpt>
      <trkpt lat="13.86341" lon="-61.08537">
        <ele>15.52</ele>
        <time>2016-12-06T14:56:13Z</time>
      </trkpt>
      <trkpt lat="13.86385" lon="-61.08556">
        <ele>15.04</ele>
        <time>2016-12-06T14:56:31Z</time>
      </trkpt>
      <trkpt lat="13.86422" lon="-61.08577">
        <ele>15.52</ele>
        <time>2016-12-06T14:56:48Z</time>
      </trkpt>
      <trkpt lat="13.86463" lon="-61.08599">
        <ele>15.52</ele>
        <time>2016-12-06T14:57:06Z</time>
      </trkpt>
      <trkpt lat="13.86503" lon="-61.08621">
        <ele>15.52</ele>
        <time>2016-12-06T14:57:24Z</time>
      </trkpt>
      <trkpt lat="13.86547" lon="-61.08645">
        <ele>15.52</ele>
        <time>2016-12-06T14:57:44Z</time>
      </trkpt>
      <trkpt lat="13.8658" lon="-61.08664">
        <ele>15.04</ele>
        <time>2016-12-06T14:58:00Z</time>
      </trkpt>
      <trkpt lat="13.86628" lon="-61.0869">
        <ele>15.04</ele>
        <time>2016-12-06T14:58:21Z</time>
      </trkpt>
      <trkpt lat="13.86657" lon="-61.08705">
        <ele>15.52</ele>
        <time>2016-12-06T14:58:35Z</time>
      </trkpt>
      <trkpt lat="13.86709" lon="-61.08728">
        <ele>14.08</ele>
        <time>2016-12-06T14:58:58Z</time>
      </trkpt>
      <trkpt lat="13.86752" lon="-61.08738">
        <ele>14.56</ele>
        <time>2016-12-06T14:59:18Z</time>
      </trkpt>
      <trkpt lat="13.86791" lon="-61.08747">
        <ele>16</ele>
        <time>2016-12-06T14:59:40Z</time>
      </trkpt>
      <trkpt lat="13.86833" lon="-61.08764">
        <ele>15.52</ele>
        <time>2016-12-06T15:00:01Z</time>
      </trkpt>
      <trkpt lat="13.86878" lon="-61.08777">
        <ele>14.56</ele>
        <time>2016-12-06T15:00:18Z</time>
      </trkpt>
      <trkpt lat="13.86917" lon="-61.08783">
        <ele>15.04</ele>
        <time>2016-12-06T15:00:36Z</time>
      </trkpt>
      <trkpt lat="13.86947" lon="-61.08791">
        <ele>12.63</ele>
        <time>2016-12-06T15:00:56Z</time>
      </trkpt>
      <trkpt lat="13.86974" lon="-61.08809">
        <ele>12.63</ele>
        <time>2016-12-06T15:01:16Z</time>
      </trkpt>
      <trkpt lat="13.87007" lon="-61.08832">
        <ele>12.63</ele>
        <time>2016-12-06T15:01:38Z</time>
      </trkpt>
      <trkpt lat="13.87038" lon="-61.08843">
        <ele>11.67</ele>
        <time>2016-12-06T15:01:58Z</time>
      </trkpt>
      <trkpt lat="13.87059" lon="-61.08853">
        <ele>11.67</ele>
        <time>2016-12-06T15:02:16Z</time>
      </trkpt>
      <trkpt lat="13.87093" lon="-61.08874">
        <ele>11.19</ele>
        <time>2016-12-06T15:02:37Z</time>
      </trkpt>
      <trkpt lat="13.87124" lon="-61.08883">
        <ele>13.12</ele>
        <time>2016-12-06T15:02:57Z</time>
      </trkpt>
      <trkpt lat="13.87155" lon="-61.089">
        <ele>11.67</ele>
        <time>2016-12-06T15:03:16Z</time>
      </trkpt>
      <trkpt lat="13.872" lon="-61.08918">
        <ele>10.71</ele>
        <time>2016-12-06T15:03:40Z</time>
      </trkpt>
      <trkpt lat="13.87231" lon="-61.0893">
        <ele>11.19</ele>
        <time>2016-12-06T15:03:57Z</time>
      </trkpt>
      <trkpt lat="13.87274" lon="-61.0895">
        <ele>11.67</ele>
        <time>2016-12-06T15:04:17Z</time>
      </trkpt>
      <trkpt lat="13.87323" lon="-61.08966">
        <ele>12.15</ele>
        <time>2016-12-06T15:04:38Z</time>
      </trkpt>
      <trkpt lat="13.87366" lon="-61.08982">
        <ele>12.63</ele>
        <time>2016-12-06T15:04:58Z</time>
      </trkpt>
      <trkpt lat="13.8741" lon="-61.08999">
        <ele>12.63</ele>
        <time>2016-12-06T15:05:20Z</time>
      </trkpt>
      <trkpt lat="13.87451" lon="-61.09012">
        <ele>13.12</ele>
        <time>2016-12-06T15:05:39Z</time>
      </trkpt>
      <trkpt lat="13.87501" lon="-61.09026">
        <ele>13.12</ele>
        <time>2016-12-06T15:06:01Z</time>
      </trkpt>
      <trkpt lat="13.87527" lon="-61.09029">
        <ele>13.12</ele>
        <time>2016-12-06T15:06:16Z</time>
      </trkpt>
      <trkpt lat="13.87549" lon="-61.09032">
        <ele>13.12</ele>
        <time>2016-12-06T15:06:33Z</time>
      </trkpt>
      <trkpt lat="13.8757" lon="-61.09041">
        <ele>13.12</ele>
        <time>2016-12-06T15:06:51Z</time>
      </trkpt>
      <trkpt lat="13.87598" lon="-61.09052">
        <ele>13.12</ele>
        <time>2016-12-06T15:07:13Z</time>
      </trkpt>
      <trkpt lat="13.87618" lon="-61.09054">
        <ele>12.63</ele>
        <time>2016-12-06T15:07:30Z</time>
      </trkpt>
      <trkpt lat="13.8764" lon="-61.09056">
        <ele>14.08</ele>
        <time>2016-12-06T15:07:47Z</time>
      </trkpt>
      <trkpt lat="13.87671" lon="-61.09067">
        <ele>13.6</ele>
        <time>2016-12-06T15:08:04Z</time>
      </trkpt>
      <trkpt lat="13.8772" lon="-61.09074">
        <ele>13.6</ele>
        <time>2016-12-06T15:08:24Z</time>
      </trkpt>
      <trkpt lat="13.87769" lon="-61.09063">
        <ele>13.12</ele>
        <time>2016-12-06T15:08:42Z</time>
      </trkpt>
      <trkpt lat="13.87817" lon="-61.09049">
        <ele>13.6</ele>
        <time>2016-12-06T15:08:59Z</time>
      </trkpt>
      <trkpt lat="13.87875" lon="-61.09036">
        <ele>14.08</ele>
        <time>2016-12-06T15:09:19Z</time>
      </trkpt>
      <trkpt lat="13.87928" lon="-61.09022">
        <ele>14.56</ele>
        <time>2016-12-06T15:09:38Z</time>
      </trkpt>
      <trkpt lat="13.87975" lon="-61.09009">
        <ele>14.56</ele>
        <time>2016-12-06T15:09:55Z</time>
      </trkpt>
      <trkpt lat="13.88027" lon="-61.08993">
        <ele>15.52</ele>
        <time>2016-12-06T15:10:14Z</time>
      </trkpt>
      <trkpt lat="13.88074" lon="-61.08983">
        <ele>15.04</ele>
        <time>2016-12-06T15:10:31Z</time>
      </trkpt>
      <trkpt lat="13.88119" lon="-61.08971">
        <ele>15.52</ele>
        <time>2016-12-06T15:10:48Z</time>
      </trkpt>
      <trkpt lat="13.88179" lon="-61.08957">
        <ele>14.56</ele>
        <time>2016-12-06T15:11:09Z</time>
      </trkpt>
      <trkpt lat="13.88234" lon="-61.08944">
        <ele>14.08</ele>
        <time>2016-12-06T15:11:29Z</time>
      </trkpt>
      <trkpt lat="13.88282" lon="-61.08934">
        <ele>15.04</ele>
        <time>2016-12-06T15:11:46Z</time>
      </trkpt>
      <trkpt lat="13.88327" lon="-61.08924">
        <ele>15.04</ele>
        <time>2016-12-06T15:12:02Z</time>
      </trkpt>
      <trkpt lat="13.88361" lon="-61.08913">
        <ele>15.04</ele>
        <time>2016-12-06T15:12:16Z</time>
      </trkpt>
      <trkpt lat="13.88399" lon="-61.08899">
        <ele>15.04</ele>
        <time>2016-12-06T15:12:30Z</time>
      </trkpt>
      <trkpt lat="13.88448" lon="-61.08882">
        <ele>15.52</ele>
        <time>2016-12-06T15:12:48Z</time>
      </trkpt>
      <trkpt lat="13.885" lon="-61.08864">
        <ele>15.04</ele>
        <time>2016-12-06T15:13:07Z</time>
      </trkpt>
      <trkpt lat="13.88549" lon="-61.08849">
        <ele>15.52</ele>
        <time>2016-12-06T15:13:25Z</time>
      </trkpt>
      <trkpt lat="13.88582" lon="-61.08838">
        <ele>15.52</ele>
        <time>2016-12-06T15:13:37Z</time>
      </trkpt>
      <trkpt lat="13.88627" lon="-61.08822">
        <ele>14.08</ele>
        <time>2016-12-06T15:13:54Z</time>
      </trkpt>
      <trkpt lat="13.88678" lon="-61.08804">
        <ele>13.6</ele>
        <time>2016-12-06T15:14:13Z</time>
      </trkpt>
      <trkpt lat="13.88716" lon="-61.08792">
        <ele>13.6</ele>
        <time>2016-12-06T15:14:27Z</time>
      </trkpt>
      <trkpt lat="13.8876" lon="-61.08778">
        <ele>14.56</ele>
        <time>2016-12-06T15:14:43Z</time>
      </trkpt>
      <trkpt lat="13.88812" lon="-61.08761">
        <ele>15.04</ele>
        <time>2016-12-06T15:15:02Z</time>
      </trkpt>
      <trkpt lat="13.88858" lon="-61.08745">
        <ele>15.04</ele>
        <time>2016-12-06T15:15:19Z</time>
      </trkpt>
      <trkpt lat="13.889" lon="-61.08732">
        <ele>15.04</ele>
        <time>2016-12-06T15:15:34Z</time>
      </trkpt>
      <trkpt lat="13.88955" lon="-61.08714">
        <ele>14.56</ele>
        <time>2016-12-06T15:15:54Z</time>
      </trkpt>
      <trkpt lat="13.89006" lon="-61.08698">
        <ele>14.56</ele>
        <time>2016-12-06T15:16:12Z</time>
      </trkpt>
      <trkpt lat="13.89048" lon="-61.08684">
        <ele>14.56</ele>
        <time>2016-12-06T15:16:27Z</time>
      </trkpt>
      <trkpt lat="13.89101" lon="-61.08668">
        <ele>15.04</ele>
        <time>2016-12-06T15:16:46Z</time>
      </trkpt>
      <trkpt lat="13.89144" lon="-61.08654">
        <ele>15.52</ele>
        <time>2016-12-06T15:17:02Z</time>
      </trkpt>
      <trkpt lat="13.89192" lon="-61.0864">
        <ele>16</ele>
        <time>2016-12-06T15:17:19Z</time>
      </trkpt>
      <trkpt lat="13.89235" lon="-61.08626">
        <ele>16</ele>
        <time>2016-12-06T15:17:35Z</time>
      </trkpt>
      <trkpt lat="13.89278" lon="-61.08613">
        <ele>15.04</ele>
        <time>2016-12-06T15:17:51Z</time>
      </trkpt>
      <trkpt lat="13.89329" lon="-61.08595">
        <ele>14.56</ele>
        <time>2016-12-06T15:18:10Z</time>
      </trkpt>
      <trkpt lat="13.89382" lon="-61.08576">
        <ele>14.08</ele>
        <time>2016-12-06T15:18:29Z</time>
      </trkpt>
      <trkpt lat="13.89438" lon="-61.08556">
        <ele>14.08</ele>
        <time>2016-12-06T15:18:49Z</time>
      </trkpt>
      <trkpt lat="13.89485" lon="-61.08539">
        <ele>14.56</ele>
        <time>2016-12-06T15:19:06Z</time>
      </trkpt>
      <trkpt lat="13.89541" lon="-61.08519">
        <ele>14.56</ele>
        <time>2016-12-06T15:19:26Z</time>
      </trkpt>
      <trkpt lat="13.89592" lon="-61.08501">
        <ele>14.08</ele>
        <time>2016-12-06T15:19:44Z</time>
      </trkpt>
      <trkpt lat="13.89649" lon="-61.0848">
        <ele>13.6</ele>
        <time>2016-12-06T15:20:05Z</time>
      </trkpt>
      <trkpt lat="13.89693" lon="-61.08464">
        <ele>13.6</ele>
        <time>2016-12-06T15:20:21Z</time>
      </trkpt>
      <trkpt lat="13.89733" lon="-61.0845">
        <ele>13.6</ele>
        <time>2016-12-06T15:20:36Z</time>
      </trkpt>
      <trkpt lat="13.89781" lon="-61.08433">
        <ele>13.6</ele>
        <time>2016-12-06T15:20:54Z</time>
      </trkpt>
      <trkpt lat="13.8982" lon="-61.08419">
        <ele>13.6</ele>
        <time>2016-12-06T15:21:09Z</time>
      </trkpt>
      <trkpt lat="13.89859" lon="-61.08406">
        <ele>13.6</ele>
        <time>2016-12-06T15:21:24Z</time>
      </trkpt>
      <trkpt lat="13.8991" lon="-61.08388">
        <ele>14.08</ele>
        <time>2016-12-06T15:21:44Z</time>
      </trkpt>
      <trkpt lat="13.89956" lon="-61.08372">
        <ele>14.08</ele>
        <time>2016-12-06T15:22:02Z</time>
      </trkpt>
      <trkpt lat="13.9" lon="-61.08357">
        <ele>14.08</ele>
        <time>2016-12-06T15:22:20Z</time>
      </trkpt>
      <trkpt lat="13.90037" lon="-61.08343">
        <ele>14.08</ele>
        <time>2016-12-06T15:22:35Z</time>
      </trkpt>
      <trkpt lat="13.90078" lon="-61.0833">
        <ele>13.6</ele>
        <time>2016-12-06T15:22:53Z</time>
      </trkpt>
      <trkpt lat="13.9011" lon="-61.08322">
        <ele>13.6</ele>
        <time>2016-12-06T15:23:08Z</time>
      </trkpt>
      <trkpt lat="13.90148" lon="-61.08309">
        <ele>14.08</ele>
        <time>2016-12-06T15:23:26Z</time>
      </trkpt>
      <trkpt lat="13.9018" lon="-61.08299">
        <ele>14.08</ele>
        <time>2016-12-06T15:23:41Z</time>
      </trkpt>
      <trkpt lat="13.90221" lon="-61.08284">
        <ele>13.12</ele>
        <time>2016-12-06T15:24:00Z</time>
      </trkpt>
      <trkpt lat="13.90254" lon="-61.08272">
        <ele>13.12</ele>
        <time>2016-12-06T15:24:16Z</time>
      </trkpt>
      <trkpt lat="13.90288" lon="-61.08261">
        <ele>13.6</ele>
        <time>2016-12-06T15:24:33Z</time>
      </trkpt>
      <trkpt lat="13.90331" lon="-61.08248">
        <ele>14.08</ele>
        <time>2016-12-06T15:24:54Z</time>
      </trkpt>
      <trkpt lat="13.90381" lon="-61.08233">
        <ele>14.08</ele>
        <time>2016-12-06T15:25:17Z</time>
      </trkpt>
      <trkpt lat="13.90414" lon="-61.08221">
        <ele>13.6</ele>
        <time>2016-12-06T15:25:33Z</time>
      </trkpt>
      <trkpt lat="13.90456" lon="-61.08207">
        <ele>13.12</ele>
        <time>2016-12-06T15:25:53Z</time>
      </trkpt>
      <trkpt lat="13.90491" lon="-61.08194">
        <ele>12.63</ele>
        <time>2016-12-06T15:26:09Z</time>
      </trkpt>
      <trkpt lat="13.9053" lon="-61.08179">
        <ele>13.12</ele>
        <time>2016-12-06T15:26:27Z</time>
      </trkpt>
      <trkpt lat="13.90568" lon="-61.08165">
        <ele>12.63</ele>
        <time>2016-12-06T15:26:44Z</time>
      </trkpt>
      <trkpt lat="13.90598" lon="-61.08153">
        <ele>13.12</ele>
        <time>2016-12-06T15:26:58Z</time>
      </trkpt>
      <trkpt lat="13.90643" lon="-61.08137">
        <ele>13.12</ele>
        <time>2016-12-06T15:27:18Z</time>
      </trkpt>
      <trkpt lat="13.90674" lon="-61.08125">
        <ele>13.12</ele>
        <time>2016-12-06T15:27:33Z</time>
      </trkpt>
      <trkpt lat="13.90713" lon="-61.0811">
        <ele>12.63</ele>
        <time>2016-12-06T15:27:51Z</time>
      </trkpt>
      <trkpt lat="13.90744" lon="-61.081">
        <ele>13.6</ele>
        <time>2016-12-06T15:28:06Z</time>
      </trkpt>
      <trkpt lat="13.90779" lon="-61.08088">
        <ele>12.15</ele>
        <time>2016-12-06T15:28:22Z</time>
      </trkpt>
      <trkpt lat="13.90812" lon="-61.08081">
        <ele>11.67</ele>
        <time>2016-12-06T15:28:35Z</time>
      </trkpt>
      <trkpt lat="13.90863" lon="-61.0807">
        <ele>13.12</ele>
        <time>2016-12-06T15:28:57Z</time>
      </trkpt>
      <trkpt lat="13.90901" lon="-61.0806">
        <ele>13.6</ele>
        <time>2016-12-06T15:29:14Z</time>
      </trkpt>
      <trkpt lat="13.90943" lon="-61.08049">
        <ele>14.56</ele>
        <time>2016-12-06T15:29:34Z</time>
      </trkpt>
      <trkpt lat="13.90992" lon="-61.08038">
        <ele>15.52</ele>
        <time>2016-12-06T15:29:55Z</time>
      </trkpt>
      <trkpt lat="13.9103" lon="-61.08029">
        <ele>14.08</ele>
        <time>2016-12-06T15:30:12Z</time>
      </trkpt>
      <trkpt lat="13.91059" lon="-61.08021">
        <ele>14.56</ele>
        <time>2016-12-06T15:30:25Z</time>
      </trkpt>
      <trkpt lat="13.91092" lon="-61.08012">
        <ele>14.56</ele>
        <time>2016-12-06T15:30:40Z</time>
      </trkpt>
      <trkpt lat="13.91125" lon="-61.08003">
        <ele>13.6</ele>
        <time>2016-12-06T15:30:56Z</time>
      </trkpt>
      <trkpt lat="13.91155" lon="-61.07996">
        <ele>14.08</ele>
        <time>2016-12-06T15:31:10Z</time>
      </trkpt>
      <trkpt lat="13.91193" lon="-61.07985">
        <ele>14.08</ele>
        <time>2016-12-06T15:31:27Z</time>
      </trkpt>
      <trkpt lat="13.91231" lon="-61.07973">
        <ele>14.56</ele>
        <time>2016-12-06T15:31:44Z</time>
      </trkpt>
      <trkpt lat="13.9128" lon="-61.07957">
        <ele>13.12</ele>
        <time>2016-12-06T15:32:05Z</time>
      </trkpt>
      <trkpt lat="13.91321" lon="-61.07946">
        <ele>12.63</ele>
        <time>2016-12-06T15:32:23Z</time>
      </trkpt>
      <trkpt lat="13.91355" lon="-61.07937">
        <ele>13.6</ele>
        <time>2016-12-06T15:32:38Z</time>
      </trkpt>
      <trkpt lat="13.91391" lon="-61.0793">
        <ele>13.6</ele>
        <time>2016-12-06T15:32:54Z</time>
      </trkpt>
      <trkpt lat="13.91432" lon="-61.0792">
        <ele>14.08</ele>
        <time>2016-12-06T15:33:12Z</time>
      </trkpt>
      <trkpt lat="13.91463" lon="-61.07911">
        <ele>14.56</ele>
        <time>2016-12-06T15:33:26Z</time>
      </trkpt>
      <trkpt lat="13.91491" lon="-61.07903">
        <ele>13.6</ele>
        <time>2016-12-06T15:33:39Z</time>
      </trkpt>
      <trkpt lat="13.91523" lon="-61.07894">
        <ele>14.08</ele>
        <time>2016-12-06T15:33:53Z</time>
      </trkpt>
      <trkpt lat="13.91553" lon="-61.07886">
        <ele>13.6</ele>
        <time>2016-12-06T15:34:06Z</time>
      </trkpt>
      <trkpt lat="13.91578" lon="-61.0788">
        <ele>13.6</ele>
        <time>2016-12-06T15:34:17Z</time>
      </trkpt>
      <trkpt lat="13.91614" lon="-61.0787">
        <ele>13.6</ele>
        <time>2016-12-06T15:34:33Z</time>
      </trkpt>
      <trkpt lat="13.91643" lon="-61.07863">
        <ele>13.6</ele>
        <time>2016-12-06T15:34:46Z</time>
      </trkpt>
      <trkpt lat="13.91677" lon="-61.07853">
        <ele>13.12</ele>
        <time>2016-12-06T15:35:01Z</time>
      </trkpt>
      <trkpt lat="13.9172" lon="-61.07839">
        <ele>13.6</ele>
        <time>2016-12-06T15:35:20Z</time>
      </trkpt>
      <trkpt lat="13.91746" lon="-61.07831">
        <ele>14.56</ele>
        <time>2016-12-06T15:35:31Z</time>
      </trkpt>
      <trkpt lat="13.91779" lon="-61.07823">
        <ele>15.04</ele>
        <time>2016-12-06T15:35:45Z</time>
      </trkpt>
      <trkpt lat="13.91806" lon="-61.07817">
        <ele>14.08</ele>
        <time>2016-12-06T15:35:57Z</time>
      </trkpt>
      <trkpt lat="13.91833" lon="-61.07809">
        <ele>14.08</ele>
        <time>2016-12-06T15:36:09Z</time>
      </trkpt>
      <trkpt lat="13.91857" lon="-61.07802">
        <ele>14.56</ele>
        <time>2016-12-06T15:36:19Z</time>
      </trkpt>
      <trkpt lat="13.91902" lon="-61.07789">
        <ele>15.04</ele>
        <time>2016-12-06T15:36:38Z</time>
      </trkpt>
      <trkpt lat="13.91932" lon="-61.07782">
        <ele>16</ele>
        <time>2016-12-06T15:36:51Z</time>
      </trkpt>
      <trkpt lat="13.91968" lon="-61.0777">
        <ele>15.04</ele>
        <time>2016-12-06T15:37:06Z</time>
      </trkpt>
      <trkpt lat="13.9201" lon="-61.07756">
        <ele>13.12</ele>
        <time>2016-12-06T15:37:23Z</time>
      </trkpt>
      <trkpt lat="13.92045" lon="-61.07747">
        <ele>14.08</ele>
        <time>2016-12-06T15:37:37Z</time>
      </trkpt>
      <trkpt lat="13.92086" lon="-61.07738">
        <ele>13.6</ele>
        <time>2016-12-06T15:37:53Z</time>
      </trkpt>
      <trkpt lat="13.9213" lon="-61.07728">
        <ele>13.6</ele>
        <time>2016-12-06T15:38:10Z</time>
      </trkpt>
      <trkpt lat="13.9216" lon="-61.07722">
        <ele>13.6</ele>
        <time>2016-12-06T15:38:22Z</time>
      </trkpt>
      <trkpt lat="13.92197" lon="-61.07716">
        <ele>13.6</ele>
        <time>2016-12-06T15:38:36Z</time>
      </trkpt>
      <trkpt lat="13.92234" lon="-61.07708">
        <ele>13.12</ele>
        <time>2016-12-06T15:38:51Z</time>
      </trkpt>
      <trkpt lat="13.92273" lon="-61.07698">
        <ele>13.12</ele>
        <time>2016-12-06T15:39:07Z</time>
      </trkpt>
      <trkpt lat="13.92309" lon="-61.07688">
        <ele>13.12</ele>
        <time>2016-12-06T15:39:22Z</time>
      </trkpt>
      <trkpt lat="13.9234" lon="-61.0768">
        <ele>15.52</ele>
        <time>2016-12-06T15:39:35Z</time>
      </trkpt>
      <trkpt lat="13.92373" lon="-61.07672">
        <ele>16.48</ele>
        <time>2016-12-06T15:39:49Z</time>
      </trkpt>
      <trkpt lat="13.92411" lon="-61.07662">
        <ele>16</ele>
        <time>2016-12-06T15:40:05Z</time>
      </trkpt>
      <trkpt lat="13.92445" lon="-61.07656">
        <ele>15.04</ele>
        <time>2016-12-06T15:40:19Z</time>
      </trkpt>
      <trkpt lat="13.92489" lon="-61.07648">
        <ele>14.08</ele>
        <time>2016-12-06T15:40:36Z</time>
      </trkpt>
      <trkpt lat="13.9253" lon="-61.07641">
        <ele>13.6</ele>
        <time>2016-12-06T15:40:53Z</time>
      </trkpt>
      <trkpt lat="13.92575" lon="-61.07631">
        <ele>13.6</ele>
        <time>2016-12-06T15:41:11Z</time>
      </trkpt>
      <trkpt lat="13.92603" lon="-61.07623">
        <ele>13.6</ele>
        <time>2016-12-06T15:41:23Z</time>
      </trkpt>
      <trkpt lat="13.92642" lon="-61.07613">
        <ele>12.15</ele>
        <time>2016-12-06T15:41:39Z</time>
      </trkpt>
      <trkpt lat="13.92674" lon="-61.07605">
        <ele>11.67</ele>
        <time>2016-12-06T15:41:52Z</time>
      </trkpt>
      <trkpt lat="13.9272" lon="-61.07595">
        <ele>11.19</ele>
        <time>2016-12-06T15:42:10Z</time>
      </trkpt>
      <trkpt lat="13.92752" lon="-61.07587">
        <ele>11.19</ele>
        <time>2016-12-06T15:42:23Z</time>
      </trkpt>
      <trkpt lat="13.92787" lon="-61.07578">
        <ele>11.67</ele>
        <time>2016-12-06T15:42:37Z</time>
      </trkpt>
      <trkpt lat="13.92809" lon="-61.07572">
        <ele>12.63</ele>
        <time>2016-12-06T15:42:46Z</time>
      </trkpt>
      <trkpt lat="13.9284" lon="-61.07565">
        <ele>13.12</ele>
        <time>2016-12-06T15:42:58Z</time>
      </trkpt>
      <trkpt lat="13.92875" lon="-61.07555">
        <ele>14.08</ele>
        <time>2016-12-06T15:43:12Z</time>
      </trkpt>
      <trkpt lat="13.92916" lon="-61.07542">
        <ele>14.56</ele>
        <time>2016-12-06T15:43:29Z</time>
      </trkpt>
      <trkpt lat="13.92956" lon="-61.0753">
        <ele>15.52</ele>
        <time>2016-12-06T15:43:45Z</time>
      </trkpt>
      <trkpt lat="13.93002" lon="-61.07515">
        <ele>16.96</ele>
        <time>2016-12-06T15:44:04Z</time>
      </trkpt>
      <trkpt lat="13.93035" lon="-61.07504">
        <ele>16</ele>
        <time>2016-12-06T15:44:18Z</time>
      </trkpt>
      <trkpt lat="13.93072" lon="-61.07493">
        <ele>15.04</ele>
        <time>2016-12-06T15:44:34Z</time>
      </trkpt>
      <trkpt lat="13.93106" lon="-61.07483">
        <ele>16</ele>
        <time>2016-12-06T15:44:48Z</time>
      </trkpt>
      <trkpt lat="13.93138" lon="-61.07473">
        <ele>16</ele>
        <time>2016-12-06T15:45:01Z</time>
      </trkpt>
      <trkpt lat="13.93181" lon="-61.07458">
        <ele>16</ele>
        <time>2016-12-06T15:45:19Z</time>
      </trkpt>
      <trkpt lat="13.93219" lon="-61.07446">
        <ele>16.48</ele>
        <time>2016-12-06T15:45:35Z</time>
      </trkpt>
      <trkpt lat="13.93262" lon="-61.07432">
        <ele>16</ele>
        <time>2016-12-06T15:45:53Z</time>
      </trkpt>
      <trkpt lat="13.93298" lon="-61.07418">
        <ele>15.52</ele>
        <time>2016-12-06T15:46:08Z</time>
      </trkpt>
      <trkpt lat="13.93334" lon="-61.07406">
        <ele>14.56</ele>
        <time>2016-12-06T15:46:23Z</time>
      </trkpt>
      <trkpt lat="13.93372" lon="-61.07393">
        <ele>14.56</ele>
        <time>2016-12-06T15:46:39Z</time>
      </trkpt>
      <trkpt lat="13.93408" lon="-61.0738">
        <ele>15.04</ele>
        <time>2016-12-06T15:46:54Z</time>
      </trkpt>
      <trkpt lat="13.93439" lon="-61.07369">
        <ele>15.04</ele>
        <time>2016-12-06T15:47:07Z</time>
      </trkpt>
      <trkpt lat="13.93459" lon="-61.07363">
        <ele>15.04</ele>
        <time>2016-12-06T15:47:16Z</time>
      </trkpt>
      <trkpt lat="13.93491" lon="-61.07352">
        <ele>15.52</ele>
        <time>2016-12-06T15:47:29Z</time>
      </trkpt>
      <trkpt lat="13.93519" lon="-61.07342">
        <ele>14.56</ele>
        <time>2016-12-06T15:47:41Z</time>
      </trkpt>
      <trkpt lat="13.93555" lon="-61.07329">
        <ele>15.04</ele>
        <time>2016-12-06T15:47:57Z</time>
      </trkpt>
      <trkpt lat="13.93588" lon="-61.07317">
        <ele>15.04</ele>
        <time>2016-12-06T15:48:11Z</time>
      </trkpt>
      <trkpt lat="13.93612" lon="-61.07308">
        <ele>14.08</ele>
        <time>2016-12-06T15:48:22Z</time>
      </trkpt>
      <trkpt lat="13.93648" lon="-61.07296">
        <ele>14.08</ele>
        <time>2016-12-06T15:48:38Z</time>
      </trkpt>
      <trkpt lat="13.93673" lon="-61.07286">
        <ele>14.56</ele>
        <time>2016-12-06T15:48:49Z</time>
      </trkpt>
      <trkpt lat="13.93708" lon="-61.07272">
        <ele>15.04</ele>
        <time>2016-12-06T15:49:04Z</time>
      </trkpt>
      <trkpt lat="13.93729" lon="-61.07264">
        <ele>15.52</ele>
        <time>2016-12-06T15:49:13Z</time>
      </trkpt>
      <trkpt lat="13.93754" lon="-61.07253">
        <ele>15.52</ele>
        <time>2016-12-06T15:49:24Z</time>
      </trkpt>
      <trkpt lat="13.93792" lon="-61.07239">
        <ele>16</ele>
        <time>2016-12-06T15:49:40Z</time>
      </trkpt>
      <trkpt lat="13.93822" lon="-61.07226">
        <ele>15.52</ele>
        <time>2016-12-06T15:49:53Z</time>
      </trkpt>
      <trkpt lat="13.93849" lon="-61.07218">
        <ele>14.56</ele>
        <time>2016-12-06T15:50:05Z</time>
      </trkpt>
      <trkpt lat="13.93886" lon="-61.07206">
        <ele>14.56</ele>
        <time>2016-12-06T15:50:21Z</time>
      </trkpt>
      <trkpt lat="13.93915" lon="-61.07194">
        <ele>14.56</ele>
        <time>2016-12-06T15:50:34Z</time>
      </trkpt>
      <trkpt lat="13.93945" lon="-61.07184">
        <ele>15.04</ele>
        <time>2016-12-06T15:50:47Z</time>
      </trkpt>
      <trkpt lat="13.93976" lon="-61.07172">
        <ele>15.04</ele>
        <time>2016-12-06T15:51:01Z</time>
      </trkpt>
      <trkpt lat="13.9399" lon="-61.07168">
        <ele>15.04</ele>
        <time>2016-12-06T15:51:08Z</time>
      </trkpt>
      <trkpt lat="13.9403" lon="-61.07153">
        <ele>15.52</ele>
        <time>2016-12-06T15:51:26Z</time>
      </trkpt>
      <trkpt lat="13.94066" lon="-61.07139">
        <ele>15.52</ele>
        <time>2016-12-06T15:51:41Z</time>
      </trkpt>
      <trkpt lat="13.94092" lon="-61.07129">
        <ele>15.04</ele>
        <time>2016-12-06T15:51:53Z</time>
      </trkpt>
      <trkpt lat="13.9412" lon="-61.07118">
        <ele>14.56</ele>
        <time>2016-12-06T15:52:06Z</time>
      </trkpt>
      <trkpt lat="13.94152" lon="-61.07104">
        <ele>14.08</ele>
        <time>2016-12-06T15:52:21Z</time>
      </trkpt>
      <trkpt lat="13.94193" lon="-61.07086">
        <ele>13.6</ele>
        <time>2016-12-06T15:52:39Z</time>
      </trkpt>
      <trkpt lat="13.94224" lon="-61.07073">
        <ele>13.6</ele>
        <time>2016-12-06T15:52:53Z</time>
      </trkpt>
      <trkpt lat="13.94253" lon="-61.0706">
        <ele>13.12</ele>
        <time>2016-12-06T15:53:06Z</time>
      </trkpt>
      <trkpt lat="13.94294" lon="-61.07042">
        <ele>14.56</ele>
        <time>2016-12-06T15:53:25Z</time>
      </trkpt>
      <trkpt lat="13.94332" lon="-61.07027">
        <ele>13.6</ele>
        <time>2016-12-06T15:53:42Z</time>
      </trkpt>
      <trkpt lat="13.94372" lon="-61.07007">
        <ele>13.6</ele>
        <time>2016-12-06T15:54:00Z</time>
      </trkpt>
      <trkpt lat="13.944" lon="-61.06996">
        <ele>13.12</ele>
        <time>2016-12-06T15:54:13Z</time>
      </trkpt>
      <trkpt lat="13.94442" lon="-61.06977">
        <ele>13.12</ele>
        <time>2016-12-06T15:54:31Z</time>
      </trkpt>
      <trkpt lat="13.94475" lon="-61.06965">
        <ele>13.12</ele>
        <time>2016-12-06T15:54:46Z</time>
      </trkpt>
      <trkpt lat="13.94497" lon="-61.06957">
        <ele>12.15</ele>
        <time>2016-12-06T15:54:57Z</time>
      </trkpt>
      <trkpt lat="13.94523" lon="-61.06947">
        <ele>12.15</ele>
        <time>2016-12-06T15:55:09Z</time>
      </trkpt>
      <trkpt lat="13.94555" lon="-61.06934">
        <ele>12.63</ele>
        <time>2016-12-06T15:55:24Z</time>
      </trkpt>
      <trkpt lat="13.94588" lon="-61.06919">
        <ele>13.12</ele>
        <time>2016-12-06T15:55:40Z</time>
      </trkpt>
      <trkpt lat="13.94622" lon="-61.06904">
        <ele>14.08</ele>
        <time>2016-12-06T15:55:55Z</time>
      </trkpt>
      <trkpt lat="13.94659" lon="-61.06886">
        <ele>12.63</ele>
        <time>2016-12-06T15:56:11Z</time>
      </trkpt>
      <trkpt lat="13.94701" lon="-61.06866">
        <ele>12.63</ele>
        <time>2016-12-06T15:56:29Z</time>
      </trkpt>
      <trkpt lat="13.94741" lon="-61.06848">
        <ele>13.6</ele>
        <time>2016-12-06T15:56:46Z</time>
      </trkpt>
      <trkpt lat="13.94777" lon="-61.06831">
        <ele>13.6</ele>
        <time>2016-12-06T15:57:02Z</time>
      </trkpt>
      <trkpt lat="13.94811" lon="-61.06817">
        <ele>14.08</ele>
        <time>2016-12-06T15:57:16Z</time>
      </trkpt>
      <trkpt lat="13.94846" lon="-61.06803">
        <ele>13.12</ele>
        <time>2016-12-06T15:57:31Z</time>
      </trkpt>
      <trkpt lat="13.94887" lon="-61.06784">
        <ele>13.6</ele>
        <time>2016-12-06T15:57:49Z</time>
      </trkpt>
      <trkpt lat="13.94925" lon="-61.06767">
        <ele>13.6</ele>
        <time>2016-12-06T15:58:05Z</time>
      </trkpt>
      <trkpt lat="13.94974" lon="-61.06747">
        <ele>14.08</ele>
        <time>2016-12-06T15:58:24Z</time>
      </trkpt>
      <trkpt lat="13.95021" lon="-61.06728">
        <ele>13.6</ele>
        <time>2016-12-06T15:58:42Z</time>
      </trkpt>
      <trkpt lat="13.95061" lon="-61.06713">
        <ele>14.56</ele>
        <time>2016-12-06T15:58:57Z</time>
      </trkpt>
      <trkpt lat="13.95095" lon="-61.067">
        <ele>14.08</ele>
        <time>2016-12-06T15:59:10Z</time>
      </trkpt>
      <trkpt lat="13.9514" lon="-61.06685">
        <ele>13.12</ele>
        <time>2016-12-06T15:59:27Z</time>
      </trkpt>
      <trkpt lat="13.95181" lon="-61.0667">
        <ele>14.08</ele>
        <time>2016-12-06T15:59:43Z</time>
      </trkpt>
      <trkpt lat="13.95219" lon="-61.06654">
        <ele>14.08</ele>
        <time>2016-12-06T15:59:58Z</time>
      </trkpt>
      <trkpt lat="13.9526" lon="-61.06637">
        <ele>14.08</ele>
        <time>2016-12-06T16:00:13Z</time>
      </trkpt>
      <trkpt lat="13.95304" lon="-61.0662">
        <ele>14.56</ele>
        <time>2016-12-06T16:00:29Z</time>
      </trkpt>
      <trkpt lat="13.95354" lon="-61.06601">
        <ele>14.08</ele>
        <time>2016-12-06T16:00:47Z</time>
      </trkpt>
      <trkpt lat="13.95396" lon="-61.06584">
        <ele>14.08</ele>
        <time>2016-12-06T16:01:02Z</time>
      </trkpt>
      <trkpt lat="13.9544" lon="-61.06568">
        <ele>14.56</ele>
        <time>2016-12-06T16:01:18Z</time>
      </trkpt>
      <trkpt lat="13.95481" lon="-61.06552">
        <ele>14.56</ele>
        <time>2016-12-06T16:01:34Z</time>
      </trkpt>
      <trkpt lat="13.95517" lon="-61.06538">
        <ele>14.56</ele>
        <time>2016-12-06T16:01:48Z</time>
      </trkpt>
      <trkpt lat="13.95567" lon="-61.06518">
        <ele>15.04</ele>
        <time>2016-12-06T16:02:06Z</time>
      </trkpt>
      <trkpt lat="13.95615" lon="-61.06499">
        <ele>14.56</ele>
        <time>2016-12-06T16:02:23Z</time>
      </trkpt>
      <trkpt lat="13.95653" lon="-61.06484">
        <ele>14.56</ele>
        <time>2016-12-06T16:02:37Z</time>
      </trkpt>
      <trkpt lat="13.95705" lon="-61.06463">
        <ele>14.56</ele>
        <time>2016-12-06T16:02:56Z</time>
      </trkpt>
      <trkpt lat="13.95739" lon="-61.06449">
        <ele>15.04</ele>
        <time>2016-12-06T16:03:09Z</time>
      </trkpt>
      <trkpt lat="13.95786" lon="-61.06429">
        <ele>15.04</ele>
        <time>2016-12-06T16:03:26Z</time>
      </trkpt>
      <trkpt lat="13.95825" lon="-61.06414">
        <ele>15.04</ele>
        <time>2016-12-06T16:03:40Z</time>
      </trkpt>
      <trkpt lat="13.95859" lon="-61.06398">
        <ele>15.04</ele>
        <time>2016-12-06T16:03:53Z</time>
      </trkpt>
      <trkpt lat="13.95899" lon="-61.06382">
        <ele>15.52</ele>
        <time>2016-12-06T16:04:08Z</time>
      </trkpt>
      <trkpt lat="13.9593" lon="-61.06368">
        <ele>15.04</ele>
        <time>2016-12-06T16:04:20Z</time>
      </trkpt>
      <trkpt lat="13.95964" lon="-61.06356">
        <ele>15.04</ele>
        <time>2016-12-06T16:04:34Z</time>
      </trkpt>
      <trkpt lat="13.95998" lon="-61.06344">
        <ele>14.08</ele>
        <time>2016-12-06T16:04:49Z</time>
      </trkpt>
      <trkpt lat="13.96021" lon="-61.06336">
        <ele>14.08</ele>
        <time>2016-12-06T16:05:00Z</time>
      </trkpt>
      <trkpt lat="13.96044" lon="-61.06328">
        <ele>14.08</ele>
        <time>2016-12-06T16:05:13Z</time>
      </trkpt>
      <trkpt lat="13.96067" lon="-61.06321">
        <ele>14.56</ele>
        <time>2016-12-06T16:05:25Z</time>
      </trkpt>
      <trkpt lat="13.96095" lon="-61.06312">
        <ele>14.56</ele>
        <time>2016-12-06T16:05:39Z</time>
      </trkpt>
      <trkpt lat="13.96098" lon="-61.06311">
        <ele>14.56</ele>
        <time>2016-12-06T16:05:41Z</time>
      </trkpt>
      <trkpt lat="13.96121" lon="-61.06305">
        <ele>15.04</ele>
        <time>2016-12-06T16:05:53Z</time>
      </trkpt>
      <trkpt lat="13.96147" lon="-61.06297">
        <ele>15.52</ele>
        <time>2016-12-06T16:06:07Z</time>
      </trkpt>
      <trkpt lat="13.96172" lon="-61.06289">
        <ele>14.56</ele>
        <time>2016-12-06T16:06:22Z</time>
      </trkpt>
      <trkpt lat="13.96197" lon="-61.06283">
        <ele>14.56</ele>
        <time>2016-12-06T16:06:36Z</time>
      </trkpt>
      <trkpt lat="13.9622" lon="-61.06279">
        <ele>14.08</ele>
        <time>2016-12-06T16:06:48Z</time>
      </trkpt>
      <trkpt lat="13.96256" lon="-61.0627">
        <ele>14.56</ele>
        <time>2016-12-06T16:07:05Z</time>
      </trkpt>
      <trkpt lat="13.96294" lon="-61.06258">
        <ele>14.08</ele>
        <time>2016-12-06T16:07:22Z</time>
      </trkpt>
      <trkpt lat="13.96322" lon="-61.0625">
        <ele>14.56</ele>
        <time>2016-12-06T16:07:37Z</time>
      </trkpt>
      <trkpt lat="13.96348" lon="-61.06242">
        <ele>14.08</ele>
        <time>2016-12-06T16:07:52Z</time>
      </trkpt>
      <trkpt lat="13.9636" lon="-61.06238">
        <ele>14.08</ele>
        <time>2016-12-06T16:08:01Z</time>
      </trkpt>
      <trkpt lat="13.96366" lon="-61.06238">
        <ele>13.6</ele>
        <time>2016-12-06T16:08:06Z</time>
      </trkpt>
      <trkpt lat="13.96396" lon="-61.06232">
        <ele>13.12</ele>
        <time>2016-12-06T16:08:23Z</time>
      </trkpt>
      <trkpt lat="13.96421" lon="-61.06225">
        <ele>13.12</ele>
        <time>2016-12-06T16:08:39Z</time>
      </trkpt>
      <trkpt lat="13.96445" lon="-61.06218">
        <ele>13.12</ele>
        <time>2016-12-06T16:08:49Z</time>
      </trkpt>
      <trkpt lat="13.96459" lon="-61.06211">
        <ele>12.15</ele>
        <time>2016-12-06T16:08:56Z</time>
      </trkpt>
      <trkpt lat="13.96489" lon="-61.06197">
        <ele>13.12</ele>
        <time>2016-12-06T16:09:09Z</time>
      </trkpt>
      <trkpt lat="13.96499" lon="-61.06194">
        <ele>12.63</ele>
        <time>2016-12-06T16:09:13Z</time>
      </trkpt>
      <trkpt lat="13.96531" lon="-61.06184">
        <ele>13.12</ele>
        <time>2016-12-06T16:09:26Z</time>
      </trkpt>
      <trkpt lat="13.96569" lon="-61.06168">
        <ele>14.08</ele>
        <time>2016-12-06T16:09:41Z</time>
      </trkpt>
      <trkpt lat="13.96604" lon="-61.06154">
        <ele>15.04</ele>
        <time>2016-12-06T16:09:55Z</time>
      </trkpt>
      <trkpt lat="13.96644" lon="-61.06136">
        <ele>13.6</ele>
        <time>2016-12-06T16:10:11Z</time>
      </trkpt>
      <trkpt lat="13.96679" lon="-61.0612">
        <ele>14.08</ele>
        <time>2016-12-06T16:10:26Z</time>
      </trkpt>
      <trkpt lat="13.96717" lon="-61.06104">
        <ele>14.08</ele>
        <time>2016-12-06T16:10:41Z</time>
      </trkpt>
      <trkpt lat="13.96756" lon="-61.06086">
        <ele>14.56</ele>
        <time>2016-12-06T16:10:57Z</time>
      </trkpt>
      <trkpt lat="13.96787" lon="-61.06074">
        <ele>14.56</ele>
        <time>2016-12-06T16:11:10Z</time>
      </trkpt>
      <trkpt lat="13.96824" lon="-61.06058">
        <ele>14.56</ele>
        <time>2016-12-06T16:11:25Z</time>
      </trkpt>
      <trkpt lat="13.96871" lon="-61.06038">
        <ele>13.6</ele>
        <time>2016-12-06T16:11:42Z</time>
      </trkpt>
      <trkpt lat="13.96912" lon="-61.0602">
        <ele>14.08</ele>
        <time>2016-12-06T16:11:57Z</time>
      </trkpt>
      <trkpt lat="13.96955" lon="-61.06">
        <ele>13.6</ele>
        <time>2016-12-06T16:12:13Z</time>
      </trkpt>
      <trkpt lat="13.96996" lon="-61.05984">
        <ele>13.6</ele>
        <time>2016-12-06T16:12:28Z</time>
      </trkpt>
      <trkpt lat="13.97034" lon="-61.05971">
        <ele>13.6</ele>
        <time>2016-12-06T16:12:42Z</time>
      </trkpt>
      <trkpt lat="13.9706" lon="-61.05963">
        <ele>14.08</ele>
        <time>2016-12-06T16:12:53Z</time>
      </trkpt>
      <trkpt lat="13.97102" lon="-61.05947">
        <ele>13.6</ele>
        <time>2016-12-06T16:13:10Z</time>
      </trkpt>
      <trkpt lat="13.97127" lon="-61.05938">
        <ele>13.12</ele>
        <time>2016-12-06T16:13:20Z</time>
      </trkpt>
      <trkpt lat="13.9716" lon="-61.05929">
        <ele>13.6</ele>
        <time>2016-12-06T16:13:34Z</time>
      </trkpt>
      <trkpt lat="13.97192" lon="-61.05921">
        <ele>13.12</ele>
        <time>2016-12-06T16:13:47Z</time>
      </trkpt>
      <trkpt lat="13.97231" lon="-61.05911">
        <ele>13.12</ele>
        <time>2016-12-06T16:14:02Z</time>
      </trkpt>
      <trkpt lat="13.9726" lon="-61.05902">
        <ele>13.12</ele>
        <time>2016-12-06T16:14:15Z</time>
      </trkpt>
      <trkpt lat="13.97286" lon="-61.05893">
        <ele>13.12</ele>
        <time>2016-12-06T16:14:29Z</time>
      </trkpt>
      <trkpt lat="13.97319" lon="-61.05881">
        <ele>13.12</ele>
        <time>2016-12-06T16:14:46Z</time>
      </trkpt>
      <trkpt lat="13.97353" lon="-61.05871">
        <ele>12.63</ele>
        <time>2016-12-06T16:15:04Z</time>
      </trkpt>
      <trkpt lat="13.97379" lon="-61.05863">
        <ele>12.63</ele>
        <time>2016-12-06T16:15:20Z</time>
      </trkpt>
      <trkpt lat="13.97407" lon="-61.05853">
        <ele>12.63</ele>
        <time>2016-12-06T16:15:37Z</time>
      </trkpt>
      <trkpt lat="13.97437" lon="-61.05843">
        <ele>13.12</ele>
        <time>2016-12-06T16:15:54Z</time>
      </trkpt>
      <trkpt lat="13.97474" lon="-61.05832">
        <ele>14.08</ele>
        <time>2016-12-06T16:16:08Z</time>
      </trkpt>
      <trkpt lat="13.97513" lon="-61.0582">
        <ele>14.56</ele>
        <time>2016-12-06T16:16:22Z</time>
      </trkpt>
      <trkpt lat="13.97551" lon="-61.05808">
        <ele>15.04</ele>
        <time>2016-12-06T16:16:36Z</time>
      </trkpt>
      <trkpt lat="13.97589" lon="-61.05795">
        <ele>15.52</ele>
        <time>2016-12-06T16:16:50Z</time>
      </trkpt>
      <trkpt lat="13.9763" lon="-61.05781">
        <ele>16.48</ele>
        <time>2016-12-06T16:17:05Z</time>
      </trkpt>
      <trkpt lat="13.97669" lon="-61.05769">
        <ele>16.48</ele>
        <time>2016-12-06T16:17:19Z</time>
      </trkpt>
      <trkpt lat="13.9771" lon="-61.05754">
        <ele>16</ele>
        <time>2016-12-06T16:17:34Z</time>
      </trkpt>
      <trkpt lat="13.97762" lon="-61.05734">
        <ele>15.04</ele>
        <time>2016-12-06T16:17:54Z</time>
      </trkpt>
      <trkpt lat="13.97804" lon="-61.05719">
        <ele>15.52</ele>
        <time>2016-12-06T16:18:10Z</time>
      </trkpt>
      <trkpt lat="13.97839" lon="-61.05706">
        <ele>16</ele>
        <time>2016-12-06T16:18:24Z</time>
      </trkpt>
      <trkpt lat="13.97874" lon="-61.05693">
        <ele>15.04</ele>
        <time>2016-12-06T16:18:38Z</time>
      </trkpt>
      <trkpt lat="13.97919" lon="-61.05678">
        <ele>15.52</ele>
        <time>2016-12-06T16:18:55Z</time>
      </trkpt>
      <trkpt lat="13.97958" lon="-61.05664">
        <ele>15.52</ele>
        <time>2016-12-06T16:19:10Z</time>
      </trkpt>
      <trkpt lat="13.97996" lon="-61.05651">
        <ele>14.56</ele>
        <time>2016-12-06T16:19:25Z</time>
      </trkpt>
      <trkpt lat="13.98039" lon="-61.05636">
        <ele>15.52</ele>
        <time>2016-12-06T16:19:41Z</time>
      </trkpt>
      <trkpt lat="13.98076" lon="-61.05622">
        <ele>15.52</ele>
        <time>2016-12-06T16:19:55Z</time>
      </trkpt>
      <trkpt lat="13.98107" lon="-61.05612">
        <ele>15.52</ele>
        <time>2016-12-06T16:20:07Z</time>
      </trkpt>
      <trkpt lat="13.98146" lon="-61.05598">
        <ele>16.48</ele>
        <time>2016-12-06T16:20:22Z</time>
      </trkpt>
      <trkpt lat="13.98191" lon="-61.05583">
        <ele>16</ele>
        <time>2016-12-06T16:20:39Z</time>
      </trkpt>
      <trkpt lat="13.98226" lon="-61.05571">
        <ele>16.48</ele>
        <time>2016-12-06T16:20:53Z</time>
      </trkpt>
      <trkpt lat="13.98264" lon="-61.05557">
        <ele>15.04</ele>
        <time>2016-12-06T16:21:08Z</time>
      </trkpt>
      <trkpt lat="13.98306" lon="-61.05542">
        <ele>15.52</ele>
        <time>2016-12-06T16:21:24Z</time>
      </trkpt>
      <trkpt lat="13.98339" lon="-61.05529">
        <ele>15.52</ele>
        <time>2016-12-06T16:21:37Z</time>
      </trkpt>
      <trkpt lat="13.98377" lon="-61.05516">
        <ele>15.04</ele>
        <time>2016-12-06T16:21:51Z</time>
      </trkpt>
      <trkpt lat="13.98427" lon="-61.055">
        <ele>15.04</ele>
        <time>2016-12-06T16:22:10Z</time>
      </trkpt>
      <trkpt lat="13.98473" lon="-61.05483">
        <ele>15.52</ele>
        <time>2016-12-06T16:22:27Z</time>
      </trkpt>
      <trkpt lat="13.98504" lon="-61.05472">
        <ele>15.52</ele>
        <time>2016-12-06T16:22:39Z</time>
      </trkpt>
      <trkpt lat="13.98539" lon="-61.05459">
        <ele>16</ele>
        <time>2016-12-06T16:22:53Z</time>
      </trkpt>
      <trkpt lat="13.98576" lon="-61.05446">
        <ele>15.04</ele>
        <time>2016-12-06T16:23:07Z</time>
      </trkpt>
      <trkpt lat="13.98616" lon="-61.05431">
        <ele>14.56</ele>
        <time>2016-12-06T16:23:22Z</time>
      </trkpt>
      <trkpt lat="13.98651" lon="-61.05419">
        <ele>14.08</ele>
        <time>2016-12-06T16:23:35Z</time>
      </trkpt>
      <trkpt lat="13.9868" lon="-61.05408">
        <ele>14.56</ele>
        <time>2016-12-06T16:23:47Z</time>
      </trkpt>
      <trkpt lat="13.98708" lon="-61.05399">
        <ele>15.04</ele>
        <time>2016-12-06T16:23:59Z</time>
      </trkpt>
      <trkpt lat="13.98748" lon="-61.05384">
        <ele>14.08</ele>
        <time>2016-12-06T16:24:14Z</time>
      </trkpt>
      <trkpt lat="13.98781" lon="-61.05372">
        <ele>14.56</ele>
        <time>2016-12-06T16:24:27Z</time>
      </trkpt>
      <trkpt lat="13.98811" lon="-61.05363">
        <ele>15.04</ele>
        <time>2016-12-06T16:24:39Z</time>
      </trkpt>
      <trkpt lat="13.98848" lon="-61.0535">
        <ele>15.04</ele>
        <time>2016-12-06T16:24:54Z</time>
      </trkpt>
      <trkpt lat="13.98882" lon="-61.05338">
        <ele>13.6</ele>
        <time>2016-12-06T16:25:08Z</time>
      </trkpt>
      <trkpt lat="13.98912" lon="-61.05327">
        <ele>13.6</ele>
        <time>2016-12-06T16:25:21Z</time>
      </trkpt>
      <trkpt lat="13.98946" lon="-61.05315">
        <ele>13.6</ele>
        <time>2016-12-06T16:25:34Z</time>
      </trkpt>
      <trkpt lat="13.98983" lon="-61.05301">
        <ele>15.04</ele>
        <time>2016-12-06T16:25:49Z</time>
      </trkpt>
      <trkpt lat="13.99018" lon="-61.05289">
        <ele>14.56</ele>
        <time>2016-12-06T16:26:04Z</time>
      </trkpt>
      <trkpt lat="13.99049" lon="-61.05279">
        <ele>14.08</ele>
        <time>2016-12-06T16:26:17Z</time>
      </trkpt>
      <trkpt lat="13.99086" lon="-61.05266">
        <ele>13.6</ele>
        <time>2016-12-06T16:26:32Z</time>
      </trkpt>
      <trkpt lat="13.99128" lon="-61.05252">
        <ele>13.12</ele>
        <time>2016-12-06T16:26:48Z</time>
      </trkpt>
      <trkpt lat="13.99166" lon="-61.05241">
        <ele>13.6</ele>
        <time>2016-12-06T16:27:04Z</time>
      </trkpt>
      <trkpt lat="13.99208" lon="-61.05228">
        <ele>13.6</ele>
        <time>2016-12-06T16:27:20Z</time>
      </trkpt>
      <trkpt lat="13.9925" lon="-61.05214">
        <ele>13.6</ele>
        <time>2016-12-06T16:27:36Z</time>
      </trkpt>
      <trkpt lat="13.99289" lon="-61.05203">
        <ele>14.08</ele>
        <time>2016-12-06T16:27:51Z</time>
      </trkpt>
      <trkpt lat="13.99301" lon="-61.05198">
        <ele>14.08</ele>
        <time>2016-12-06T16:27:56Z</time>
      </trkpt>
      <trkpt lat="13.99314" lon="-61.05194">
        <ele>15.04</ele>
        <time>2016-12-06T16:28:02Z</time>
      </trkpt>
      <trkpt lat="13.99357" lon="-61.0518">
        <ele>14.56</ele>
        <time>2016-12-06T16:28:19Z</time>
      </trkpt>
      <trkpt lat="13.99396" lon="-61.05169">
        <ele>14.56</ele>
        <time>2016-12-06T16:28:34Z</time>
      </trkpt>
      <trkpt lat="13.99419" lon="-61.05161">
        <ele>14.56</ele>
        <time>2016-12-06T16:28:43Z</time>
      </trkpt>
      <trkpt lat="13.99452" lon="-61.0515">
        <ele>14.56</ele>
        <time>2016-12-06T16:28:56Z</time>
      </trkpt>
      <trkpt lat="13.99481" lon="-61.05142">
        <ele>14.56</ele>
        <time>2016-12-06T16:29:08Z</time>
      </trkpt>
      <trkpt lat="13.99503" lon="-61.05135">
        <ele>13.6</ele>
        <time>2016-12-06T16:29:18Z</time>
      </trkpt>
      <trkpt lat="13.99518" lon="-61.05131">
        <ele>13.6</ele>
        <time>2016-12-06T16:29:24Z</time>
      </trkpt>
      <trkpt lat="13.99538" lon="-61.05126">
        <ele>13.6</ele>
        <time>2016-12-06T16:29:33Z</time>
      </trkpt>
      <trkpt lat="13.9954" lon="-61.05125">
        <ele>13.6</ele>
        <time>2016-12-06T16:29:34Z</time>
      </trkpt>
      <trkpt lat="13.99583" lon="-61.05112">
        <ele>15.04</ele>
        <time>2016-12-06T16:29:51Z</time>
      </trkpt>
      <trkpt lat="13.99619" lon="-61.051">
        <ele>14.08</ele>
        <time>2016-12-06T16:30:05Z</time>
      </trkpt>
      <trkpt lat="13.99659" lon="-61.05087">
        <ele>14.08</ele>
        <time>2016-12-06T16:30:21Z</time>
      </trkpt>
      <trkpt lat="13.99683" lon="-61.05079">
        <ele>13.12</ele>
        <time>2016-12-06T16:30:31Z</time>
      </trkpt>
      <trkpt lat="13.99722" lon="-61.05065">
        <ele>13.6</ele>
        <time>2016-12-06T16:30:46Z</time>
      </trkpt>
      <trkpt lat="13.99758" lon="-61.05052">
        <ele>14.08</ele>
        <time>2016-12-06T16:31:01Z</time>
      </trkpt>
      <trkpt lat="13.9976" lon="-61.05052">
        <ele>13.6</ele>
        <time>2016-12-06T16:31:02Z</time>
      </trkpt>
      <trkpt lat="13.99787" lon="-61.05043">
        <ele>14.56</ele>
        <time>2016-12-06T16:31:13Z</time>
      </trkpt>
      <trkpt lat="13.99821" lon="-61.05031">
        <ele>14.56</ele>
        <time>2016-12-06T16:31:26Z</time>
      </trkpt>
      <trkpt lat="13.9986" lon="-61.05019">
        <ele>14.56</ele>
        <time>2016-12-06T16:31:41Z</time>
      </trkpt>
      <trkpt lat="13.99888" lon="-61.05009">
        <ele>14.08</ele>
        <time>2016-12-06T16:31:53Z</time>
      </trkpt>
      <trkpt lat="13.99928" lon="-61.04995">
        <ele>13.6</ele>
        <time>2016-12-06T16:32:09Z</time>
      </trkpt>
      <trkpt lat="13.99963" lon="-61.04983">
        <ele>13.12</ele>
        <time>2016-12-06T16:32:23Z</time>
      </trkpt>
      <trkpt lat="13.99995" lon="-61.04973">
        <ele>13.12</ele>
        <time>2016-12-06T16:32:36Z</time>
      </trkpt>
      <trkpt lat="14.00029" lon="-61.04963">
        <ele>12.63</ele>
        <time>2016-12-06T16:32:50Z</time>
      </trkpt>
      <trkpt lat="14.00068" lon="-61.0495">
        <ele>13.12</ele>
        <time>2016-12-06T16:33:06Z</time>
      </trkpt>
      <trkpt lat="14.00098" lon="-61.04941">
        <ele>12.63</ele>
        <time>2016-12-06T16:33:18Z</time>
      </trkpt>
      <trkpt lat="14.00134" lon="-61.0493">
        <ele>13.12</ele>
        <time>2016-12-06T16:33:32Z</time>
      </trkpt>
      <trkpt lat="14.00169" lon="-61.04919">
        <ele>13.12</ele>
        <time>2016-12-06T16:33:46Z</time>
      </trkpt>
      <trkpt lat="14.00201" lon="-61.0491">
        <ele>13.12</ele>
        <time>2016-12-06T16:33:59Z</time>
      </trkpt>
      <trkpt lat="14.00237" lon="-61.04899">
        <ele>13.12</ele>
        <time>2016-12-06T16:34:13Z</time>
      </trkpt>
      <trkpt lat="14.00264" lon="-61.0489">
        <ele>14.56</ele>
        <time>2016-12-06T16:34:24Z</time>
      </trkpt>
      <trkpt lat="14.00309" lon="-61.04877">
        <ele>13.6</ele>
        <time>2016-12-06T16:34:41Z</time>
      </trkpt>
      <trkpt lat="14.00353" lon="-61.04862">
        <ele>12.63</ele>
        <time>2016-12-06T16:34:58Z</time>
      </trkpt>
      <trkpt lat="14.00396" lon="-61.04848">
        <ele>12.15</ele>
        <time>2016-12-06T16:35:15Z</time>
      </trkpt>
      <trkpt lat="14.00429" lon="-61.04838">
        <ele>12.63</ele>
        <time>2016-12-06T16:35:28Z</time>
      </trkpt>
      <trkpt lat="14.00463" lon="-61.04829">
        <ele>12.15</ele>
        <time>2016-12-06T16:35:42Z</time>
      </trkpt>
      <trkpt lat="14.00502" lon="-61.04817">
        <ele>12.15</ele>
        <time>2016-12-06T16:35:58Z</time>
      </trkpt>
      <trkpt lat="14.00534" lon="-61.04809">
        <ele>12.15</ele>
        <time>2016-12-06T16:36:12Z</time>
      </trkpt>
      <trkpt lat="14.00573" lon="-61.04797">
        <ele>12.15</ele>
        <time>2016-12-06T16:36:28Z</time>
      </trkpt>
      <trkpt lat="14.00613" lon="-61.04786">
        <ele>15.04</ele>
        <time>2016-12-06T16:36:45Z</time>
      </trkpt>
      <trkpt lat="14.00642" lon="-61.04777">
        <ele>13.6</ele>
        <time>2016-12-06T16:36:57Z</time>
      </trkpt>
      <trkpt lat="14.00677" lon="-61.04768">
        <ele>13.12</ele>
        <time>2016-12-06T16:37:11Z</time>
      </trkpt>
      <trkpt lat="14.00708" lon="-61.04759">
        <ele>12.63</ele>
        <time>2016-12-06T16:37:25Z</time>
      </trkpt>
      <trkpt lat="14.00738" lon="-61.04751">
        <ele>12.63</ele>
        <time>2016-12-06T16:37:39Z</time>
      </trkpt>
      <trkpt lat="14.00778" lon="-61.04739">
        <ele>13.12</ele>
        <time>2016-12-06T16:37:55Z</time>
      </trkpt>
      <trkpt lat="14.00812" lon="-61.04728">
        <ele>14.56</ele>
        <time>2016-12-06T16:38:10Z</time>
      </trkpt>
      <trkpt lat="14.00842" lon="-61.04719">
        <ele>13.6</ele>
        <time>2016-12-06T16:38:24Z</time>
      </trkpt>
      <trkpt lat="14.00877" lon="-61.04706">
        <ele>13.6</ele>
        <time>2016-12-06T16:38:40Z</time>
      </trkpt>
      <trkpt lat="14.00907" lon="-61.04697">
        <ele>14.08</ele>
        <time>2016-12-06T16:38:54Z</time>
      </trkpt>
      <trkpt lat="14.00932" lon="-61.04689">
        <ele>14.08</ele>
        <time>2016-12-06T16:39:07Z</time>
      </trkpt>
      <trkpt lat="14.0097" lon="-61.04678">
        <ele>14.56</ele>
        <time>2016-12-06T16:39:24Z</time>
      </trkpt>
      <trkpt lat="14.01007" lon="-61.04667">
        <ele>14.56</ele>
        <time>2016-12-06T16:39:40Z</time>
      </trkpt>
      <trkpt lat="14.01049" lon="-61.04654">
        <ele>14.08</ele>
        <time>2016-12-06T16:39:58Z</time>
      </trkpt>
      <trkpt lat="14.01083" lon="-61.04644">
        <ele>14.08</ele>
        <time>2016-12-06T16:40:14Z</time>
      </trkpt>
      <trkpt lat="14.01117" lon="-61.04634">
        <ele>13.12</ele>
        <time>2016-12-06T16:40:29Z</time>
      </trkpt>
      <trkpt lat="14.01161" lon="-61.04621">
        <ele>12.63</ele>
        <time>2016-12-06T16:40:47Z</time>
      </trkpt>
      <trkpt lat="14.012" lon="-61.04609">
        <ele>12.15</ele>
        <time>2016-12-06T16:41:03Z</time>
      </trkpt>
      <trkpt lat="14.0123" lon="-61.04599">
        <ele>11.19</ele>
        <time>2016-12-06T16:41:17Z</time>
      </trkpt>
      <trkpt lat="14.01272" lon="-61.04586">
        <ele>11.19</ele>
        <time>2016-12-06T16:41:34Z</time>
      </trkpt>
      <trkpt lat="14.01311" lon="-61.04574">
        <ele>11.19</ele>
        <time>2016-12-06T16:41:50Z</time>
      </trkpt>
      <trkpt lat="14.01354" lon="-61.04561">
        <ele>11.19</ele>
        <time>2016-12-06T16:42:08Z</time>
      </trkpt>
      <trkpt lat="14.01399" lon="-61.04548">
        <ele>11.19</ele>
        <time>2016-12-06T16:42:26Z</time>
      </trkpt>
      <trkpt lat="14.01439" lon="-61.04534">
        <ele>11.19</ele>
        <time>2016-12-06T16:42:43Z</time>
      </trkpt>
      <trkpt lat="14.0148" lon="-61.04522">
        <ele>11.67</ele>
        <time>2016-12-06T16:43:00Z</time>
      </trkpt>
      <trkpt lat="14.01518" lon="-61.0451">
        <ele>11.67</ele>
        <time>2016-12-06T16:43:16Z</time>
      </trkpt>
      <trkpt lat="14.01552" lon="-61.04501">
        <ele>10.71</ele>
        <time>2016-12-06T16:43:30Z</time>
      </trkpt>
      <trkpt lat="14.01592" lon="-61.0449">
        <ele>10.23</ele>
        <time>2016-12-06T16:43:47Z</time>
      </trkpt>
      <trkpt lat="14.0163" lon="-61.04478">
        <ele>9.75</ele>
        <time>2016-12-06T16:44:04Z</time>
      </trkpt>
      <trkpt lat="14.01668" lon="-61.04468">
        <ele>9.75</ele>
        <time>2016-12-06T16:44:21Z</time>
      </trkpt>
      <trkpt lat="14.01699" lon="-61.04459">
        <ele>9.75</ele>
        <time>2016-12-06T16:44:35Z</time>
      </trkpt>
      <trkpt lat="14.01731" lon="-61.0445">
        <ele>9.27</ele>
        <time>2016-12-06T16:44:49Z</time>
      </trkpt>
      <trkpt lat="14.01774" lon="-61.04437">
        <ele>7.83</ele>
        <time>2016-12-06T16:45:06Z</time>
      </trkpt>
      <trkpt lat="14.01811" lon="-61.04425">
        <ele>7.35</ele>
        <time>2016-12-06T16:45:22Z</time>
      </trkpt>
      <trkpt lat="14.01849" lon="-61.04413">
        <ele>7.35</ele>
        <time>2016-12-06T16:45:39Z</time>
      </trkpt>
      <trkpt lat="14.01883" lon="-61.04402">
        <ele>8.31</ele>
        <time>2016-12-06T16:45:54Z</time>
      </trkpt>
      <trkpt lat="14.01913" lon="-61.04393">
        <ele>8.31</ele>
        <time>2016-12-06T16:46:08Z</time>
      </trkpt>
      <trkpt lat="14.01955" lon="-61.04381">
        <ele>9.27</ele>
        <time>2016-12-06T16:46:26Z</time>
      </trkpt>
      <trkpt lat="14.01995" lon="-61.0437">
        <ele>9.75</ele>
        <time>2016-12-06T16:46:42Z</time>
      </trkpt>
      <trkpt lat="14.02026" lon="-61.0436">
        <ele>10.71</ele>
        <time>2016-12-06T16:46:56Z</time>
      </trkpt>
      <trkpt lat="14.02063" lon="-61.04349">
        <ele>11.67</ele>
        <time>2016-12-06T16:47:12Z</time>
      </trkpt>
      <trkpt lat="14.021" lon="-61.04337">
        <ele>11.67</ele>
        <time>2016-12-06T16:47:30Z</time>
      </trkpt>
      <trkpt lat="14.02135" lon="-61.04327">
        <ele>12.15</ele>
        <time>2016-12-06T16:47:46Z</time>
      </trkpt>
      <trkpt lat="14.02173" lon="-61.04315">
        <ele>12.15</ele>
        <time>2016-12-06T16:48:03Z</time>
      </trkpt>
      <trkpt lat="14.02204" lon="-61.04307">
        <ele>13.12</ele>
        <time>2016-12-06T16:48:17Z</time>
      </trkpt>
      <trkpt lat="14.0223" lon="-61.04301">
        <ele>12.15</ele>
        <time>2016-12-06T16:48:30Z</time>
      </trkpt>
      <trkpt lat="14.02264" lon="-61.04293">
        <ele>11.67</ele>
        <time>2016-12-06T16:48:46Z</time>
      </trkpt>
      <trkpt lat="14.02297" lon="-61.04284">
        <ele>11.67</ele>
        <time>2016-12-06T16:49:01Z</time>
      </trkpt>
      <trkpt lat="14.02333" lon="-61.04273">
        <ele>12.63</ele>
        <time>2016-12-06T16:49:17Z</time>
      </trkpt>
      <trkpt lat="14.02368" lon="-61.04262">
        <ele>11.67</ele>
        <time>2016-12-06T16:49:33Z</time>
      </trkpt>
      <trkpt lat="14.02398" lon="-61.04253">
        <ele>11.67</ele>
        <time>2016-12-06T16:49:47Z</time>
      </trkpt>
      <trkpt lat="14.02433" lon="-61.04241">
        <ele>12.15</ele>
        <time>2016-12-06T16:50:04Z</time>
      </trkpt>
      <trkpt lat="14.02463" lon="-61.04231">
        <ele>12.15</ele>
        <time>2016-12-06T16:50:18Z</time>
      </trkpt>
      <trkpt lat="14.02493" lon="-61.04221">
        <ele>11.67</ele>
        <time>2016-12-06T16:50:32Z</time>
      </trkpt>
      <trkpt lat="14.02525" lon="-61.0421">
        <ele>12.15</ele>
        <time>2016-12-06T16:50:47Z</time>
      </trkpt>
      <trkpt lat="14.02557" lon="-61.04202">
        <ele>12.15</ele>
        <time>2016-12-06T16:51:01Z</time>
      </trkpt>
      <trkpt lat="14.02585" lon="-61.04195">
        <ele>13.12</ele>
        <time>2016-12-06T16:51:15Z</time>
      </trkpt>
      <trkpt lat="14.02624" lon="-61.04184">
        <ele>12.63</ele>
        <time>2016-12-06T16:51:33Z</time>
      </trkpt>
      <trkpt lat="14.02663" lon="-61.04172">
        <ele>13.12</ele>
        <time>2016-12-06T16:51:50Z</time>
      </trkpt>
      <trkpt lat="14.02689" lon="-61.04163">
        <ele>13.12</ele>
        <time>2016-12-06T16:52:03Z</time>
      </trkpt>
      <trkpt lat="14.02717" lon="-61.04151">
        <ele>12.63</ele>
        <time>2016-12-06T16:52:18Z</time>
      </trkpt>
      <trkpt lat="14.02746" lon="-61.04141">
        <ele>12.63</ele>
        <time>2016-12-06T16:52:33Z</time>
      </trkpt>
      <trkpt lat="14.02777" lon="-61.0413">
        <ele>12.15</ele>
        <time>2016-12-06T16:52:48Z</time>
      </trkpt>
      <trkpt lat="14.02807" lon="-61.04118">
        <ele>11.19</ele>
        <time>2016-12-06T16:53:03Z</time>
      </trkpt>
      <trkpt lat="14.02838" lon="-61.04105">
        <ele>11.67</ele>
        <time>2016-12-06T16:53:19Z</time>
      </trkpt>
      <trkpt lat="14.0287" lon="-61.04094">
        <ele>11.67</ele>
        <time>2016-12-06T16:53:35Z</time>
      </trkpt>
      <trkpt lat="14.0289" lon="-61.04086">
        <ele>12.15</ele>
        <time>2016-12-06T16:53:47Z</time>
      </trkpt>
      <trkpt lat="14.02916" lon="-61.04077">
        <ele>12.63</ele>
        <time>2016-12-06T16:54:02Z</time>
      </trkpt>
      <trkpt lat="14.0294" lon="-61.04068">
        <ele>11.67</ele>
        <time>2016-12-06T16:54:16Z</time>
      </trkpt>
      <trkpt lat="14.02973" lon="-61.04055">
        <ele>11.67</ele>
        <time>2016-12-06T16:54:33Z</time>
      </trkpt>
      <trkpt lat="14.02999" lon="-61.04045">
        <ele>12.15</ele>
        <time>2016-12-06T16:54:46Z</time>
      </trkpt>
      <trkpt lat="14.03023" lon="-61.04034">
        <ele>12.15</ele>
        <time>2016-12-06T16:54:59Z</time>
      </trkpt>
      <trkpt lat="14.03053" lon="-61.04021">
        <ele>11.67</ele>
        <time>2016-12-06T16:55:14Z</time>
      </trkpt>
      <trkpt lat="14.03082" lon="-61.0401">
        <ele>11.67</ele>
        <time>2016-12-06T16:55:28Z</time>
      </trkpt>
      <trkpt lat="14.03112" lon="-61.04">
        <ele>11.67</ele>
        <time>2016-12-06T16:55:42Z</time>
      </trkpt>
      <trkpt lat="14.03144" lon="-61.03989">
        <ele>12.15</ele>
        <time>2016-12-06T16:55:57Z</time>
      </trkpt>
      <trkpt lat="14.03176" lon="-61.03979">
        <ele>12.15</ele>
        <time>2016-12-06T16:56:11Z</time>
      </trkpt>
      <trkpt lat="14.0321" lon="-61.03971">
        <ele>11.19</ele>
        <time>2016-12-06T16:56:26Z</time>
      </trkpt>
      <trkpt lat="14.03244" lon="-61.03963">
        <ele>12.63</ele>
        <time>2016-12-06T16:56:42Z</time>
      </trkpt>
      <trkpt lat="14.03279" lon="-61.03953">
        <ele>12.63</ele>
        <time>2016-12-06T16:56:57Z</time>
      </trkpt>
      <trkpt lat="14.03294" lon="-61.0395">
        <ele>13.12</ele>
        <time>2016-12-06T16:57:05Z</time>
      </trkpt>
      <trkpt lat="14.03322" lon="-61.03942">
        <ele>14.08</ele>
        <time>2016-12-06T16:57:17Z</time>
      </trkpt>
      <trkpt lat="14.03352" lon="-61.03934">
        <ele>13.6</ele>
        <time>2016-12-06T16:57:29Z</time>
      </trkpt>
      <trkpt lat="14.03393" lon="-61.03921">
        <ele>13.6</ele>
        <time>2016-12-06T16:57:45Z</time>
      </trkpt>
      <trkpt lat="14.03424" lon="-61.03912">
        <ele>13.6</ele>
        <time>2016-12-06T16:57:58Z</time>
      </trkpt>
      <trkpt lat="14.03452" lon="-61.03904">
        <ele>14.08</ele>
        <time>2016-12-06T16:58:10Z</time>
      </trkpt>
      <trkpt lat="14.03485" lon="-61.03895">
        <ele>13.6</ele>
        <time>2016-12-06T16:58:25Z</time>
      </trkpt>
      <trkpt lat="14.03523" lon="-61.03883">
        <ele>13.6</ele>
        <time>2016-12-06T16:58:41Z</time>
      </trkpt>
      <trkpt lat="14.03553" lon="-61.03873">
        <ele>13.6</ele>
        <time>2016-12-06T16:58:53Z</time>
      </trkpt>
      <trkpt lat="14.0358" lon="-61.03865">
        <ele>12.63</ele>
        <time>2016-12-06T16:59:04Z</time>
      </trkpt>
      <trkpt lat="14.03617" lon="-61.03853">
        <ele>12.15</ele>
        <time>2016-12-06T16:59:19Z</time>
      </trkpt>
      <trkpt lat="14.03649" lon="-61.03844">
        <ele>13.12</ele>
        <time>2016-12-06T16:59:32Z</time>
      </trkpt>
      <trkpt lat="14.03675" lon="-61.03838">
        <ele>15.04</ele>
        <time>2016-12-06T16:59:44Z</time>
      </trkpt>
      <trkpt lat="14.03713" lon="-61.03828">
        <ele>13.12</ele>
        <time>2016-12-06T17:00:00Z</time>
      </trkpt>
      <trkpt lat="14.03744" lon="-61.0382">
        <ele>12.63</ele>
        <time>2016-12-06T17:00:13Z</time>
      </trkpt>
      <trkpt lat="14.03779" lon="-61.03809">
        <ele>12.63</ele>
        <time>2016-12-06T17:00:28Z</time>
      </trkpt>
      <trkpt lat="14.03806" lon="-61.03801">
        <ele>13.12</ele>
        <time>2016-12-06T17:00:39Z</time>
      </trkpt>
      <trkpt lat="14.03832" lon="-61.03793">
        <ele>13.6</ele>
        <time>2016-12-06T17:00:51Z</time>
      </trkpt>
      <trkpt lat="14.03868" lon="-61.03781">
        <ele>13.6</ele>
        <time>2016-12-06T17:01:08Z</time>
      </trkpt>
      <trkpt lat="14.03904" lon="-61.0377">
        <ele>13.6</ele>
        <time>2016-12-06T17:01:24Z</time>
      </trkpt>
      <trkpt lat="14.03926" lon="-61.03759">
        <ele>11.67</ele>
        <time>2016-12-06T17:01:35Z</time>
      </trkpt>
      <trkpt lat="14.03946" lon="-61.03752">
        <ele>12.15</ele>
        <time>2016-12-06T17:01:47Z</time>
      </trkpt>
      <trkpt lat="14.03973" lon="-61.03745">
        <ele>13.12</ele>
        <time>2016-12-06T17:02:01Z</time>
      </trkpt>
      <trkpt lat="14.04002" lon="-61.03734">
        <ele>12.63</ele>
        <time>2016-12-06T17:02:15Z</time>
      </trkpt>
      <trkpt lat="14.04021" lon="-61.03727">
        <ele>12.63</ele>
        <time>2016-12-06T17:02:24Z</time>
      </trkpt>
      <trkpt lat="14.04046" lon="-61.03718">
        <ele>12.15</ele>
        <time>2016-12-06T17:02:36Z</time>
      </trkpt>
      <trkpt lat="14.04074" lon="-61.03705">
        <ele>12.15</ele>
        <time>2016-12-06T17:02:51Z</time>
      </trkpt>
      <trkpt lat="14.04097" lon="-61.03696">
        <ele>13.12</ele>
        <time>2016-12-06T17:03:04Z</time>
      </trkpt>
      <trkpt lat="14.04127" lon="-61.03684">
        <ele>12.63</ele>
        <time>2016-12-06T17:03:20Z</time>
      </trkpt>
      <trkpt lat="14.04154" lon="-61.03675">
        <ele>12.15</ele>
        <time>2016-12-06T17:03:34Z</time>
      </trkpt>
      <trkpt lat="14.0418" lon="-61.03667">
        <ele>12.63</ele>
        <time>2016-12-06T17:03:47Z</time>
      </trkpt>
      <trkpt lat="14.04213" lon="-61.03657">
        <ele>13.6</ele>
        <time>2016-12-06T17:04:02Z</time>
      </trkpt>
      <trkpt lat="14.04238" lon="-61.03651">
        <ele>13.6</ele>
        <time>2016-12-06T17:04:16Z</time>
      </trkpt>
      <trkpt lat="14.04277" lon="-61.03642">
        <ele>13.6</ele>
        <time>2016-12-06T17:04:32Z</time>
      </trkpt>
      <trkpt lat="14.04317" lon="-61.03633">
        <ele>13.12</ele>
        <time>2016-12-06T17:04:48Z</time>
      </trkpt>
      <trkpt lat="14.04355" lon="-61.03624">
        <ele>13.12</ele>
        <time>2016-12-06T17:05:02Z</time>
      </trkpt>
      <trkpt lat="14.04387" lon="-61.03615">
        <ele>13.6</ele>
        <time>2016-12-06T17:05:15Z</time>
      </trkpt>
      <trkpt lat="14.04397" lon="-61.03613">
        <ele>13.6</ele>
        <time>2016-12-06T17:05:19Z</time>
      </trkpt>
      <trkpt lat="14.04429" lon="-61.03606">
        <ele>14.56</ele>
        <time>2016-12-06T17:05:32Z</time>
      </trkpt>
      <trkpt lat="14.04448" lon="-61.036">
        <ele>14.08</ele>
        <time>2016-12-06T17:05:40Z</time>
      </trkpt>
      <trkpt lat="14.04459" lon="-61.03598">
        <ele>14.08</ele>
        <time>2016-12-06T17:05:45Z</time>
      </trkpt>
      <trkpt lat="14.04489" lon="-61.03592">
        <ele>14.56</ele>
        <time>2016-12-06T17:06:00Z</time>
      </trkpt>
      <trkpt lat="14.04519" lon="-61.03587">
        <ele>14.56</ele>
        <time>2016-12-06T17:06:13Z</time>
      </trkpt>
      <trkpt lat="14.04548" lon="-61.03579">
        <ele>13.6</ele>
        <time>2016-12-06T17:06:26Z</time>
      </trkpt>
      <trkpt lat="14.04582" lon="-61.03569">
        <ele>13.6</ele>
        <time>2016-12-06T17:06:42Z</time>
      </trkpt>
      <trkpt lat="14.04603" lon="-61.0356">
        <ele>11.67</ele>
        <time>2016-12-06T17:06:54Z</time>
      </trkpt>
      <trkpt lat="14.04637" lon="-61.03549">
        <ele>8.31</ele>
        <time>2016-12-06T17:07:09Z</time>
      </trkpt>
      <trkpt lat="14.04671" lon="-61.03542">
        <ele>9.27</ele>
        <time>2016-12-06T17:07:23Z</time>
      </trkpt>
      <trkpt lat="14.0471" lon="-61.03534">
        <ele>7.35</ele>
        <time>2016-12-06T17:07:38Z</time>
      </trkpt>
      <trkpt lat="14.04744" lon="-61.03525">
        <ele>4.46</ele>
        <time>2016-12-06T17:07:52Z</time>
      </trkpt>
      <trkpt lat="14.04768" lon="-61.03519">
        <ele>5.42</ele>
        <time>2016-12-06T17:08:03Z</time>
      </trkpt>
      <trkpt lat="14.04795" lon="-61.03513">
        <ele>7.83</ele>
        <time>2016-12-06T17:08:15Z</time>
      </trkpt>
      <trkpt lat="14.04817" lon="-61.03508">
        <ele>8.79</ele>
        <time>2016-12-06T17:08:27Z</time>
      </trkpt>
      <trkpt lat="14.04844" lon="-61.03501">
        <ele>9.27</ele>
        <time>2016-12-06T17:08:40Z</time>
      </trkpt>
      <trkpt lat="14.0487" lon="-61.03494">
        <ele>8.79</ele>
        <time>2016-12-06T17:08:52Z</time>
      </trkpt>
      <trkpt lat="14.04893" lon="-61.03489">
        <ele>8.79</ele>
        <time>2016-12-06T17:09:04Z</time>
      </trkpt>
      <trkpt lat="14.0492" lon="-61.03484">
        <ele>7.83</ele>
        <time>2016-12-06T17:09:17Z</time>
      </trkpt>
      <trkpt lat="14.04955" lon="-61.03475">
        <ele>7.83</ele>
        <time>2016-12-06T17:09:31Z</time>
      </trkpt>
      <trkpt lat="14.04983" lon="-61.03468">
        <ele>6.87</ele>
        <time>2016-12-06T17:09:44Z</time>
      </trkpt>
      <trkpt lat="14.05009" lon="-61.03461">
        <ele>7.83</ele>
        <time>2016-12-06T17:09:57Z</time>
      </trkpt>
      <trkpt lat="14.05032" lon="-61.03453">
        <ele>7.35</ele>
        <time>2016-12-06T17:10:09Z</time>
      </trkpt>
      <trkpt lat="14.05059" lon="-61.03446">
        <ele>6.87</ele>
        <time>2016-12-06T17:10:22Z</time>
      </trkpt>
      <trkpt lat="14.05087" lon="-61.0344">
        <ele>6.87</ele>
        <time>2016-12-06T17:10:35Z</time>
      </trkpt>
      <trkpt lat="14.05116" lon="-61.03434">
        <ele>8.31</ele>
        <time>2016-12-06T17:10:49Z</time>
      </trkpt>
      <trkpt lat="14.05149" lon="-61.03427">
        <ele>7.83</ele>
        <time>2016-12-06T17:11:04Z</time>
      </trkpt>
      <trkpt lat="14.05178" lon="-61.03421">
        <ele>7.35</ele>
        <time>2016-12-06T17:11:17Z</time>
      </trkpt>
      <trkpt lat="14.05212" lon="-61.03411">
        <ele>8.31</ele>
        <time>2016-12-06T17:11:32Z</time>
      </trkpt>
      <trkpt lat="14.05239" lon="-61.03402">
        <ele>7.83</ele>
        <time>2016-12-06T17:11:45Z</time>
      </trkpt>
      <trkpt lat="14.05241" lon="-61.03401">
        <ele>8.31</ele>
        <time>2016-12-06T17:11:46Z</time>
      </trkpt>
      <trkpt lat="14.05248" lon="-61.03399">
        <ele>8.79</ele>
        <time>2016-12-06T17:11:50Z</time>
      </trkpt>
      <trkpt lat="14.05276" lon="-61.03393">
        <ele>9.27</ele>
        <time>2016-12-06T17:12:04Z</time>
      </trkpt>
      <trkpt lat="14.05306" lon="-61.03387">
        <ele>10.71</ele>
        <time>2016-12-06T17:12:18Z</time>
      </trkpt>
      <trkpt lat="14.05339" lon="-61.03379">
        <ele>10.71</ele>
        <time>2016-12-06T17:12:33Z</time>
      </trkpt>
      <trkpt lat="14.05369" lon="-61.03373">
        <ele>11.19</ele>
        <time>2016-12-06T17:12:47Z</time>
      </trkpt>
      <trkpt lat="14.05398" lon="-61.03365">
        <ele>11.67</ele>
        <time>2016-12-06T17:13:01Z</time>
      </trkpt>
      <trkpt lat="14.05425" lon="-61.03359">
        <ele>13.12</ele>
        <time>2016-12-06T17:13:14Z</time>
      </trkpt>
      <trkpt lat="14.05452" lon="-61.03354">
        <ele>14.08</ele>
        <time>2016-12-06T17:13:26Z</time>
      </trkpt>
      <trkpt lat="14.05482" lon="-61.03346">
        <ele>14.56</ele>
        <time>2016-12-06T17:13:40Z</time>
      </trkpt>
      <trkpt lat="14.05516" lon="-61.03337">
        <ele>13.12</ele>
        <time>2016-12-06T17:13:58Z</time>
      </trkpt>
      <trkpt lat="14.05552" lon="-61.03328">
        <ele>11.19</ele>
        <time>2016-12-06T17:14:15Z</time>
      </trkpt>
      <trkpt lat="14.05578" lon="-61.03319">
        <ele>10.23</ele>
        <time>2016-12-06T17:14:28Z</time>
      </trkpt>
      <trkpt lat="14.05615" lon="-61.03308">
        <ele>10.71</ele>
        <time>2016-12-06T17:14:45Z</time>
      </trkpt>
      <trkpt lat="14.05642" lon="-61.03303">
        <ele>11.19</ele>
        <time>2016-12-06T17:14:59Z</time>
      </trkpt>
      <trkpt lat="14.05677" lon="-61.03296">
        <ele>12.63</ele>
        <time>2016-12-06T17:15:15Z</time>
      </trkpt>
      <trkpt lat="14.05703" lon="-61.0329">
        <ele>10.71</ele>
        <time>2016-12-06T17:15:29Z</time>
      </trkpt>
      <trkpt lat="14.05729" lon="-61.03281">
        <ele>9.75</ele>
        <time>2016-12-06T17:15:44Z</time>
      </trkpt>
      <trkpt lat="14.05758" lon="-61.03272">
        <ele>8.31</ele>
        <time>2016-12-06T17:16:00Z</time>
      </trkpt>
      <trkpt lat="14.05788" lon="-61.03264">
        <ele>8.79</ele>
        <time>2016-12-06T17:16:14Z</time>
      </trkpt>
      <trkpt lat="14.05824" lon="-61.03255">
        <ele>10.23</ele>
        <time>2016-12-06T17:16:30Z</time>
      </trkpt>
      <trkpt lat="14.05859" lon="-61.03247">
        <ele>10.71</ele>
        <time>2016-12-06T17:16:45Z</time>
      </trkpt>
      <trkpt lat="14.05899" lon="-61.03238">
        <ele>11.19</ele>
        <time>2016-12-06T17:17:02Z</time>
      </trkpt>
      <trkpt lat="14.05929" lon="-61.03231">
        <ele>11.19</ele>
        <time>2016-12-06T17:17:17Z</time>
      </trkpt>
      <trkpt lat="14.05963" lon="-61.03221">
        <ele>10.23</ele>
        <time>2016-12-06T17:17:32Z</time>
      </trkpt>
      <trkpt lat="14.06003" lon="-61.03209">
        <ele>11.19</ele>
        <time>2016-12-06T17:17:49Z</time>
      </trkpt>
      <trkpt lat="14.06036" lon="-61.03199">
        <ele>12.15</ele>
        <time>2016-12-06T17:18:05Z</time>
      </trkpt>
      <trkpt lat="14.06072" lon="-61.03188">
        <ele>11.67</ele>
        <time>2016-12-06T17:18:22Z</time>
      </trkpt>
      <trkpt lat="14.06104" lon="-61.03179">
        <ele>13.12</ele>
        <time>2016-12-06T17:18:38Z</time>
      </trkpt>
      <trkpt lat="14.06139" lon="-61.0317">
        <ele>12.15</ele>
        <time>2016-12-06T17:18:56Z</time>
      </trkpt>
      <trkpt lat="14.06173" lon="-61.03162">
        <ele>11.67</ele>
        <time>2016-12-06T17:19:11Z</time>
      </trkpt>
      <trkpt lat="14.06211" lon="-61.03153">
        <ele>11.19</ele>
        <time>2016-12-06T17:19:29Z</time>
      </trkpt>
      <trkpt lat="14.06248" lon="-61.03143">
        <ele>10.71</ele>
        <time>2016-12-06T17:19:45Z</time>
      </trkpt>
      <trkpt lat="14.06277" lon="-61.03134">
        <ele>11.19</ele>
        <time>2016-12-06T17:20:00Z</time>
      </trkpt>
      <trkpt lat="14.06317" lon="-61.03123">
        <ele>11.19</ele>
        <time>2016-12-06T17:20:18Z</time>
      </trkpt>
      <trkpt lat="14.06352" lon="-61.03115">
        <ele>13.12</ele>
        <time>2016-12-06T17:20:33Z</time>
      </trkpt>
      <trkpt lat="14.06388" lon="-61.03103">
        <ele>13.6</ele>
        <time>2016-12-06T17:20:50Z</time>
      </trkpt>
      <trkpt lat="14.06414" lon="-61.03097">
        <ele>14.08</ele>
        <time>2016-12-06T17:21:04Z</time>
      </trkpt>
      <trkpt lat="14.06439" lon="-61.03088">
        <ele>13.12</ele>
        <time>2016-12-06T17:21:18Z</time>
      </trkpt>
      <trkpt lat="14.06469" lon="-61.03077">
        <ele>13.12</ele>
        <time>2016-12-06T17:21:34Z</time>
      </trkpt>
      <trkpt lat="14.06501" lon="-61.03073">
        <ele>12.63</ele>
        <time>2016-12-06T17:21:49Z</time>
      </trkpt>
      <trkpt lat="14.06531" lon="-61.03069">
        <ele>12.15</ele>
        <time>2016-12-06T17:22:04Z</time>
      </trkpt>
      <trkpt lat="14.06561" lon="-61.0306">
        <ele>10.23</ele>
        <time>2016-12-06T17:22:18Z</time>
      </trkpt>
      <trkpt lat="14.06598" lon="-61.03047">
        <ele>11.19</ele>
        <time>2016-12-06T17:22:37Z</time>
      </trkpt>
      <trkpt lat="14.06631" lon="-61.03041">
        <ele>11.67</ele>
        <time>2016-12-06T17:22:52Z</time>
      </trkpt>
      <trkpt lat="14.06671" lon="-61.03031">
        <ele>13.12</ele>
        <time>2016-12-06T17:23:09Z</time>
      </trkpt>
      <trkpt lat="14.06708" lon="-61.03019">
        <ele>13.12</ele>
        <time>2016-12-06T17:23:26Z</time>
      </trkpt>
      <trkpt lat="14.06744" lon="-61.03007">
        <ele>13.12</ele>
        <time>2016-12-06T17:23:43Z</time>
      </trkpt>
      <trkpt lat="14.06772" lon="-61.02997">
        <ele>13.12</ele>
        <time>2016-12-06T17:23:59Z</time>
      </trkpt>
      <trkpt lat="14.06806" lon="-61.02988">
        <ele>11.19</ele>
        <time>2016-12-06T17:24:15Z</time>
      </trkpt>
      <trkpt lat="14.06839" lon="-61.02981">
        <ele>11.19</ele>
        <time>2016-12-06T17:24:30Z</time>
      </trkpt>
      <trkpt lat="14.06871" lon="-61.02972">
        <ele>9.75</ele>
        <time>2016-12-06T17:24:45Z</time>
      </trkpt>
      <trkpt lat="14.0691" lon="-61.02963">
        <ele>10.71</ele>
        <time>2016-12-06T17:25:01Z</time>
      </trkpt>
      <trkpt lat="14.06951" lon="-61.02948">
        <ele>11.67</ele>
        <time>2016-12-06T17:25:20Z</time>
      </trkpt>
      <trkpt lat="14.06982" lon="-61.02941">
        <ele>12.15</ele>
        <time>2016-12-06T17:25:39Z</time>
      </trkpt>
      <trkpt lat="14.07018" lon="-61.02936">
        <ele>12.63</ele>
        <time>2016-12-06T17:25:54Z</time>
      </trkpt>
      <trkpt lat="14.07055" lon="-61.02931">
        <ele>12.15</ele>
        <time>2016-12-06T17:26:10Z</time>
      </trkpt>
      <trkpt lat="14.07087" lon="-61.02916">
        <ele>12.15</ele>
        <time>2016-12-06T17:26:26Z</time>
      </trkpt>
      <trkpt lat="14.07112" lon="-61.02902">
        <ele>13.12</ele>
        <time>2016-12-06T17:26:41Z</time>
      </trkpt>
      <trkpt lat="14.0714" lon="-61.02889">
        <ele>13.6</ele>
        <time>2016-12-06T17:26:58Z</time>
      </trkpt>
      <trkpt lat="14.07169" lon="-61.02879">
        <ele>12.15</ele>
        <time>2016-12-06T17:27:14Z</time>
      </trkpt>
      <trkpt lat="14.07206" lon="-61.02868">
        <ele>11.67</ele>
        <time>2016-12-06T17:27:32Z</time>
      </trkpt>
      <trkpt lat="14.07243" lon="-61.02856">
        <ele>12.15</ele>
        <time>2016-12-06T17:27:48Z</time>
      </trkpt>
      <trkpt lat="14.07274" lon="-61.02846">
        <ele>12.15</ele>
        <time>2016-12-06T17:28:04Z</time>
      </trkpt>
      <trkpt lat="14.07309" lon="-61.02833">
        <ele>11.19</ele>
        <time>2016-12-06T17:28:21Z</time>
      </trkpt>
      <trkpt lat="14.07348" lon="-61.02817">
        <ele>11.67</ele>
        <time>2016-12-06T17:28:40Z</time>
      </trkpt>
      <trkpt lat="14.0738" lon="-61.02806">
        <ele>11.67</ele>
        <time>2016-12-06T17:28:55Z</time>
      </trkpt>
      <trkpt lat="14.07409" lon="-61.02796">
        <ele>12.63</ele>
        <time>2016-12-06T17:29:09Z</time>
      </trkpt>
      <trkpt lat="14.07444" lon="-61.02783">
        <ele>13.12</ele>
        <time>2016-12-06T17:29:25Z</time>
      </trkpt>
      <trkpt lat="14.07479" lon="-61.0277">
        <ele>14.56</ele>
        <time>2016-12-06T17:29:41Z</time>
      </trkpt>
      <trkpt lat="14.07506" lon="-61.02764">
        <ele>16.48</ele>
        <time>2016-12-06T17:29:54Z</time>
      </trkpt>
      <trkpt lat="14.07533" lon="-61.02756">
        <ele>17.92</ele>
        <time>2016-12-06T17:30:06Z</time>
      </trkpt>
      <trkpt lat="14.07558" lon="-61.02746">
        <ele>18.88</ele>
        <time>2016-12-06T17:30:18Z</time>
      </trkpt>
      <trkpt lat="14.07582" lon="-61.02737">
        <ele>20.32</ele>
        <time>2016-12-06T17:30:31Z</time>
      </trkpt>
      <trkpt lat="14.07598" lon="-61.02728">
        <ele>21.77</ele>
        <time>2016-12-06T17:30:41Z</time>
      </trkpt>
      <trkpt lat="14.07622" lon="-61.02718">
        <ele>21.77</ele>
        <time>2016-12-06T17:30:55Z</time>
      </trkpt>
      <trkpt lat="14.07654" lon="-61.0271">
        <ele>19.84</ele>
        <time>2016-12-06T17:31:09Z</time>
      </trkpt>
      <trkpt lat="14.07664" lon="-61.02707">
        <ele>19.84</ele>
        <time>2016-12-06T17:31:13Z</time>
      </trkpt>
      <trkpt lat="14.07687" lon="-61.027">
        <ele>17.92</ele>
        <time>2016-12-06T17:31:24Z</time>
      </trkpt>
      <trkpt lat="14.07711" lon="-61.02692">
        <ele>16.48</ele>
        <time>2016-12-06T17:31:36Z</time>
      </trkpt>
      <trkpt lat="14.07739" lon="-61.02681">
        <ele>17.44</ele>
        <time>2016-12-06T17:31:50Z</time>
      </trkpt>
      <trkpt lat="14.07772" lon="-61.02668">
        <ele>16</ele>
        <time>2016-12-06T17:32:05Z</time>
      </trkpt>
      <trkpt lat="14.078" lon="-61.02656">
        <ele>16</ele>
        <time>2016-12-06T17:32:19Z</time>
      </trkpt>
      <trkpt lat="14.07823" lon="-61.02648">
        <ele>15.04</ele>
        <time>2016-12-06T17:32:32Z</time>
      </trkpt>
      <trkpt lat="14.07849" lon="-61.02638">
        <ele>15.52</ele>
        <time>2016-12-06T17:32:44Z</time>
      </trkpt>
      <trkpt lat="14.07881" lon="-61.02628">
        <ele>15.52</ele>
        <time>2016-12-06T17:32:59Z</time>
      </trkpt>
      <trkpt lat="14.07911" lon="-61.02619">
        <ele>14.56</ele>
        <time>2016-12-06T17:33:13Z</time>
      </trkpt>
      <trkpt lat="14.07943" lon="-61.02607">
        <ele>14.08</ele>
        <time>2016-12-06T17:33:27Z</time>
      </trkpt>
      <trkpt lat="14.07977" lon="-61.02595">
        <ele>13.6</ele>
        <time>2016-12-06T17:33:41Z</time>
      </trkpt>
      <trkpt lat="14.08013" lon="-61.02585">
        <ele>14.08</ele>
        <time>2016-12-06T17:33:56Z</time>
      </trkpt>
      <trkpt lat="14.0804" lon="-61.02576">
        <ele>14.56</ele>
        <time>2016-12-06T17:34:08Z</time>
      </trkpt>
      <trkpt lat="14.08072" lon="-61.02566">
        <ele>13.6</ele>
        <time>2016-12-06T17:34:22Z</time>
      </trkpt>
      <trkpt lat="14.08106" lon="-61.02555">
        <ele>14.56</ele>
        <time>2016-12-06T17:34:37Z</time>
      </trkpt>
      <trkpt lat="14.08146" lon="-61.02542">
        <ele>14.08</ele>
        <time>2016-12-06T17:34:55Z</time>
      </trkpt>
      <trkpt lat="14.08172" lon="-61.02534">
        <ele>14.08</ele>
        <time>2016-12-06T17:35:07Z</time>
      </trkpt>
      <trkpt lat="14.08208" lon="-61.02522">
        <ele>13.6</ele>
        <time>2016-12-06T17:35:24Z</time>
      </trkpt>
      <trkpt lat="14.08234" lon="-61.02515">
        <ele>13.12</ele>
        <time>2016-12-06T17:35:37Z</time>
      </trkpt>
      <trkpt lat="14.08263" lon="-61.02504">
        <ele>14.08</ele>
        <time>2016-12-06T17:35:51Z</time>
      </trkpt>
      <trkpt lat="14.08288" lon="-61.02495">
        <ele>14.08</ele>
        <time>2016-12-06T17:36:03Z</time>
      </trkpt>
      <trkpt lat="14.08318" lon="-61.02487">
        <ele>14.08</ele>
        <time>2016-12-06T17:36:17Z</time>
      </trkpt>
      <trkpt lat="14.08345" lon="-61.02479">
        <ele>14.56</ele>
        <time>2016-12-06T17:36:30Z</time>
      </trkpt>
      <trkpt lat="14.08374" lon="-61.0247">
        <ele>13.6</ele>
        <time>2016-12-06T17:36:44Z</time>
      </trkpt>
      <trkpt lat="14.084" lon="-61.02458">
        <ele>14.08</ele>
        <time>2016-12-06T17:36:57Z</time>
      </trkpt>
      <trkpt lat="14.08435" lon="-61.02444">
        <ele>13.6</ele>
        <time>2016-12-06T17:37:13Z</time>
      </trkpt>
      <trkpt lat="14.08459" lon="-61.02435">
        <ele>13.12</ele>
        <time>2016-12-06T17:37:24Z</time>
      </trkpt>
      <trkpt lat="14.08493" lon="-61.02425">
        <ele>12.63</ele>
        <time>2016-12-06T17:37:39Z</time>
      </trkpt>
      <trkpt lat="14.08524" lon="-61.02416">
        <ele>12.63</ele>
        <time>2016-12-06T17:37:54Z</time>
      </trkpt>
      <trkpt lat="14.08554" lon="-61.02405">
        <ele>13.12</ele>
        <time>2016-12-06T17:38:09Z</time>
      </trkpt>
      <trkpt lat="14.08587" lon="-61.02395">
        <ele>13.6</ele>
        <time>2016-12-06T17:38:23Z</time>
      </trkpt>
      <trkpt lat="14.08616" lon="-61.02387">
        <ele>13.6</ele>
        <time>2016-12-06T17:38:36Z</time>
      </trkpt>
      <trkpt lat="14.08646" lon="-61.02378">
        <ele>12.63</ele>
        <time>2016-12-06T17:38:49Z</time>
      </trkpt>
      <trkpt lat="14.08678" lon="-61.02367">
        <ele>12.63</ele>
        <time>2016-12-06T17:39:03Z</time>
      </trkpt>
      <trkpt lat="14.08706" lon="-61.02358">
        <ele>12.63</ele>
        <time>2016-12-06T17:39:16Z</time>
      </trkpt>
      <trkpt lat="14.0873" lon="-61.0235">
        <ele>12.63</ele>
        <time>2016-12-06T17:39:28Z</time>
      </trkpt>
      <trkpt lat="14.08759" lon="-61.02341">
        <ele>12.63</ele>
        <time>2016-12-06T17:39:41Z</time>
      </trkpt>
      <trkpt lat="14.08787" lon="-61.02332">
        <ele>12.15</ele>
        <time>2016-12-06T17:39:54Z</time>
      </trkpt>
      <trkpt lat="14.08814" lon="-61.02322">
        <ele>13.6</ele>
        <time>2016-12-06T17:40:06Z</time>
      </trkpt>
      <trkpt lat="14.08845" lon="-61.02312">
        <ele>14.08</ele>
        <time>2016-12-06T17:40:19Z</time>
      </trkpt>
      <trkpt lat="14.08878" lon="-61.02302">
        <ele>14.56</ele>
        <time>2016-12-06T17:40:34Z</time>
      </trkpt>
      <trkpt lat="14.08909" lon="-61.02296">
        <ele>14.56</ele>
        <time>2016-12-06T17:40:48Z</time>
      </trkpt>
      <trkpt lat="14.08936" lon="-61.02289">
        <ele>14.56</ele>
        <time>2016-12-06T17:41:02Z</time>
      </trkpt>
      <trkpt lat="14.08962" lon="-61.0228">
        <ele>14.08</ele>
        <time>2016-12-06T17:41:15Z</time>
      </trkpt>
      <trkpt lat="14.08988" lon="-61.02271">
        <ele>15.52</ele>
        <time>2016-12-06T17:41:27Z</time>
      </trkpt>
      <trkpt lat="14.09019" lon="-61.0226">
        <ele>14.56</ele>
        <time>2016-12-06T17:41:40Z</time>
      </trkpt>
      <trkpt lat="14.09047" lon="-61.02253">
        <ele>14.08</ele>
        <time>2016-12-06T17:41:53Z</time>
      </trkpt>
      <trkpt lat="14.09074" lon="-61.02246">
        <ele>13.6</ele>
        <time>2016-12-06T17:42:05Z</time>
      </trkpt>
      <trkpt lat="14.09107" lon="-61.02236">
        <ele>13.6</ele>
        <time>2016-12-06T17:42:19Z</time>
      </trkpt>
      <trkpt lat="14.09143" lon="-61.02224">
        <ele>13.12</ele>
        <time>2016-12-06T17:42:35Z</time>
      </trkpt>
      <trkpt lat="14.09164" lon="-61.02217">
        <ele>11.67</ele>
        <time>2016-12-06T17:42:46Z</time>
      </trkpt>
      <trkpt lat="14.09199" lon="-61.02206">
        <ele>12.15</ele>
        <time>2016-12-06T17:43:02Z</time>
      </trkpt>
      <trkpt lat="14.0924" lon="-61.02193">
        <ele>13.12</ele>
        <time>2016-12-06T17:43:19Z</time>
      </trkpt>
      <trkpt lat="14.09269" lon="-61.02181">
        <ele>13.12</ele>
        <time>2016-12-06T17:43:32Z</time>
      </trkpt>
      <trkpt lat="14.09298" lon="-61.02172">
        <ele>12.63</ele>
        <time>2016-12-06T17:43:46Z</time>
      </trkpt>
      <trkpt lat="14.09319" lon="-61.02167">
        <ele>14.08</ele>
        <time>2016-12-06T17:43:58Z</time>
      </trkpt>
      <trkpt lat="14.0935" lon="-61.02156">
        <ele>13.6</ele>
        <time>2016-12-06T17:44:13Z</time>
      </trkpt>
      <trkpt lat="14.09379" lon="-61.02148">
        <ele>13.6</ele>
        <time>2016-12-06T17:44:27Z</time>
      </trkpt>
      <trkpt lat="14.09404" lon="-61.02142">
        <ele>14.08</ele>
        <time>2016-12-06T17:44:38Z</time>
      </trkpt>
      <trkpt lat="14.09429" lon="-61.02134">
        <ele>14.08</ele>
        <time>2016-12-06T17:44:51Z</time>
      </trkpt>
      <trkpt lat="14.09455" lon="-61.02125">
        <ele>13.6</ele>
        <time>2016-12-06T17:45:04Z</time>
      </trkpt>
      <trkpt lat="14.09485" lon="-61.02116">
        <ele>14.08</ele>
        <time>2016-12-06T17:45:17Z</time>
      </trkpt>
      <trkpt lat="14.09514" lon="-61.02108">
        <ele>14.08</ele>
        <time>2016-12-06T17:45:30Z</time>
      </trkpt>
      <trkpt lat="14.09542" lon="-61.021">
        <ele>14.56</ele>
        <time>2016-12-06T17:45:43Z</time>
      </trkpt>
      <trkpt lat="14.09574" lon="-61.02092">
        <ele>14.56</ele>
        <time>2016-12-06T17:45:58Z</time>
      </trkpt>
      <trkpt lat="14.09602" lon="-61.02084">
        <ele>14.56</ele>
        <time>2016-12-06T17:46:11Z</time>
      </trkpt>
      <trkpt lat="14.09604" lon="-61.02084">
        <ele>15.04</ele>
        <time>2016-12-06T17:46:12Z</time>
      </trkpt>
      <trkpt lat="14.09632" lon="-61.02075">
        <ele>14.56</ele>
        <time>2016-12-06T17:46:25Z</time>
      </trkpt>
      <trkpt lat="14.09655" lon="-61.02066">
        <ele>14.56</ele>
        <time>2016-12-06T17:46:36Z</time>
      </trkpt>
      <trkpt lat="14.09685" lon="-61.02054">
        <ele>14.08</ele>
        <time>2016-12-06T17:46:51Z</time>
      </trkpt>
      <trkpt lat="14.09715" lon="-61.02045">
        <ele>14.08</ele>
        <time>2016-12-06T17:47:06Z</time>
      </trkpt>
      <trkpt lat="14.09744" lon="-61.02036">
        <ele>14.08</ele>
        <time>2016-12-06T17:47:20Z</time>
      </trkpt>
      <trkpt lat="14.09776" lon="-61.02027">
        <ele>14.08</ele>
        <time>2016-12-06T17:47:35Z</time>
      </trkpt>
      <trkpt lat="14.09802" lon="-61.02021">
        <ele>14.08</ele>
        <time>2016-12-06T17:47:48Z</time>
      </trkpt>
      <trkpt lat="14.09828" lon="-61.02013">
        <ele>13.12</ele>
        <time>2016-12-06T17:48:01Z</time>
      </trkpt>
      <trkpt lat="14.0985" lon="-61.02003">
        <ele>12.15</ele>
        <time>2016-12-06T17:48:13Z</time>
      </trkpt>
      <trkpt lat="14.09862" lon="-61.01998">
        <ele>12.15</ele>
        <time>2016-12-06T17:48:19Z</time>
      </trkpt>
      <trkpt lat="14.0989" lon="-61.01988">
        <ele>12.63</ele>
        <time>2016-12-06T17:48:33Z</time>
      </trkpt>
      <trkpt lat="14.09913" lon="-61.01981">
        <ele>13.6</ele>
        <time>2016-12-06T17:48:45Z</time>
      </trkpt>
      <trkpt lat="14.0994" lon="-61.01969">
        <ele>14.56</ele>
        <time>2016-12-06T17:49:00Z</time>
      </trkpt>
      <trkpt lat="14.09965" lon="-61.01961">
        <ele>14.56</ele>
        <time>2016-12-06T17:49:15Z</time>
      </trkpt>
      <trkpt lat="14.09986" lon="-61.01955">
        <ele>14.08</ele>
        <time>2016-12-06T17:49:27Z</time>
      </trkpt>
      <trkpt lat="14.10005" lon="-61.01949">
        <ele>13.6</ele>
        <time>2016-12-06T17:49:38Z</time>
      </trkpt>
      <trkpt lat="14.10023" lon="-61.01943">
        <ele>14.56</ele>
        <time>2016-12-06T17:49:49Z</time>
      </trkpt>
      <trkpt lat="14.10043" lon="-61.01936">
        <ele>13.12</ele>
        <time>2016-12-06T17:50:01Z</time>
      </trkpt>
      <trkpt lat="14.10066" lon="-61.01927">
        <ele>13.6</ele>
        <time>2016-12-06T17:50:14Z</time>
      </trkpt>
      <trkpt lat="14.10092" lon="-61.01919">
        <ele>13.12</ele>
        <time>2016-12-06T17:50:27Z</time>
      </trkpt>
      <trkpt lat="14.10122" lon="-61.0191">
        <ele>14.08</ele>
        <time>2016-12-06T17:50:42Z</time>
      </trkpt>
      <trkpt lat="14.10151" lon="-61.01902">
        <ele>14.08</ele>
        <time>2016-12-06T17:50:59Z</time>
      </trkpt>
      <trkpt lat="14.10173" lon="-61.01892">
        <ele>14.08</ele>
        <time>2016-12-06T17:51:13Z</time>
      </trkpt>
      <trkpt lat="14.10191" lon="-61.01884">
        <ele>13.12</ele>
        <time>2016-12-06T17:51:24Z</time>
      </trkpt>
      <trkpt lat="14.10218" lon="-61.01877">
        <ele>13.6</ele>
        <time>2016-12-06T17:51:39Z</time>
      </trkpt>
      <trkpt lat="14.10244" lon="-61.01871">
        <ele>14.08</ele>
        <time>2016-12-06T17:51:53Z</time>
      </trkpt>
      <trkpt lat="14.1027" lon="-61.01865">
        <ele>14.56</ele>
        <time>2016-12-06T17:52:06Z</time>
      </trkpt>
      <trkpt lat="14.10296" lon="-61.01859">
        <ele>14.56</ele>
        <time>2016-12-06T17:52:18Z</time>
      </trkpt>
      <trkpt lat="14.10315" lon="-61.01853">
        <ele>14.08</ele>
        <time>2016-12-06T17:52:29Z</time>
      </trkpt>
      <trkpt lat="14.10339" lon="-61.01845">
        <ele>13.12</ele>
        <time>2016-12-06T17:52:43Z</time>
      </trkpt>
      <trkpt lat="14.10362" lon="-61.01835">
        <ele>13.6</ele>
        <time>2016-12-06T17:52:57Z</time>
      </trkpt>
      <trkpt lat="14.10393" lon="-61.01824">
        <ele>13.6</ele>
        <time>2016-12-06T17:53:13Z</time>
      </trkpt>
      <trkpt lat="14.10421" lon="-61.01816">
        <ele>14.56</ele>
        <time>2016-12-06T17:53:28Z</time>
      </trkpt>
      <trkpt lat="14.10441" lon="-61.0181">
        <ele>14.08</ele>
        <time>2016-12-06T17:53:39Z</time>
      </trkpt>
      <trkpt lat="14.10448" lon="-61.01808">
        <ele>13.6</ele>
        <time>2016-12-06T17:53:43Z</time>
      </trkpt>
      <trkpt lat="14.10475" lon="-61.01801">
        <ele>13.12</ele>
        <time>2016-12-06T17:53:58Z</time>
      </trkpt>
      <trkpt lat="14.10503" lon="-61.01794">
        <ele>13.6</ele>
        <time>2016-12-06T17:54:13Z</time>
      </trkpt>
      <trkpt lat="14.1051" lon="-61.01792">
        <ele>13.6</ele>
        <time>2016-12-06T17:54:17Z</time>
      </trkpt>
      <trkpt lat="14.10539" lon="-61.0178">
        <ele>14.08</ele>
        <time>2016-12-06T17:54:33Z</time>
      </trkpt>
      <trkpt lat="14.10566" lon="-61.01771">
        <ele>13.6</ele>
        <time>2016-12-06T17:54:47Z</time>
      </trkpt>
      <trkpt lat="14.1059" lon="-61.01764">
        <ele>12.63</ele>
        <time>2016-12-06T17:55:00Z</time>
      </trkpt>
      <trkpt lat="14.10612" lon="-61.01756">
        <ele>13.6</ele>
        <time>2016-12-06T17:55:14Z</time>
      </trkpt>
      <trkpt lat="14.10636" lon="-61.01747">
        <ele>11.19</ele>
        <time>2016-12-06T17:55:29Z</time>
      </trkpt>
      <trkpt lat="14.10659" lon="-61.01738">
        <ele>11.19</ele>
        <time>2016-12-06T17:55:43Z</time>
      </trkpt>
      <trkpt lat="14.10698" lon="-61.01725">
        <ele>12.15</ele>
        <time>2016-12-06T17:56:03Z</time>
      </trkpt>
      <trkpt lat="14.10719" lon="-61.01721">
        <ele>11.67</ele>
        <time>2016-12-06T17:56:14Z</time>
      </trkpt>
      <trkpt lat="14.1074" lon="-61.01713">
        <ele>12.63</ele>
        <time>2016-12-06T17:56:26Z</time>
      </trkpt>
      <trkpt lat="14.10764" lon="-61.01703">
        <ele>13.12</ele>
        <time>2016-12-06T17:56:40Z</time>
      </trkpt>
      <trkpt lat="14.10784" lon="-61.01694">
        <ele>11.19</ele>
        <time>2016-12-06T17:56:53Z</time>
      </trkpt>
      <trkpt lat="14.10811" lon="-61.01685">
        <ele>12.63</ele>
        <time>2016-12-06T17:57:08Z</time>
      </trkpt>
      <trkpt lat="14.10836" lon="-61.01676">
        <ele>13.12</ele>
        <time>2016-12-06T17:57:22Z</time>
      </trkpt>
      <trkpt lat="14.10864" lon="-61.01668">
        <ele>13.6</ele>
        <time>2016-12-06T17:57:36Z</time>
      </trkpt>
      <trkpt lat="14.10886" lon="-61.01663">
        <ele>13.6</ele>
        <time>2016-12-06T17:57:47Z</time>
      </trkpt>
      <trkpt lat="14.10919" lon="-61.01653">
        <ele>14.08</ele>
        <time>2016-12-06T17:58:04Z</time>
      </trkpt>
      <trkpt lat="14.1092" lon="-61.01653">
        <ele>13.6</ele>
        <time>2016-12-06T17:58:05Z</time>
      </trkpt>
      <trkpt lat="14.10931" lon="-61.0165">
        <ele>12.63</ele>
        <time>2016-12-06T17:58:11Z</time>
      </trkpt>
      <trkpt lat="14.10958" lon="-61.01643">
        <ele>12.63</ele>
        <time>2016-12-06T17:58:25Z</time>
      </trkpt>
      <trkpt lat="14.1098" lon="-61.0164">
        <ele>12.63</ele>
        <time>2016-12-06T17:58:36Z</time>
      </trkpt>
      <trkpt lat="14.11009" lon="-61.01632">
        <ele>13.12</ele>
        <time>2016-12-06T17:58:50Z</time>
      </trkpt>
      <trkpt lat="14.11035" lon="-61.01622">
        <ele>12.15</ele>
        <time>2016-12-06T17:59:03Z</time>
      </trkpt>
      <trkpt lat="14.11057" lon="-61.01615">
        <ele>11.67</ele>
        <time>2016-12-06T17:59:15Z</time>
      </trkpt>
      <trkpt lat="14.11081" lon="-61.0161">
        <ele>12.15</ele>
        <time>2016-12-06T17:59:27Z</time>
      </trkpt>
      <trkpt lat="14.11108" lon="-61.01602">
        <ele>12.63</ele>
        <time>2016-12-06T17:59:41Z</time>
      </trkpt>
      <trkpt lat="14.11137" lon="-61.01594">
        <ele>13.12</ele>
        <time>2016-12-06T17:59:56Z</time>
      </trkpt>
      <trkpt lat="14.11165" lon="-61.01586">
        <ele>12.15</ele>
        <time>2016-12-06T18:00:10Z</time>
      </trkpt>
      <trkpt lat="14.11191" lon="-61.01576">
        <ele>11.19</ele>
        <time>2016-12-06T18:00:25Z</time>
      </trkpt>
      <trkpt lat="14.11214" lon="-61.01568">
        <ele>11.19</ele>
        <time>2016-12-06T18:00:37Z</time>
      </trkpt>
      <trkpt lat="14.11236" lon="-61.01564">
        <ele>11.19</ele>
        <time>2016-12-06T18:00:49Z</time>
      </trkpt>
      <trkpt lat="14.11262" lon="-61.01558">
        <ele>11.67</ele>
        <time>2016-12-06T18:01:03Z</time>
      </trkpt>
      <trkpt lat="14.1129" lon="-61.01549">
        <ele>11.19</ele>
        <time>2016-12-06T18:01:17Z</time>
      </trkpt>
      <trkpt lat="14.11324" lon="-61.01538">
        <ele>11.19</ele>
        <time>2016-12-06T18:01:33Z</time>
      </trkpt>
      <trkpt lat="14.11352" lon="-61.01528">
        <ele>12.15</ele>
        <time>2016-12-06T18:01:47Z</time>
      </trkpt>
      <trkpt lat="14.11374" lon="-61.0152">
        <ele>12.15</ele>
        <time>2016-12-06T18:01:59Z</time>
      </trkpt>
      <trkpt lat="14.11399" lon="-61.01512">
        <ele>11.19</ele>
        <time>2016-12-06T18:02:12Z</time>
      </trkpt>
      <trkpt lat="14.11421" lon="-61.01506">
        <ele>10.23</ele>
        <time>2016-12-06T18:02:24Z</time>
      </trkpt>
      <trkpt lat="14.11449" lon="-61.01496">
        <ele>10.23</ele>
        <time>2016-12-06T18:02:39Z</time>
      </trkpt>
      <trkpt lat="14.11477" lon="-61.01489">
        <ele>10.71</ele>
        <time>2016-12-06T18:02:53Z</time>
      </trkpt>
      <trkpt lat="14.11503" lon="-61.015">
        <ele>11.67</ele>
        <time>2016-12-06T18:03:05Z</time>
      </trkpt>
      <trkpt lat="14.1153" lon="-61.01526">
        <ele>12.15</ele>
        <time>2016-12-06T18:03:18Z</time>
      </trkpt>
      <trkpt lat="14.11558" lon="-61.01543">
        <ele>13.12</ele>
        <time>2016-12-06T18:03:30Z</time>
      </trkpt>
      <trkpt lat="14.11586" lon="-61.01567">
        <ele>14.08</ele>
        <time>2016-12-06T18:03:43Z</time>
      </trkpt>
      <trkpt lat="14.11607" lon="-61.01601">
        <ele>14.56</ele>
        <time>2016-12-06T18:03:56Z</time>
      </trkpt>
      <trkpt lat="14.11632" lon="-61.01627">
        <ele>15.04</ele>
        <time>2016-12-06T18:04:08Z</time>
      </trkpt>
      <trkpt lat="14.11655" lon="-61.01654">
        <ele>14.08</ele>
        <time>2016-12-06T18:04:21Z</time>
      </trkpt>
      <trkpt lat="14.11672" lon="-61.01677">
        <ele>13.6</ele>
        <time>2016-12-06T18:04:33Z</time>
      </trkpt>
      <trkpt lat="14.11691" lon="-61.01692">
        <ele>12.63</ele>
        <time>2016-12-06T18:04:45Z</time>
      </trkpt>
      <trkpt lat="14.11716" lon="-61.01711">
        <ele>14.08</ele>
        <time>2016-12-06T18:04:59Z</time>
      </trkpt>
      <trkpt lat="14.11741" lon="-61.01725">
        <ele>14.56</ele>
        <time>2016-12-06T18:05:11Z</time>
      </trkpt>
      <trkpt lat="14.11764" lon="-61.01735">
        <ele>13.6</ele>
        <time>2016-12-06T18:05:23Z</time>
      </trkpt>
      <trkpt lat="14.11767" lon="-61.01737">
        <ele>13.6</ele>
        <time>2016-12-06T18:05:25Z</time>
      </trkpt>
      <trkpt lat="14.11777" lon="-61.01742">
        <ele>13.6</ele>
        <time>2016-12-06T18:05:31Z</time>
      </trkpt>
      <trkpt lat="14.11784" lon="-61.01745">
        <ele>12.63</ele>
        <time>2016-12-06T18:05:35Z</time>
      </trkpt>
      <trkpt lat="14.11811" lon="-61.01755">
        <ele>12.63</ele>
        <time>2016-12-06T18:05:50Z</time>
      </trkpt>
      <trkpt lat="14.11816" lon="-61.01756">
        <ele>12.15</ele>
        <time>2016-12-06T18:05:53Z</time>
      </trkpt>
      <trkpt lat="14.11825" lon="-61.0176">
        <ele>12.63</ele>
        <time>2016-12-06T18:05:58Z</time>
      </trkpt>
      <trkpt lat="14.11836" lon="-61.01765">
        <ele>12.15</ele>
        <time>2016-12-06T18:06:04Z</time>
      </trkpt>
      <trkpt lat="14.11844" lon="-61.01768">
        <ele>11.67</ele>
        <time>2016-12-06T18:06:08Z</time>
      </trkpt>
      <trkpt lat="14.1187" lon="-61.01778">
        <ele>11.67</ele>
        <time>2016-12-06T18:06:20Z</time>
      </trkpt>
      <trkpt lat="14.11897" lon="-61.01785">
        <ele>11.19</ele>
        <time>2016-12-06T18:06:32Z</time>
      </trkpt>
      <trkpt lat="14.11899" lon="-61.01786">
        <ele>11.19</ele>
        <time>2016-12-06T18:06:33Z</time>
      </trkpt>
      <trkpt lat="14.11927" lon="-61.01795">
        <ele>10.71</ele>
        <time>2016-12-06T18:06:47Z</time>
      </trkpt>
      <trkpt lat="14.11951" lon="-61.01803">
        <ele>11.19</ele>
        <time>2016-12-06T18:06:58Z</time>
      </trkpt>
      <trkpt lat="14.11964" lon="-61.01808">
        <ele>11.19</ele>
        <time>2016-12-06T18:07:04Z</time>
      </trkpt>
      <trkpt lat="14.11994" lon="-61.01817">
        <ele>11.67</ele>
        <time>2016-12-06T18:07:18Z</time>
      </trkpt>
      <trkpt lat="14.12017" lon="-61.01826">
        <ele>11.67</ele>
        <time>2016-12-06T18:07:30Z</time>
      </trkpt>
      <trkpt lat="14.1204" lon="-61.01836">
        <ele>12.15</ele>
        <time>2016-12-06T18:07:42Z</time>
      </trkpt>
      <trkpt lat="14.12058" lon="-61.01843">
        <ele>12.63</ele>
        <time>2016-12-06T18:07:52Z</time>
      </trkpt>
      <trkpt lat="14.12064" lon="-61.01847">
        <ele>12.63</ele>
        <time>2016-12-06T18:07:56Z</time>
      </trkpt>
      <trkpt lat="14.12089" lon="-61.01858">
        <ele>12.63</ele>
        <time>2016-12-06T18:08:10Z</time>
      </trkpt>
      <trkpt lat="14.12116" lon="-61.01868">
        <ele>12.63</ele>
        <time>2016-12-06T18:08:22Z</time>
      </trkpt>
      <trkpt lat="14.12143" lon="-61.01876">
        <ele>11.67</ele>
        <time>2016-12-06T18:08:34Z</time>
      </trkpt>
      <trkpt lat="14.12158" lon="-61.0188">
        <ele>11.19</ele>
        <time>2016-12-06T18:08:40Z</time>
      </trkpt>
      <trkpt lat="14.12166" lon="-61.01882">
        <ele>11.19</ele>
        <time>2016-12-06T18:08:44Z</time>
      </trkpt>
      <trkpt lat="14.12192" lon="-61.01892">
        <ele>11.19</ele>
        <time>2016-12-06T18:08:57Z</time>
      </trkpt>
      <trkpt lat="14.12197" lon="-61.01894">
        <ele>11.19</ele>
        <time>2016-12-06T18:08:59Z</time>
      </trkpt>
      <trkpt lat="14.12228" lon="-61.01905">
        <ele>11.67</ele>
        <time>2016-12-06T18:09:13Z</time>
      </trkpt>
      <trkpt lat="14.1223" lon="-61.01906">
        <ele>11.67</ele>
        <time>2016-12-06T18:09:14Z</time>
      </trkpt>
      <trkpt lat="14.1226" lon="-61.01915">
        <ele>12.63</ele>
        <time>2016-12-06T18:09:27Z</time>
      </trkpt>
      <trkpt lat="14.1228" lon="-61.01922">
        <ele>12.63</ele>
        <time>2016-12-06T18:09:36Z</time>
      </trkpt>
      <trkpt lat="14.123" lon="-61.01926">
        <ele>12.15</ele>
        <time>2016-12-06T18:09:47Z</time>
      </trkpt>
      <trkpt lat="14.12319" lon="-61.0193">
        <ele>11.67</ele>
        <time>2016-12-06T18:10:00Z</time>
      </trkpt>
      <trkpt lat="14.1232" lon="-61.0193">
        <ele>11.67</ele>
        <time>2016-12-06T18:10:01Z</time>
      </trkpt>
      <trkpt lat="14.12325" lon="-61.01931">
        <ele>11.19</ele>
        <time>2016-12-06T18:10:04Z</time>
      </trkpt>
      <trkpt lat="14.12345" lon="-61.01937">
        <ele>11.19</ele>
        <time>2016-12-06T18:10:17Z</time>
      </trkpt>
      <trkpt lat="14.12353" lon="-61.01942">
        <ele>11.67</ele>
        <time>2016-12-06T18:10:23Z</time>
      </trkpt>
      <trkpt lat="14.12359" lon="-61.01944">
        <ele>11.67</ele>
        <time>2016-12-06T18:10:26Z</time>
      </trkpt>
      <trkpt lat="14.12366" lon="-61.01946">
        <ele>11.67</ele>
        <time>2016-12-06T18:10:30Z</time>
      </trkpt>
      <trkpt lat="14.12371" lon="-61.01948">
        <ele>11.67</ele>
        <time>2016-12-06T18:10:33Z</time>
      </trkpt>
      <trkpt lat="14.1238" lon="-61.01952">
        <ele>11.67</ele>
        <time>2016-12-06T18:10:38Z</time>
      </trkpt>
      <trkpt lat="14.12404" lon="-61.01958">
        <ele>10.71</ele>
        <time>2016-12-06T18:10:50Z</time>
      </trkpt>
      <trkpt lat="14.12413" lon="-61.0196">
        <ele>11.19</ele>
        <time>2016-12-06T18:10:54Z</time>
      </trkpt>
      <trkpt lat="14.12426" lon="-61.01963">
        <ele>11.19</ele>
        <time>2016-12-06T18:11:01Z</time>
      </trkpt>
      <trkpt lat="14.12454" lon="-61.01969">
        <ele>10.71</ele>
        <time>2016-12-06T18:11:15Z</time>
      </trkpt>
      <trkpt lat="14.12476" lon="-61.01977">
        <ele>11.19</ele>
        <time>2016-12-06T18:11:27Z</time>
      </trkpt>
      <trkpt lat="14.12498" lon="-61.01983">
        <ele>10.71</ele>
        <time>2016-12-06T18:11:39Z</time>
      </trkpt>
      <trkpt lat="14.12504" lon="-61.01987">
        <ele>10.23</ele>
        <time>2016-12-06T18:11:43Z</time>
      </trkpt>
      <trkpt lat="14.12508" lon="-61.01988">
        <ele>10.23</ele>
        <time>2016-12-06T18:11:45Z</time>
      </trkpt>
      <trkpt lat="14.12518" lon="-61.01993">
        <ele>11.19</ele>
        <time>2016-12-06T18:11:51Z</time>
      </trkpt>
      <trkpt lat="14.12525" lon="-61.01997">
        <ele>11.67</ele>
        <time>2016-12-06T18:11:55Z</time>
      </trkpt>
      <trkpt lat="14.1255" lon="-61.02002">
        <ele>11.19</ele>
        <time>2016-12-06T18:12:08Z</time>
      </trkpt>
      <trkpt lat="14.12556" lon="-61.02004">
        <ele>11.67</ele>
        <time>2016-12-06T18:12:11Z</time>
      </trkpt>
      <trkpt lat="14.12569" lon="-61.02005">
        <ele>10.71</ele>
        <time>2016-12-06T18:12:22Z</time>
      </trkpt>
      <trkpt lat="14.1257" lon="-61.02007">
        <ele>10.71</ele>
        <time>2016-12-06T18:12:24Z</time>
      </trkpt>
      <trkpt lat="14.12572" lon="-61.02007">
        <ele>10.71</ele>
        <time>2016-12-06T18:12:26Z</time>
      </trkpt>
      <trkpt lat="14.12588" lon="-61.02015">
        <ele>11.19</ele>
        <time>2016-12-06T18:12:39Z</time>
      </trkpt>
      <trkpt lat="14.12592" lon="-61.02017">
        <ele>11.19</ele>
        <time>2016-12-06T18:12:41Z</time>
      </trkpt>
      <trkpt lat="14.12614" lon="-61.02021">
        <ele>11.19</ele>
        <time>2016-12-06T18:12:54Z</time>
      </trkpt>
      <trkpt lat="14.12628" lon="-61.02023">
        <ele>10.23</ele>
        <time>2016-12-06T18:13:02Z</time>
      </trkpt>
      <trkpt lat="14.12643" lon="-61.02026">
        <ele>10.71</ele>
        <time>2016-12-06T18:13:13Z</time>
      </trkpt>
      <trkpt lat="14.12652" lon="-61.02028">
        <ele>10.23</ele>
        <time>2016-12-06T18:13:20Z</time>
      </trkpt>
      <trkpt lat="14.1266" lon="-61.02032">
        <ele>11.19</ele>
        <time>2016-12-06T18:13:27Z</time>
      </trkpt>
      <trkpt lat="14.12669" lon="-61.02036">
        <ele>11.19</ele>
        <time>2016-12-06T18:13:33Z</time>
      </trkpt>
      <trkpt lat="14.12683" lon="-61.02041">
        <ele>10.71</ele>
        <time>2016-12-06T18:13:42Z</time>
      </trkpt>
      <trkpt lat="14.12699" lon="-61.02045">
        <ele>10.71</ele>
        <time>2016-12-06T18:13:52Z</time>
      </trkpt>
      <trkpt lat="14.12704" lon="-61.02047">
        <ele>10.23</ele>
        <time>2016-12-06T18:13:55Z</time>
      </trkpt>
      <trkpt lat="14.12713" lon="-61.0205">
        <ele>9.75</ele>
        <time>2016-12-06T18:14:01Z</time>
      </trkpt>
      <trkpt lat="14.1272" lon="-61.02052">
        <ele>9.75</ele>
        <time>2016-12-06T18:14:06Z</time>
      </trkpt>
      <trkpt lat="14.1274" lon="-61.02058">
        <ele>9.75</ele>
        <time>2016-12-06T18:14:17Z</time>
      </trkpt>
      <trkpt lat="14.12751" lon="-61.02059">
        <ele>9.27</ele>
        <time>2016-12-06T18:14:24Z</time>
      </trkpt>
      <trkpt lat="14.12762" lon="-61.02062">
        <ele>9.75</ele>
        <time>2016-12-06T18:14:32Z</time>
      </trkpt>
      <trkpt lat="14.1277" lon="-61.02064">
        <ele>9.27</ele>
        <time>2016-12-06T18:14:38Z</time>
      </trkpt>
      <trkpt lat="14.1278" lon="-61.02068">
        <ele>8.79</ele>
        <time>2016-12-06T18:14:46Z</time>
      </trkpt>
      <trkpt lat="14.12785" lon="-61.02071">
        <ele>9.27</ele>
        <time>2016-12-06T18:14:50Z</time>
      </trkpt>
      <trkpt lat="14.12789" lon="-61.02074">
        <ele>9.27</ele>
        <time>2016-12-06T18:14:53Z</time>
      </trkpt>
      <trkpt lat="14.12814" lon="-61.02084">
        <ele>10.23</ele>
        <time>2016-12-06T18:15:06Z</time>
      </trkpt>
      <trkpt lat="14.1284" lon="-61.02092">
        <ele>10.71</ele>
        <time>2016-12-06T18:15:19Z</time>
      </trkpt>
      <trkpt lat="14.12856" lon="-61.02098">
        <ele>10.71</ele>
        <time>2016-12-06T18:15:28Z</time>
      </trkpt>
      <trkpt lat="14.12863" lon="-61.02101">
        <ele>10.71</ele>
        <time>2016-12-06T18:15:32Z</time>
      </trkpt>
      <trkpt lat="14.12888" lon="-61.02108">
        <ele>11.19</ele>
        <time>2016-12-06T18:15:45Z</time>
      </trkpt>
      <trkpt lat="14.12895" lon="-61.02109">
        <ele>10.23</ele>
        <time>2016-12-06T18:15:48Z</time>
      </trkpt>
      <trkpt lat="14.12916" lon="-61.02115">
        <ele>9.75</ele>
        <time>2016-12-06T18:16:00Z</time>
      </trkpt>
      <trkpt lat="14.12943" lon="-61.02121">
        <ele>9.75</ele>
        <time>2016-12-06T18:16:13Z</time>
      </trkpt>
      <trkpt lat="14.12972" lon="-61.02127">
        <ele>9.27</ele>
        <time>2016-12-06T18:16:26Z</time>
      </trkpt>
      <trkpt lat="14.12999" lon="-61.02132">
        <ele>9.27</ele>
        <time>2016-12-06T18:16:38Z</time>
      </trkpt>
      <trkpt lat="14.13003" lon="-61.02133">
        <ele>9.27</ele>
        <time>2016-12-06T18:16:40Z</time>
      </trkpt>
      <trkpt lat="14.13011" lon="-61.02135">
        <ele>9.75</ele>
        <time>2016-12-06T18:16:44Z</time>
      </trkpt>
      <trkpt lat="14.13041" lon="-61.02142">
        <ele>10.23</ele>
        <time>2016-12-06T18:16:58Z</time>
      </trkpt>
      <trkpt lat="14.13065" lon="-61.02148">
        <ele>10.23</ele>
        <time>2016-12-06T18:17:10Z</time>
      </trkpt>
      <trkpt lat="14.13087" lon="-61.02153">
        <ele>10.23</ele>
        <time>2016-12-06T18:17:21Z</time>
      </trkpt>
      <trkpt lat="14.13101" lon="-61.02158">
        <ele>10.71</ele>
        <time>2016-12-06T18:17:29Z</time>
      </trkpt>
      <trkpt lat="14.13109" lon="-61.0216">
        <ele>10.71</ele>
        <time>2016-12-06T18:17:33Z</time>
      </trkpt>
      <trkpt lat="14.13136" lon="-61.0217">
        <ele>9.75</ele>
        <time>2016-12-06T18:17:47Z</time>
      </trkpt>
      <trkpt lat="14.13161" lon="-61.02178">
        <ele>8.79</ele>
        <time>2016-12-06T18:17:59Z</time>
      </trkpt>
      <trkpt lat="14.13183" lon="-61.02184">
        <ele>9.27</ele>
        <time>2016-12-06T18:18:10Z</time>
      </trkpt>
      <trkpt lat="14.132" lon="-61.02187">
        <ele>8.79</ele>
        <time>2016-12-06T18:18:18Z</time>
      </trkpt>
      <trkpt lat="14.13211" lon="-61.02189">
        <ele>9.27</ele>
        <time>2016-12-06T18:18:24Z</time>
      </trkpt>
      <trkpt lat="14.13229" lon="-61.02195">
        <ele>9.75</ele>
        <time>2016-12-06T18:18:34Z</time>
      </trkpt>
      <trkpt lat="14.13231" lon="-61.02196">
        <ele>10.23</ele>
        <time>2016-12-06T18:18:35Z</time>
      </trkpt>
      <trkpt lat="14.13255" lon="-61.02201">
        <ele>9.75</ele>
        <time>2016-12-06T18:18:46Z</time>
      </trkpt>
      <trkpt lat="14.13282" lon="-61.02208">
        <ele>10.71</ele>
        <time>2016-12-06T18:18:59Z</time>
      </trkpt>
      <trkpt lat="14.1331" lon="-61.02215">
        <ele>11.19</ele>
        <time>2016-12-06T18:19:12Z</time>
      </trkpt>
      <trkpt lat="14.13338" lon="-61.02219">
        <ele>10.71</ele>
        <time>2016-12-06T18:19:25Z</time>
      </trkpt>
      <trkpt lat="14.13358" lon="-61.02223">
        <ele>11.19</ele>
        <time>2016-12-06T18:19:36Z</time>
      </trkpt>
      <trkpt lat="14.13383" lon="-61.0223">
        <ele>10.71</ele>
        <time>2016-12-06T18:19:49Z</time>
      </trkpt>
      <trkpt lat="14.13411" lon="-61.02239">
        <ele>10.71</ele>
        <time>2016-12-06T18:20:02Z</time>
      </trkpt>
      <trkpt lat="14.13429" lon="-61.02244">
        <ele>10.71</ele>
        <time>2016-12-06T18:20:11Z</time>
      </trkpt>
      <trkpt lat="14.13451" lon="-61.02251">
        <ele>10.23</ele>
        <time>2016-12-06T18:20:23Z</time>
      </trkpt>
      <trkpt lat="14.13467" lon="-61.02257">
        <ele>10.23</ele>
        <time>2016-12-06T18:20:32Z</time>
      </trkpt>
      <trkpt lat="14.13478" lon="-61.0226">
        <ele>10.71</ele>
        <time>2016-12-06T18:20:38Z</time>
      </trkpt>
      <trkpt lat="14.13499" lon="-61.02266">
        <ele>10.71</ele>
        <time>2016-12-06T18:20:50Z</time>
      </trkpt>
      <trkpt lat="14.13518" lon="-61.02272">
        <ele>9.27</ele>
        <time>2016-12-06T18:21:01Z</time>
      </trkpt>
      <trkpt lat="14.13527" lon="-61.02276">
        <ele>9.75</ele>
        <time>2016-12-06T18:21:07Z</time>
      </trkpt>
      <trkpt lat="14.13557" lon="-61.02287">
        <ele>9.75</ele>
        <time>2016-12-06T18:21:23Z</time>
      </trkpt>
      <trkpt lat="14.13584" lon="-61.02293">
        <ele>9.75</ele>
        <time>2016-12-06T18:21:37Z</time>
      </trkpt>
      <trkpt lat="14.13592" lon="-61.02296">
        <ele>9.27</ele>
        <time>2016-12-06T18:21:41Z</time>
      </trkpt>
      <trkpt lat="14.13623" lon="-61.02304">
        <ele>9.75</ele>
        <time>2016-12-06T18:21:55Z</time>
      </trkpt>
      <trkpt lat="14.13647" lon="-61.02309">
        <ele>9.27</ele>
        <time>2016-12-06T18:22:06Z</time>
      </trkpt>
      <trkpt lat="14.13674" lon="-61.02316">
        <ele>9.27</ele>
        <time>2016-12-06T18:22:18Z</time>
      </trkpt>
      <trkpt lat="14.137" lon="-61.02324">
        <ele>10.23</ele>
        <time>2016-12-06T18:22:31Z</time>
      </trkpt>
      <trkpt lat="14.13718" lon="-61.02329">
        <ele>11.19</ele>
        <time>2016-12-06T18:22:41Z</time>
      </trkpt>
      <trkpt lat="14.13735" lon="-61.02336">
        <ele>11.67</ele>
        <time>2016-12-06T18:22:52Z</time>
      </trkpt>
      <trkpt lat="14.1374" lon="-61.02338">
        <ele>11.19</ele>
        <time>2016-12-06T18:22:55Z</time>
      </trkpt>
      <trkpt lat="14.13753" lon="-61.02343">
        <ele>10.71</ele>
        <time>2016-12-06T18:23:03Z</time>
      </trkpt>
      <trkpt lat="14.13769" lon="-61.02349">
        <ele>10.71</ele>
        <time>2016-12-06T18:23:13Z</time>
      </trkpt>
      <trkpt lat="14.13785" lon="-61.02353">
        <ele>10.23</ele>
        <time>2016-12-06T18:23:25Z</time>
      </trkpt>
      <trkpt lat="14.13795" lon="-61.02357">
        <ele>10.23</ele>
        <time>2016-12-06T18:23:41Z</time>
      </trkpt>
      <trkpt lat="14.13796" lon="-61.02361">
        <ele>10.71</ele>
        <time>2016-12-06T18:23:47Z</time>
      </trkpt>
      <trkpt lat="14.13797" lon="-61.02365">
        <ele>10.71</ele>
        <time>2016-12-06T18:23:52Z</time>
      </trkpt>
      <trkpt lat="14.138" lon="-61.02371">
        <ele>10.71</ele>
        <time>2016-12-06T18:23:58Z</time>
      </trkpt>
      <trkpt lat="14.13821" lon="-61.02385">
        <ele>10.71</ele>
        <time>2016-12-06T18:24:14Z</time>
      </trkpt>
      <trkpt lat="14.13842" lon="-61.02394">
        <ele>11.19</ele>
        <time>2016-12-06T18:24:26Z</time>
      </trkpt>
      <trkpt lat="14.13859" lon="-61.02398">
        <ele>10.71</ele>
        <time>2016-12-06T18:24:36Z</time>
      </trkpt>
      <trkpt lat="14.13865" lon="-61.024">
        <ele>10.71</ele>
        <time>2016-12-06T18:24:40Z</time>
      </trkpt>
      <trkpt lat="14.13881" lon="-61.02407">
        <ele>10.71</ele>
        <time>2016-12-06T18:24:51Z</time>
      </trkpt>
      <trkpt lat="14.13909" lon="-61.02418">
        <ele>10.71</ele>
        <time>2016-12-06T18:25:07Z</time>
      </trkpt>
      <trkpt lat="14.13916" lon="-61.0242">
        <ele>10.71</ele>
        <time>2016-12-06T18:25:11Z</time>
      </trkpt>
      <trkpt lat="14.13932" lon="-61.02426">
        <ele>10.23</ele>
        <time>2016-12-06T18:25:23Z</time>
      </trkpt>
      <trkpt lat="14.13936" lon="-61.02428">
        <ele>10.23</ele>
        <time>2016-12-06T18:25:27Z</time>
      </trkpt>
      <trkpt lat="14.13949" lon="-61.02435">
        <ele>10.23</ele>
        <time>2016-12-06T18:25:40Z</time>
      </trkpt>
      <trkpt lat="14.13951" lon="-61.02437">
        <ele>10.71</ele>
        <time>2016-12-06T18:25:42Z</time>
      </trkpt>
      <trkpt lat="14.13964" lon="-61.02442">
        <ele>10.23</ele>
        <time>2016-12-06T18:25:49Z</time>
      </trkpt>
      <trkpt lat="14.13996" lon="-61.0245">
        <ele>10.23</ele>
        <time>2016-12-06T18:26:04Z</time>
      </trkpt>
      <trkpt lat="14.14023" lon="-61.02456">
        <ele>9.75</ele>
        <time>2016-12-06T18:26:18Z</time>
      </trkpt>
      <trkpt lat="14.1405" lon="-61.02461">
        <ele>11.19</ele>
        <time>2016-12-06T18:26:32Z</time>
      </trkpt>
      <trkpt lat="14.14057" lon="-61.02463">
        <ele>10.71</ele>
        <time>2016-12-06T18:26:36Z</time>
      </trkpt>
      <trkpt lat="14.14068" lon="-61.02467">
        <ele>10.71</ele>
        <time>2016-12-06T18:26:42Z</time>
      </trkpt>
      <trkpt lat="14.1409" lon="-61.02472">
        <ele>11.19</ele>
        <time>2016-12-06T18:26:52Z</time>
      </trkpt>
      <trkpt lat="14.14104" lon="-61.02476">
        <ele>11.19</ele>
        <time>2016-12-06T18:27:01Z</time>
      </trkpt>
      <trkpt lat="14.14106" lon="-61.02477">
        <ele>11.67</ele>
        <time>2016-12-06T18:27:03Z</time>
      </trkpt>
      <trkpt lat="14.14117" lon="-61.02483">
        <ele>11.67</ele>
        <time>2016-12-06T18:27:15Z</time>
      </trkpt>
      <trkpt lat="14.14131" lon="-61.02491">
        <ele>12.63</ele>
        <time>2016-12-06T18:27:26Z</time>
      </trkpt>
      <trkpt lat="14.14152" lon="-61.02501">
        <ele>12.15</ele>
        <time>2016-12-06T18:27:41Z</time>
      </trkpt>
      <trkpt lat="14.14168" lon="-61.02509">
        <ele>11.67</ele>
        <time>2016-12-06T18:27:54Z</time>
      </trkpt>
      <trkpt lat="14.14181" lon="-61.02515">
        <ele>11.67</ele>
        <time>2016-12-06T18:28:06Z</time>
      </trkpt>
      <trkpt lat="14.14182" lon="-61.02516">
        <ele>11.67</ele>
        <time>2016-12-06T18:28:07Z</time>
      </trkpt>
      <trkpt lat="14.14203" lon="-61.02528">
        <ele>12.15</ele>
        <time>2016-12-06T18:28:23Z</time>
      </trkpt>
      <trkpt lat="14.14208" lon="-61.02529">
        <ele>12.63</ele>
        <time>2016-12-06T18:28:26Z</time>
      </trkpt>
      <trkpt lat="14.1422" lon="-61.02534">
        <ele>11.67</ele>
        <time>2016-12-06T18:28:39Z</time>
      </trkpt>
      <trkpt lat="14.14224" lon="-61.02542">
        <ele>12.15</ele>
        <time>2016-12-06T18:28:53Z</time>
      </trkpt>
      <trkpt lat="14.14224" lon="-61.02545">
        <ele>11.67</ele>
        <time>2016-12-06T18:28:56Z</time>
      </trkpt>
      <trkpt lat="14.14225" lon="-61.0255">
        <ele>12.15</ele>
        <time>2016-12-06T18:29:01Z</time>
      </trkpt>
      <trkpt lat="14.14248" lon="-61.02569">
        <ele>12.15</ele>
        <time>2016-12-06T18:29:16Z</time>
      </trkpt>
      <trkpt lat="14.14276" lon="-61.02577">
        <ele>11.67</ele>
        <time>2016-12-06T18:29:28Z</time>
      </trkpt>
      <trkpt lat="14.14304" lon="-61.02583">
        <ele>11.67</ele>
        <time>2016-12-06T18:29:41Z</time>
      </trkpt>
      <trkpt lat="14.14329" lon="-61.02588">
        <ele>11.67</ele>
        <time>2016-12-06T18:29:53Z</time>
      </trkpt>
      <trkpt lat="14.14355" lon="-61.02598">
        <ele>11.67</ele>
        <time>2016-12-06T18:30:06Z</time>
      </trkpt>
      <trkpt lat="14.1439" lon="-61.02604">
        <ele>11.67</ele>
        <time>2016-12-06T18:30:22Z</time>
      </trkpt>
      <trkpt lat="14.14393" lon="-61.02604">
        <ele>11.67</ele>
        <time>2016-12-06T18:30:24Z</time>
      </trkpt>
      <trkpt lat="14.14405" lon="-61.02607">
        <ele>11.67</ele>
        <time>2016-12-06T18:30:32Z</time>
      </trkpt>
      <trkpt lat="14.14411" lon="-61.0261">
        <ele>11.67</ele>
        <time>2016-12-06T18:30:37Z</time>
      </trkpt>
      <trkpt lat="14.14418" lon="-61.02614">
        <ele>11.67</ele>
        <time>2016-12-06T18:30:42Z</time>
      </trkpt>
      <trkpt lat="14.14443" lon="-61.02624">
        <ele>10.71</ele>
        <time>2016-12-06T18:30:55Z</time>
      </trkpt>
      <trkpt lat="14.14471" lon="-61.02631">
        <ele>11.19</ele>
        <time>2016-12-06T18:31:10Z</time>
      </trkpt>
      <trkpt lat="14.14473" lon="-61.02632">
        <ele>11.19</ele>
        <time>2016-12-06T18:31:11Z</time>
      </trkpt>
      <trkpt lat="14.14483" lon="-61.02635">
        <ele>10.71</ele>
        <time>2016-12-06T18:31:17Z</time>
      </trkpt>
      <trkpt lat="14.14487" lon="-61.02637">
        <ele>10.23</ele>
        <time>2016-12-06T18:31:20Z</time>
      </trkpt>
      <trkpt lat="14.14504" lon="-61.02644">
        <ele>10.23</ele>
        <time>2016-12-06T18:31:30Z</time>
      </trkpt>
      <trkpt lat="14.14532" lon="-61.02654">
        <ele>9.27</ele>
        <time>2016-12-06T18:31:44Z</time>
      </trkpt>
      <trkpt lat="14.1456" lon="-61.02661">
        <ele>10.71</ele>
        <time>2016-12-06T18:31:57Z</time>
      </trkpt>
      <trkpt lat="14.14579" lon="-61.02668">
        <ele>10.71</ele>
        <time>2016-12-06T18:32:07Z</time>
      </trkpt>
      <trkpt lat="14.14608" lon="-61.02674">
        <ele>11.67</ele>
        <time>2016-12-06T18:32:21Z</time>
      </trkpt>
      <trkpt lat="14.14639" lon="-61.0268">
        <ele>11.67</ele>
        <time>2016-12-06T18:32:35Z</time>
      </trkpt>
      <trkpt lat="14.14664" lon="-61.02686">
        <ele>11.67</ele>
        <time>2016-12-06T18:32:48Z</time>
      </trkpt>
      <trkpt lat="14.14688" lon="-61.02695">
        <ele>12.15</ele>
        <time>2016-12-06T18:33:03Z</time>
      </trkpt>
      <trkpt lat="14.147" lon="-61.02698">
        <ele>12.15</ele>
        <time>2016-12-06T18:33:09Z</time>
      </trkpt>
      <trkpt lat="14.1471" lon="-61.02702">
        <ele>11.19</ele>
        <time>2016-12-06T18:33:17Z</time>
      </trkpt>
      <trkpt lat="14.14715" lon="-61.02704">
        <ele>11.67</ele>
        <time>2016-12-06T18:33:21Z</time>
      </trkpt>
      <trkpt lat="14.14725" lon="-61.02711">
        <ele>12.15</ele>
        <time>2016-12-06T18:33:29Z</time>
      </trkpt>
      <trkpt lat="14.14742" lon="-61.02721">
        <ele>11.67</ele>
        <time>2016-12-06T18:33:42Z</time>
      </trkpt>
      <trkpt lat="14.14746" lon="-61.02723">
        <ele>11.67</ele>
        <time>2016-12-06T18:33:45Z</time>
      </trkpt>
      <trkpt lat="14.14769" lon="-61.02731">
        <ele>11.19</ele>
        <time>2016-12-06T18:34:03Z</time>
      </trkpt>
      <trkpt lat="14.14774" lon="-61.0274">
        <ele>11.67</ele>
        <time>2016-12-06T18:34:18Z</time>
      </trkpt>
      <trkpt lat="14.14795" lon="-61.02755">
        <ele>10.71</ele>
        <time>2016-12-06T18:34:33Z</time>
      </trkpt>
      <trkpt lat="14.14813" lon="-61.02761">
        <ele>11.19</ele>
        <time>2016-12-06T18:34:46Z</time>
      </trkpt>
      <trkpt lat="14.14815" lon="-61.02762">
        <ele>11.67</ele>
        <time>2016-12-06T18:34:48Z</time>
      </trkpt>
      <trkpt lat="14.14831" lon="-61.02769">
        <ele>11.19</ele>
        <time>2016-12-06T18:35:01Z</time>
      </trkpt>
      <trkpt lat="14.14839" lon="-61.02772">
        <ele>12.15</ele>
        <time>2016-12-06T18:35:07Z</time>
      </trkpt>
      <trkpt lat="14.14858" lon="-61.02782">
        <ele>11.67</ele>
        <time>2016-12-06T18:35:22Z</time>
      </trkpt>
      <trkpt lat="14.14878" lon="-61.02792">
        <ele>12.63</ele>
        <time>2016-12-06T18:35:36Z</time>
      </trkpt>
      <trkpt lat="14.14896" lon="-61.028">
        <ele>12.15</ele>
        <time>2016-12-06T18:35:49Z</time>
      </trkpt>
      <trkpt lat="14.14905" lon="-61.02803">
        <ele>12.15</ele>
        <time>2016-12-06T18:35:56Z</time>
      </trkpt>
      <trkpt lat="14.14916" lon="-61.02808">
        <ele>12.63</ele>
        <time>2016-12-06T18:36:09Z</time>
      </trkpt>
      <trkpt lat="14.14928" lon="-61.0282">
        <ele>12.15</ele>
        <time>2016-12-06T18:36:24Z</time>
      </trkpt>
      <trkpt lat="14.14934" lon="-61.02824">
        <ele>11.67</ele>
        <time>2016-12-06T18:36:28Z</time>
      </trkpt>
      <trkpt lat="14.14955" lon="-61.0283">
        <ele>11.67</ele>
        <time>2016-12-06T18:36:43Z</time>
      </trkpt>
      <trkpt lat="14.14955" lon="-61.02832">
        <ele>10.23</ele>
        <time>2016-12-06T18:36:56Z</time>
      </trkpt>
      <trkpt lat="14.14955" lon="-61.02832">
        <ele>10.23</ele>
        <time>2016-12-06T18:36:58Z</time>
      </trkpt>
      <trkpt lat="14.14942" lon="-61.0284">
        <ele>10.71</ele>
        <time>2016-12-06T18:37:13Z</time>
      </trkpt>
      <trkpt lat="14.14939" lon="-61.02842">
        <ele>10.71</ele>
        <time>2016-12-06T18:37:16Z</time>
      </trkpt>
      <trkpt lat="14.14918" lon="-61.02842">
        <ele>10.23</ele>
        <time>2016-12-06T18:37:33Z</time>
      </trkpt>
      <trkpt lat="14.14914" lon="-61.02841">
        <ele>10.23</ele>
        <time>2016-12-06T18:37:36Z</time>
      </trkpt>
      <trkpt lat="14.1491" lon="-61.02839">
        <ele>10.71</ele>
        <time>2016-12-06T18:37:40Z</time>
      </trkpt>
      <trkpt lat="14.14904" lon="-61.02836">
        <ele>10.71</ele>
        <time>2016-12-06T18:37:46Z</time>
      </trkpt>
      <trkpt lat="14.14899" lon="-61.02827">
        <ele>11.19</ele>
        <time>2016-12-06T18:37:54Z</time>
      </trkpt>
      <trkpt lat="14.14897" lon="-61.02802">
        <ele>11.19</ele>
        <time>2016-12-06T18:38:07Z</time>
      </trkpt>
      <trkpt lat="14.14914" lon="-61.0279">
        <ele>10.71</ele>
        <time>2016-12-06T18:38:21Z</time>
      </trkpt>
      <trkpt lat="14.14942" lon="-61.02811">
        <ele>11.19</ele>
        <time>2016-12-06T18:38:33Z</time>
      </trkpt>
      <trkpt lat="14.14976" lon="-61.02842">
        <ele>10.71</ele>
        <time>2016-12-06T18:38:47Z</time>
      </trkpt>
      <trkpt lat="14.15012" lon="-61.02857">
        <ele>8.79</ele>
        <time>2016-12-06T18:39:00Z</time>
      </trkpt>
      <trkpt lat="14.15044" lon="-61.02857">
        <ele>10.71</ele>
        <time>2016-12-06T18:39:13Z</time>
      </trkpt>
      <trkpt lat="14.15072" lon="-61.02851">
        <ele>12.15</ele>
        <time>2016-12-06T18:39:26Z</time>
      </trkpt>
      <trkpt lat="14.15085" lon="-61.02848">
        <ele>11.67</ele>
        <time>2016-12-06T18:39:33Z</time>
      </trkpt>
      <trkpt lat="14.15103" lon="-61.02839">
        <ele>11.67</ele>
        <time>2016-12-06T18:39:44Z</time>
      </trkpt>
      <trkpt lat="14.15123" lon="-61.02828">
        <ele>11.19</ele>
        <time>2016-12-06T18:39:58Z</time>
      </trkpt>
      <trkpt lat="14.15135" lon="-61.02815">
        <ele>10.71</ele>
        <time>2016-12-06T18:40:09Z</time>
      </trkpt>
      <trkpt lat="14.15137" lon="-61.02808">
        <ele>11.67</ele>
        <time>2016-12-06T18:40:13Z</time>
      </trkpt>
      <trkpt lat="14.15149" lon="-61.02781">
        <ele>11.67</ele>
        <time>2016-12-06T18:40:27Z</time>
      </trkpt>
      <trkpt lat="14.1517" lon="-61.0276">
        <ele>11.19</ele>
        <time>2016-12-06T18:40:42Z</time>
      </trkpt>
      <trkpt lat="14.15194" lon="-61.02744">
        <ele>11.19</ele>
        <time>2016-12-06T18:40:58Z</time>
      </trkpt>
      <trkpt lat="14.15198" lon="-61.02741">
        <ele>11.19</ele>
        <time>2016-12-06T18:41:01Z</time>
      </trkpt>
      <trkpt lat="14.15217" lon="-61.0273">
        <ele>11.67</ele>
        <time>2016-12-06T18:41:15Z</time>
      </trkpt>
      <trkpt lat="14.15233" lon="-61.0272">
        <ele>10.71</ele>
        <time>2016-12-06T18:41:27Z</time>
      </trkpt>
      <trkpt lat="14.15254" lon="-61.02707">
        <ele>10.23</ele>
        <time>2016-12-06T18:41:41Z</time>
      </trkpt>
      <trkpt lat="14.15276" lon="-61.02698">
        <ele>10.71</ele>
        <time>2016-12-06T18:41:54Z</time>
      </trkpt>
      <trkpt lat="14.15298" lon="-61.02689">
        <ele>10.23</ele>
        <time>2016-12-06T18:42:06Z</time>
      </trkpt>
      <trkpt lat="14.15323" lon="-61.02678">
        <ele>10.23</ele>
        <time>2016-12-06T18:42:19Z</time>
      </trkpt>
      <trkpt lat="14.1535" lon="-61.02663">
        <ele>10.71</ele>
        <time>2016-12-06T18:42:35Z</time>
      </trkpt>
      <trkpt lat="14.15369" lon="-61.02653">
        <ele>11.67</ele>
        <time>2016-12-06T18:42:48Z</time>
      </trkpt>
      <trkpt lat="14.15388" lon="-61.02643">
        <ele>11.67</ele>
        <time>2016-12-06T18:43:00Z</time>
      </trkpt>
      <trkpt lat="14.15413" lon="-61.02631">
        <ele>11.19</ele>
        <time>2016-12-06T18:43:14Z</time>
      </trkpt>
      <trkpt lat="14.15434" lon="-61.0262">
        <ele>11.19</ele>
        <time>2016-12-06T18:43:27Z</time>
      </trkpt>
      <trkpt lat="14.15453" lon="-61.0261">
        <ele>10.71</ele>
        <time>2016-12-06T18:43:40Z</time>
      </trkpt>
      <trkpt lat="14.15476" lon="-61.026">
        <ele>11.19</ele>
        <time>2016-12-06T18:43:54Z</time>
      </trkpt>
      <trkpt lat="14.15498" lon="-61.02589">
        <ele>11.19</ele>
        <time>2016-12-06T18:44:06Z</time>
      </trkpt>
      <trkpt lat="14.15502" lon="-61.02588">
        <ele>12.15</ele>
        <time>2016-12-06T18:44:08Z</time>
      </trkpt>
      <trkpt lat="14.15518" lon="-61.0258">
        <ele>13.6</ele>
        <time>2016-12-06T18:44:18Z</time>
      </trkpt>
      <trkpt lat="14.15532" lon="-61.02574">
        <ele>12.63</ele>
        <time>2016-12-06T18:44:25Z</time>
      </trkpt>
      <trkpt lat="14.15543" lon="-61.02569">
        <ele>11.19</ele>
        <time>2016-12-06T18:44:31Z</time>
      </trkpt>
      <trkpt lat="14.15556" lon="-61.02559">
        <ele>11.19</ele>
        <time>2016-12-06T18:44:39Z</time>
      </trkpt>
      <trkpt lat="14.15563" lon="-61.02556">
        <ele>11.67</ele>
        <time>2016-12-06T18:44:43Z</time>
      </trkpt>
      <trkpt lat="14.15592" lon="-61.02541">
        <ele>11.19</ele>
        <time>2016-12-06T18:44:58Z</time>
      </trkpt>
      <trkpt lat="14.15617" lon="-61.02531">
        <ele>10.23</ele>
        <time>2016-12-06T18:45:10Z</time>
      </trkpt>
      <trkpt lat="14.15647" lon="-61.02515">
        <ele>10.23</ele>
        <time>2016-12-06T18:45:25Z</time>
      </trkpt>
      <trkpt lat="14.15672" lon="-61.02502">
        <ele>10.71</ele>
        <time>2016-12-06T18:45:38Z</time>
      </trkpt>
      <trkpt lat="14.15676" lon="-61.025">
        <ele>10.71</ele>
        <time>2016-12-06T18:45:40Z</time>
      </trkpt>
      <trkpt lat="14.15702" lon="-61.02486">
        <ele>10.23</ele>
        <time>2016-12-06T18:45:53Z</time>
      </trkpt>
      <trkpt lat="14.15731" lon="-61.02471">
        <ele>10.23</ele>
        <time>2016-12-06T18:46:07Z</time>
      </trkpt>
      <trkpt lat="14.15762" lon="-61.02454">
        <ele>10.23</ele>
        <time>2016-12-06T18:46:22Z</time>
      </trkpt>
      <trkpt lat="14.15791" lon="-61.02442">
        <ele>9.75</ele>
        <time>2016-12-06T18:46:36Z</time>
      </trkpt>
      <trkpt lat="14.15819" lon="-61.02432">
        <ele>10.23</ele>
        <time>2016-12-06T18:46:49Z</time>
      </trkpt>
      <trkpt lat="14.15849" lon="-61.0242">
        <ele>10.23</ele>
        <time>2016-12-06T18:47:03Z</time>
      </trkpt>
      <trkpt lat="14.15883" lon="-61.02407">
        <ele>9.27</ele>
        <time>2016-12-06T18:47:20Z</time>
      </trkpt>
      <trkpt lat="14.1591" lon="-61.02397">
        <ele>9.75</ele>
        <time>2016-12-06T18:47:33Z</time>
      </trkpt>
      <trkpt lat="14.15934" lon="-61.02389">
        <ele>10.23</ele>
        <time>2016-12-06T18:47:44Z</time>
      </trkpt>
      <trkpt lat="14.15969" lon="-61.02374">
        <ele>10.23</ele>
        <time>2016-12-06T18:48:00Z</time>
      </trkpt>
      <trkpt lat="14.15999" lon="-61.02363">
        <ele>10.23</ele>
        <time>2016-12-06T18:48:14Z</time>
      </trkpt>
      <trkpt lat="14.16027" lon="-61.02353">
        <ele>9.27</ele>
        <time>2016-12-06T18:48:27Z</time>
      </trkpt>
      <trkpt lat="14.16059" lon="-61.0234">
        <ele>9.75</ele>
        <time>2016-12-06T18:48:42Z</time>
      </trkpt>
      <trkpt lat="14.16069" lon="-61.02335">
        <ele>9.75</ele>
        <time>2016-12-06T18:48:47Z</time>
      </trkpt>
      <trkpt lat="14.16084" lon="-61.02327">
        <ele>10.71</ele>
        <time>2016-12-06T18:48:55Z</time>
      </trkpt>
      <trkpt lat="14.16116" lon="-61.02315">
        <ele>12.15</ele>
        <time>2016-12-06T18:49:10Z</time>
      </trkpt>
      <trkpt lat="14.16145" lon="-61.02303">
        <ele>11.19</ele>
        <time>2016-12-06T18:49:25Z</time>
      </trkpt>
      <trkpt lat="14.16153" lon="-61.023">
        <ele>12.15</ele>
        <time>2016-12-06T18:49:29Z</time>
      </trkpt>
      <trkpt lat="14.16164" lon="-61.02296">
        <ele>12.15</ele>
        <time>2016-12-06T18:49:35Z</time>
      </trkpt>
      <trkpt lat="14.16188" lon="-61.02286">
        <ele>11.19</ele>
        <time>2016-12-06T18:49:47Z</time>
      </trkpt>
      <trkpt lat="14.16207" lon="-61.02277">
        <ele>12.15</ele>
        <time>2016-12-06T18:49:57Z</time>
      </trkpt>
      <trkpt lat="14.16215" lon="-61.02273">
        <ele>11.67</ele>
        <time>2016-12-06T18:50:01Z</time>
      </trkpt>
      <trkpt lat="14.16223" lon="-61.02269">
        <ele>12.15</ele>
        <time>2016-12-06T18:50:05Z</time>
      </trkpt>
      <trkpt lat="14.16244" lon="-61.02264">
        <ele>11.19</ele>
        <time>2016-12-06T18:50:16Z</time>
      </trkpt>
      <trkpt lat="14.1627" lon="-61.02252">
        <ele>11.67</ele>
        <time>2016-12-06T18:50:29Z</time>
      </trkpt>
      <trkpt lat="14.16297" lon="-61.02243">
        <ele>11.67</ele>
        <time>2016-12-06T18:50:41Z</time>
      </trkpt>
      <trkpt lat="14.16324" lon="-61.02237">
        <ele>12.15</ele>
        <time>2016-12-06T18:50:53Z</time>
      </trkpt>
      <trkpt lat="14.16348" lon="-61.02229">
        <ele>11.19</ele>
        <time>2016-12-06T18:51:03Z</time>
      </trkpt>
      <trkpt lat="14.16384" lon="-61.02216">
        <ele>11.19</ele>
        <time>2016-12-06T18:51:19Z</time>
      </trkpt>
      <trkpt lat="14.16416" lon="-61.02203">
        <ele>12.15</ele>
        <time>2016-12-06T18:51:34Z</time>
      </trkpt>
      <trkpt lat="14.16444" lon="-61.02194">
        <ele>12.15</ele>
        <time>2016-12-06T18:51:47Z</time>
      </trkpt>
      <trkpt lat="14.16468" lon="-61.02184">
        <ele>12.15</ele>
        <time>2016-12-06T18:51:59Z</time>
      </trkpt>
      <trkpt lat="14.16499" lon="-61.0217">
        <ele>12.15</ele>
        <time>2016-12-06T18:52:14Z</time>
      </trkpt>
      <trkpt lat="14.16534" lon="-61.02158">
        <ele>11.67</ele>
        <time>2016-12-06T18:52:30Z</time>
      </trkpt>
      <trkpt lat="14.1656" lon="-61.02149">
        <ele>12.15</ele>
        <time>2016-12-06T18:52:43Z</time>
      </trkpt>
      <trkpt lat="14.16582" lon="-61.02139">
        <ele>11.67</ele>
        <time>2016-12-06T18:52:55Z</time>
      </trkpt>
      <trkpt lat="14.1661" lon="-61.02129">
        <ele>10.71</ele>
        <time>2016-12-06T18:53:08Z</time>
      </trkpt>
      <trkpt lat="14.16636" lon="-61.0212">
        <ele>11.19</ele>
        <time>2016-12-06T18:53:21Z</time>
      </trkpt>
      <trkpt lat="14.16665" lon="-61.02111">
        <ele>11.19</ele>
        <time>2016-12-06T18:53:34Z</time>
      </trkpt>
      <trkpt lat="14.1669" lon="-61.02101">
        <ele>11.67</ele>
        <time>2016-12-06T18:53:46Z</time>
      </trkpt>
      <trkpt lat="14.16717" lon="-61.0209">
        <ele>12.15</ele>
        <time>2016-12-06T18:53:59Z</time>
      </trkpt>
      <trkpt lat="14.16742" lon="-61.02079">
        <ele>13.12</ele>
        <time>2016-12-06T18:54:12Z</time>
      </trkpt>
      <trkpt lat="14.16768" lon="-61.02069">
        <ele>12.63</ele>
        <time>2016-12-06T18:54:26Z</time>
      </trkpt>
      <trkpt lat="14.16795" lon="-61.02061">
        <ele>12.15</ele>
        <time>2016-12-06T18:54:38Z</time>
      </trkpt>
      <trkpt lat="14.16828" lon="-61.02049">
        <ele>12.63</ele>
        <time>2016-12-06T18:54:53Z</time>
      </trkpt>
      <trkpt lat="14.16855" lon="-61.02037">
        <ele>12.15</ele>
        <time>2016-12-06T18:55:06Z</time>
      </trkpt>
      <trkpt lat="14.16883" lon="-61.02026">
        <ele>12.15</ele>
        <time>2016-12-06T18:55:19Z</time>
      </trkpt>
      <trkpt lat="14.16907" lon="-61.02013">
        <ele>11.67</ele>
        <time>2016-12-06T18:55:31Z</time>
      </trkpt>
      <trkpt lat="14.16927" lon="-61.02003">
        <ele>11.19</ele>
        <time>2016-12-06T18:55:42Z</time>
      </trkpt>
      <trkpt lat="14.16953" lon="-61.01994">
        <ele>12.63</ele>
        <time>2016-12-06T18:55:54Z</time>
      </trkpt>
      <trkpt lat="14.16977" lon="-61.01982">
        <ele>11.67</ele>
        <time>2016-12-06T18:56:06Z</time>
      </trkpt>
      <trkpt lat="14.16999" lon="-61.01972">
        <ele>11.67</ele>
        <time>2016-12-06T18:56:18Z</time>
      </trkpt>
      <trkpt lat="14.17004" lon="-61.01971">
        <ele>11.67</ele>
        <time>2016-12-06T18:56:20Z</time>
      </trkpt>
      <trkpt lat="14.17033" lon="-61.01961">
        <ele>11.67</ele>
        <time>2016-12-06T18:56:34Z</time>
      </trkpt>
      <trkpt lat="14.17059" lon="-61.01952">
        <ele>12.15</ele>
        <time>2016-12-06T18:56:47Z</time>
      </trkpt>
      <trkpt lat="14.17086" lon="-61.01941">
        <ele>12.15</ele>
        <time>2016-12-06T18:57:00Z</time>
      </trkpt>
      <trkpt lat="14.17108" lon="-61.01934">
        <ele>12.63</ele>
        <time>2016-12-06T18:57:11Z</time>
      </trkpt>
      <trkpt lat="14.17134" lon="-61.01927">
        <ele>12.63</ele>
        <time>2016-12-06T18:57:23Z</time>
      </trkpt>
      <trkpt lat="14.17166" lon="-61.01916">
        <ele>12.15</ele>
        <time>2016-12-06T18:57:37Z</time>
      </trkpt>
      <trkpt lat="14.1719" lon="-61.01909">
        <ele>12.15</ele>
        <time>2016-12-06T18:57:48Z</time>
      </trkpt>
      <trkpt lat="14.17217" lon="-61.01898">
        <ele>12.15</ele>
        <time>2016-12-06T18:58:00Z</time>
      </trkpt>
      <trkpt lat="14.17247" lon="-61.01887">
        <ele>12.15</ele>
        <time>2016-12-06T18:58:14Z</time>
      </trkpt>
      <trkpt lat="14.17277" lon="-61.01876">
        <ele>12.15</ele>
        <time>2016-12-06T18:58:28Z</time>
      </trkpt>
      <trkpt lat="14.17306" lon="-61.01865">
        <ele>12.15</ele>
        <time>2016-12-06T18:58:41Z</time>
      </trkpt>
      <trkpt lat="14.1733" lon="-61.01855">
        <ele>12.15</ele>
        <time>2016-12-06T18:58:52Z</time>
      </trkpt>
      <trkpt lat="14.17359" lon="-61.01844">
        <ele>12.15</ele>
        <time>2016-12-06T18:59:06Z</time>
      </trkpt>
      <trkpt lat="14.17381" lon="-61.01831">
        <ele>11.67</ele>
        <time>2016-12-06T18:59:18Z</time>
      </trkpt>
      <trkpt lat="14.17401" lon="-61.01822">
        <ele>11.67</ele>
        <time>2016-12-06T18:59:29Z</time>
      </trkpt>
      <trkpt lat="14.17428" lon="-61.01811">
        <ele>12.15</ele>
        <time>2016-12-06T18:59:43Z</time>
      </trkpt>
      <trkpt lat="14.17455" lon="-61.018">
        <ele>12.15</ele>
        <time>2016-12-06T18:59:56Z</time>
      </trkpt>
      <trkpt lat="14.17487" lon="-61.01787">
        <ele>12.15</ele>
        <time>2016-12-06T19:00:11Z</time>
      </trkpt>
      <trkpt lat="14.17514" lon="-61.01778">
        <ele>12.15</ele>
        <time>2016-12-06T19:00:23Z</time>
      </trkpt>
      <trkpt lat="14.17539" lon="-61.01766">
        <ele>12.63</ele>
        <time>2016-12-06T19:00:36Z</time>
      </trkpt>
      <trkpt lat="14.17555" lon="-61.01761">
        <ele>11.67</ele>
        <time>2016-12-06T19:00:44Z</time>
      </trkpt>
      <trkpt lat="14.17565" lon="-61.01758">
        <ele>11.67</ele>
        <time>2016-12-06T19:00:49Z</time>
      </trkpt>
      <trkpt lat="14.17593" lon="-61.01747">
        <ele>11.67</ele>
        <time>2016-12-06T19:01:03Z</time>
      </trkpt>
      <trkpt lat="14.17608" lon="-61.01739">
        <ele>13.12</ele>
        <time>2016-12-06T19:01:12Z</time>
      </trkpt>
      <trkpt lat="14.17638" lon="-61.01726">
        <ele>13.12</ele>
        <time>2016-12-06T19:01:27Z</time>
      </trkpt>
      <trkpt lat="14.17645" lon="-61.01723">
        <ele>12.63</ele>
        <time>2016-12-06T19:01:31Z</time>
      </trkpt>
      <trkpt lat="14.17673" lon="-61.01713">
        <ele>12.63</ele>
        <time>2016-12-06T19:01:45Z</time>
      </trkpt>
      <trkpt lat="14.17682" lon="-61.01709">
        <ele>13.12</ele>
        <time>2016-12-06T19:01:50Z</time>
      </trkpt>
      <trkpt lat="14.17706" lon="-61.01698">
        <ele>13.6</ele>
        <time>2016-12-06T19:02:03Z</time>
      </trkpt>
      <trkpt lat="14.17733" lon="-61.01686">
        <ele>14.08</ele>
        <time>2016-12-06T19:02:17Z</time>
      </trkpt>
      <trkpt lat="14.17761" lon="-61.01674">
        <ele>14.08</ele>
        <time>2016-12-06T19:02:30Z</time>
      </trkpt>
      <trkpt lat="14.17794" lon="-61.01661">
        <ele>11.67</ele>
        <time>2016-12-06T19:02:46Z</time>
      </trkpt>
      <trkpt lat="14.17825" lon="-61.01647">
        <ele>9.75</ele>
        <time>2016-12-06T19:03:01Z</time>
      </trkpt>
      <trkpt lat="14.1785" lon="-61.01636">
        <ele>11.67</ele>
        <time>2016-12-06T19:03:13Z</time>
      </trkpt>
      <trkpt lat="14.1788" lon="-61.01623">
        <ele>13.12</ele>
        <time>2016-12-06T19:03:28Z</time>
      </trkpt>
      <trkpt lat="14.17908" lon="-61.0161">
        <ele>12.63</ele>
        <time>2016-12-06T19:03:42Z</time>
      </trkpt>
      <trkpt lat="14.17932" lon="-61.01598">
        <ele>12.15</ele>
        <time>2016-12-06T19:03:54Z</time>
      </trkpt>
      <trkpt lat="14.1794" lon="-61.01595">
        <ele>12.15</ele>
        <time>2016-12-06T19:03:58Z</time>
      </trkpt>
      <trkpt lat="14.17962" lon="-61.01585">
        <ele>12.63</ele>
        <time>2016-12-06T19:04:10Z</time>
      </trkpt>
      <trkpt lat="14.1799" lon="-61.01575">
        <ele>12.63</ele>
        <time>2016-12-06T19:04:23Z</time>
      </trkpt>
      <trkpt lat="14.18023" lon="-61.01563">
        <ele>11.67</ele>
        <time>2016-12-06T19:04:38Z</time>
      </trkpt>
      <trkpt lat="14.18043" lon="-61.01555">
        <ele>12.15</ele>
        <time>2016-12-06T19:04:48Z</time>
      </trkpt>
      <trkpt lat="14.1805" lon="-61.01553">
        <ele>13.12</ele>
        <time>2016-12-06T19:04:52Z</time>
      </trkpt>
      <trkpt lat="14.18078" lon="-61.01541">
        <ele>12.63</ele>
        <time>2016-12-06T19:05:06Z</time>
      </trkpt>
      <trkpt lat="14.18099" lon="-61.01533">
        <ele>13.12</ele>
        <time>2016-12-06T19:05:17Z</time>
      </trkpt>
      <trkpt lat="14.18129" lon="-61.0152">
        <ele>14.08</ele>
        <time>2016-12-06T19:05:32Z</time>
      </trkpt>
      <trkpt lat="14.18152" lon="-61.01509">
        <ele>13.6</ele>
        <time>2016-12-06T19:05:44Z</time>
      </trkpt>
      <trkpt lat="14.18175" lon="-61.015">
        <ele>13.12</ele>
        <time>2016-12-06T19:05:54Z</time>
      </trkpt>
      <trkpt lat="14.18198" lon="-61.01494">
        <ele>13.6</ele>
        <time>2016-12-06T19:06:06Z</time>
      </trkpt>
      <trkpt lat="14.18222" lon="-61.01483">
        <ele>11.67</ele>
        <time>2016-12-06T19:06:19Z</time>
      </trkpt>
      <trkpt lat="14.18247" lon="-61.01471">
        <ele>10.23</ele>
        <time>2016-12-06T19:06:32Z</time>
      </trkpt>
      <trkpt lat="14.18275" lon="-61.01461">
        <ele>11.19</ele>
        <time>2016-12-06T19:06:45Z</time>
      </trkpt>
      <trkpt lat="14.18306" lon="-61.01447">
        <ele>11.19</ele>
        <time>2016-12-06T19:07:00Z</time>
      </trkpt>
      <trkpt lat="14.18327" lon="-61.01438">
        <ele>12.63</ele>
        <time>2016-12-06T19:07:10Z</time>
      </trkpt>
      <trkpt lat="14.18354" lon="-61.01426">
        <ele>13.6</ele>
        <time>2016-12-06T19:07:23Z</time>
      </trkpt>
      <trkpt lat="14.18389" lon="-61.01411">
        <ele>13.6</ele>
        <time>2016-12-06T19:07:39Z</time>
      </trkpt>
      <trkpt lat="14.18411" lon="-61.01403">
        <ele>12.63</ele>
        <time>2016-12-06T19:07:50Z</time>
      </trkpt>
      <trkpt lat="14.18433" lon="-61.01393">
        <ele>14.08</ele>
        <time>2016-12-06T19:08:01Z</time>
      </trkpt>
      <trkpt lat="14.18461" lon="-61.0138">
        <ele>12.63</ele>
        <time>2016-12-06T19:08:14Z</time>
      </trkpt>
      <trkpt lat="14.18493" lon="-61.01366">
        <ele>12.63</ele>
        <time>2016-12-06T19:08:29Z</time>
      </trkpt>
      <trkpt lat="14.18524" lon="-61.01355">
        <ele>13.12</ele>
        <time>2016-12-06T19:08:44Z</time>
      </trkpt>
      <trkpt lat="14.18548" lon="-61.01343">
        <ele>12.63</ele>
        <time>2016-12-06T19:08:56Z</time>
      </trkpt>
      <trkpt lat="14.18576" lon="-61.01331">
        <ele>12.15</ele>
        <time>2016-12-06T19:09:09Z</time>
      </trkpt>
      <trkpt lat="14.18606" lon="-61.01319">
        <ele>12.15</ele>
        <time>2016-12-06T19:09:23Z</time>
      </trkpt>
      <trkpt lat="14.18635" lon="-61.01308">
        <ele>10.71</ele>
        <time>2016-12-06T19:09:36Z</time>
      </trkpt>
      <trkpt lat="14.18659" lon="-61.01299">
        <ele>12.15</ele>
        <time>2016-12-06T19:09:48Z</time>
      </trkpt>
      <trkpt lat="14.18687" lon="-61.01288">
        <ele>12.63</ele>
        <time>2016-12-06T19:10:01Z</time>
      </trkpt>
      <trkpt lat="14.18719" lon="-61.01273">
        <ele>12.63</ele>
        <time>2016-12-06T19:10:16Z</time>
      </trkpt>
      <trkpt lat="14.18744" lon="-61.01264">
        <ele>10.71</ele>
        <time>2016-12-06T19:10:28Z</time>
      </trkpt>
      <trkpt lat="14.18773" lon="-61.0125">
        <ele>11.19</ele>
        <time>2016-12-06T19:10:43Z</time>
      </trkpt>
      <trkpt lat="14.18802" lon="-61.01238">
        <ele>11.67</ele>
        <time>2016-12-06T19:10:57Z</time>
      </trkpt>
      <trkpt lat="14.18832" lon="-61.01228">
        <ele>14.08</ele>
        <time>2016-12-06T19:11:11Z</time>
      </trkpt>
      <trkpt lat="14.18859" lon="-61.01217">
        <ele>14.56</ele>
        <time>2016-12-06T19:11:24Z</time>
      </trkpt>
      <trkpt lat="14.18886" lon="-61.01205">
        <ele>14.08</ele>
        <time>2016-12-06T19:11:37Z</time>
      </trkpt>
      <trkpt lat="14.18916" lon="-61.01192">
        <ele>13.6</ele>
        <time>2016-12-06T19:11:51Z</time>
      </trkpt>
      <trkpt lat="14.1894" lon="-61.01181">
        <ele>13.6</ele>
        <time>2016-12-06T19:12:04Z</time>
      </trkpt>
      <trkpt lat="14.18974" lon="-61.01167">
        <ele>12.63</ele>
        <time>2016-12-06T19:12:19Z</time>
      </trkpt>
      <trkpt lat="14.19003" lon="-61.01154">
        <ele>11.67</ele>
        <time>2016-12-06T19:12:33Z</time>
      </trkpt>
      <trkpt lat="14.19027" lon="-61.01143">
        <ele>10.71</ele>
        <time>2016-12-06T19:12:45Z</time>
      </trkpt>
      <trkpt lat="14.1906" lon="-61.01129">
        <ele>10.71</ele>
        <time>2016-12-06T19:13:00Z</time>
      </trkpt>
      <trkpt lat="14.19092" lon="-61.01116">
        <ele>12.15</ele>
        <time>2016-12-06T19:13:16Z</time>
      </trkpt>
      <trkpt lat="14.19121" lon="-61.01104">
        <ele>10.71</ele>
        <time>2016-12-06T19:13:30Z</time>
      </trkpt>
      <trkpt lat="14.19152" lon="-61.01091">
        <ele>10.23</ele>
        <time>2016-12-06T19:13:45Z</time>
      </trkpt>
      <trkpt lat="14.19188" lon="-61.01076">
        <ele>9.75</ele>
        <time>2016-12-06T19:14:01Z</time>
      </trkpt>
      <trkpt lat="14.19218" lon="-61.01064">
        <ele>9.75</ele>
        <time>2016-12-06T19:14:16Z</time>
      </trkpt>
      <trkpt lat="14.19245" lon="-61.01052">
        <ele>10.71</ele>
        <time>2016-12-06T19:14:29Z</time>
      </trkpt>
      <trkpt lat="14.19275" lon="-61.0104">
        <ele>10.23</ele>
        <time>2016-12-06T19:14:43Z</time>
      </trkpt>
      <trkpt lat="14.19302" lon="-61.01031">
        <ele>10.23</ele>
        <time>2016-12-06T19:14:55Z</time>
      </trkpt>
      <trkpt lat="14.19333" lon="-61.01018">
        <ele>10.23</ele>
        <time>2016-12-06T19:15:09Z</time>
      </trkpt>
      <trkpt lat="14.19356" lon="-61.01006">
        <ele>11.19</ele>
        <time>2016-12-06T19:15:21Z</time>
      </trkpt>
      <trkpt lat="14.19381" lon="-61.00995">
        <ele>12.15</ele>
        <time>2016-12-06T19:15:35Z</time>
      </trkpt>
      <trkpt lat="14.19406" lon="-61.00986">
        <ele>13.6</ele>
        <time>2016-12-06T19:15:47Z</time>
      </trkpt>
      <trkpt lat="14.19435" lon="-61.00977">
        <ele>14.56</ele>
        <time>2016-12-06T19:16:01Z</time>
      </trkpt>
      <trkpt lat="14.19463" lon="-61.00968">
        <ele>14.56</ele>
        <time>2016-12-06T19:16:13Z</time>
      </trkpt>
      <trkpt lat="14.19493" lon="-61.00958">
        <ele>15.04</ele>
        <time>2016-12-06T19:16:26Z</time>
      </trkpt>
      <trkpt lat="14.19523" lon="-61.00945">
        <ele>13.6</ele>
        <time>2016-12-06T19:16:39Z</time>
      </trkpt>
      <trkpt lat="14.19549" lon="-61.00937">
        <ele>15.52</ele>
        <time>2016-12-06T19:16:52Z</time>
      </trkpt>
      <trkpt lat="14.19571" lon="-61.00927">
        <ele>16</ele>
        <time>2016-12-06T19:17:03Z</time>
      </trkpt>
      <trkpt lat="14.19595" lon="-61.00916">
        <ele>14.08</ele>
        <time>2016-12-06T19:17:15Z</time>
      </trkpt>
      <trkpt lat="14.19625" lon="-61.00904">
        <ele>13.12</ele>
        <time>2016-12-06T19:17:30Z</time>
      </trkpt>
      <trkpt lat="14.19657" lon="-61.00897">
        <ele>13.12</ele>
        <time>2016-12-06T19:17:43Z</time>
      </trkpt>
      <trkpt lat="14.1969" lon="-61.00885">
        <ele>13.12</ele>
        <time>2016-12-06T19:17:57Z</time>
      </trkpt>
      <trkpt lat="14.19716" lon="-61.00877">
        <ele>13.6</ele>
        <time>2016-12-06T19:18:09Z</time>
      </trkpt>
      <trkpt lat="14.19747" lon="-61.00868">
        <ele>13.6</ele>
        <time>2016-12-06T19:18:22Z</time>
      </trkpt>
      <trkpt lat="14.19774" lon="-61.00858">
        <ele>14.08</ele>
        <time>2016-12-06T19:18:34Z</time>
      </trkpt>
      <trkpt lat="14.19801" lon="-61.00847">
        <ele>13.6</ele>
        <time>2016-12-06T19:18:47Z</time>
      </trkpt>
      <trkpt lat="14.1983" lon="-61.00835">
        <ele>12.15</ele>
        <time>2016-12-06T19:19:01Z</time>
      </trkpt>
      <trkpt lat="14.19861" lon="-61.00823">
        <ele>12.63</ele>
        <time>2016-12-06T19:19:15Z</time>
      </trkpt>
      <trkpt lat="14.19888" lon="-61.00814">
        <ele>12.15</ele>
        <time>2016-12-06T19:19:27Z</time>
      </trkpt>
      <trkpt lat="14.19921" lon="-61.00804">
        <ele>13.12</ele>
        <time>2016-12-06T19:19:40Z</time>
      </trkpt>
      <trkpt lat="14.19961" lon="-61.00791">
        <ele>13.12</ele>
        <time>2016-12-06T19:19:57Z</time>
      </trkpt>
      <trkpt lat="14.19994" lon="-61.00778">
        <ele>13.6</ele>
        <time>2016-12-06T19:20:11Z</time>
      </trkpt>
      <trkpt lat="14.20031" lon="-61.00764">
        <ele>13.6</ele>
        <time>2016-12-06T19:20:26Z</time>
      </trkpt>
      <trkpt lat="14.20059" lon="-61.00752">
        <ele>12.63</ele>
        <time>2016-12-06T19:20:38Z</time>
      </trkpt>
      <trkpt lat="14.2009" lon="-61.0074">
        <ele>14.08</ele>
        <time>2016-12-06T19:20:53Z</time>
      </trkpt>
      <trkpt lat="14.20113" lon="-61.00732">
        <ele>14.56</ele>
        <time>2016-12-06T19:21:04Z</time>
      </trkpt>
      <trkpt lat="14.20141" lon="-61.00723">
        <ele>12.15</ele>
        <time>2016-12-06T19:21:16Z</time>
      </trkpt>
      <trkpt lat="14.2017" lon="-61.00712">
        <ele>13.12</ele>
        <time>2016-12-06T19:21:29Z</time>
      </trkpt>
      <trkpt lat="14.202" lon="-61.007">
        <ele>14.56</ele>
        <time>2016-12-06T19:21:43Z</time>
      </trkpt>
      <trkpt lat="14.20229" lon="-61.00687">
        <ele>14.08</ele>
        <time>2016-12-06T19:21:56Z</time>
      </trkpt>
      <trkpt lat="14.20262" lon="-61.00672">
        <ele>13.6</ele>
        <time>2016-12-06T19:22:11Z</time>
      </trkpt>
      <trkpt lat="14.20293" lon="-61.00661">
        <ele>13.6</ele>
        <time>2016-12-06T19:22:26Z</time>
      </trkpt>
      <trkpt lat="14.20323" lon="-61.0065">
        <ele>13.12</ele>
        <time>2016-12-06T19:22:39Z</time>
      </trkpt>
      <trkpt lat="14.2035" lon="-61.0064">
        <ele>15.04</ele>
        <time>2016-12-06T19:22:52Z</time>
      </trkpt>
      <trkpt lat="14.20374" lon="-61.00629">
        <ele>14.08</ele>
        <time>2016-12-06T19:23:04Z</time>
      </trkpt>
      <trkpt lat="14.20403" lon="-61.00618">
        <ele>13.12</ele>
        <time>2016-12-06T19:23:17Z</time>
      </trkpt>
      <trkpt lat="14.20432" lon="-61.00607">
        <ele>13.12</ele>
        <time>2016-12-06T19:23:30Z</time>
      </trkpt>
      <trkpt lat="14.20457" lon="-61.00594">
        <ele>13.12</ele>
        <time>2016-12-06T19:23:41Z</time>
      </trkpt>
      <trkpt lat="14.20491" lon="-61.00579">
        <ele>13.12</ele>
        <time>2016-12-06T19:23:57Z</time>
      </trkpt>
      <trkpt lat="14.20523" lon="-61.00567">
        <ele>12.63</ele>
        <time>2016-12-06T19:24:11Z</time>
      </trkpt>
      <trkpt lat="14.20556" lon="-61.00555">
        <ele>12.63</ele>
        <time>2016-12-06T19:24:25Z</time>
      </trkpt>
      <trkpt lat="14.20588" lon="-61.00545">
        <ele>13.6</ele>
        <time>2016-12-06T19:24:39Z</time>
      </trkpt>
      <trkpt lat="14.20618" lon="-61.00534">
        <ele>13.6</ele>
        <time>2016-12-06T19:24:52Z</time>
      </trkpt>
      <trkpt lat="14.20651" lon="-61.0052">
        <ele>12.63</ele>
        <time>2016-12-06T19:25:07Z</time>
      </trkpt>
      <trkpt lat="14.20675" lon="-61.00508">
        <ele>12.15</ele>
        <time>2016-12-06T19:25:18Z</time>
      </trkpt>
      <trkpt lat="14.20709" lon="-61.00496">
        <ele>12.15</ele>
        <time>2016-12-06T19:25:32Z</time>
      </trkpt>
      <trkpt lat="14.20735" lon="-61.00486">
        <ele>12.15</ele>
        <time>2016-12-06T19:25:43Z</time>
      </trkpt>
      <trkpt lat="14.20759" lon="-61.00475">
        <ele>11.67</ele>
        <time>2016-12-06T19:25:54Z</time>
      </trkpt>
      <trkpt lat="14.2079" lon="-61.00463">
        <ele>11.19</ele>
        <time>2016-12-06T19:26:08Z</time>
      </trkpt>
      <trkpt lat="14.20817" lon="-61.00451">
        <ele>11.19</ele>
        <time>2016-12-06T19:26:21Z</time>
      </trkpt>
      <trkpt lat="14.20848" lon="-61.00437">
        <ele>11.19</ele>
        <time>2016-12-06T19:26:36Z</time>
      </trkpt>
      <trkpt lat="14.20875" lon="-61.00424">
        <ele>11.19</ele>
        <time>2016-12-06T19:26:49Z</time>
      </trkpt>
      <trkpt lat="14.20902" lon="-61.00416">
        <ele>11.67</ele>
        <time>2016-12-06T19:27:01Z</time>
      </trkpt>
      <trkpt lat="14.20928" lon="-61.00408">
        <ele>11.67</ele>
        <time>2016-12-06T19:27:13Z</time>
      </trkpt>
      <trkpt lat="14.20943" lon="-61.00402">
        <ele>12.15</ele>
        <time>2016-12-06T19:27:20Z</time>
      </trkpt>
      <trkpt lat="14.20974" lon="-61.0039">
        <ele>13.12</ele>
        <time>2016-12-06T19:27:34Z</time>
      </trkpt>
      <trkpt lat="14.21008" lon="-61.00377">
        <ele>12.63</ele>
        <time>2016-12-06T19:27:50Z</time>
      </trkpt>
      <trkpt lat="14.21035" lon="-61.00364">
        <ele>11.19</ele>
        <time>2016-12-06T19:28:03Z</time>
      </trkpt>
      <trkpt lat="14.21062" lon="-61.00352">
        <ele>11.67</ele>
        <time>2016-12-06T19:28:15Z</time>
      </trkpt>
      <trkpt lat="14.21088" lon="-61.00342">
        <ele>11.67</ele>
        <time>2016-12-06T19:28:27Z</time>
      </trkpt>
      <trkpt lat="14.21111" lon="-61.00334">
        <ele>12.15</ele>
        <time>2016-12-06T19:28:37Z</time>
      </trkpt>
      <trkpt lat="14.21134" lon="-61.00324">
        <ele>12.15</ele>
        <time>2016-12-06T19:28:47Z</time>
      </trkpt>
      <trkpt lat="14.21168" lon="-61.0031">
        <ele>11.67</ele>
        <time>2016-12-06T19:29:01Z</time>
      </trkpt>
      <trkpt lat="14.21194" lon="-61.003">
        <ele>12.15</ele>
        <time>2016-12-06T19:29:12Z</time>
      </trkpt>
      <trkpt lat="14.21217" lon="-61.00291">
        <ele>11.19</ele>
        <time>2016-12-06T19:29:23Z</time>
      </trkpt>
      <trkpt lat="14.21248" lon="-61.00278">
        <ele>11.67</ele>
        <time>2016-12-06T19:29:38Z</time>
      </trkpt>
      <trkpt lat="14.2127" lon="-61.00268">
        <ele>12.15</ele>
        <time>2016-12-06T19:29:49Z</time>
      </trkpt>
      <trkpt lat="14.213" lon="-61.00255">
        <ele>12.63</ele>
        <time>2016-12-06T19:30:03Z</time>
      </trkpt>
      <trkpt lat="14.21325" lon="-61.00244">
        <ele>13.12</ele>
        <time>2016-12-06T19:30:15Z</time>
      </trkpt>
      <trkpt lat="14.21354" lon="-61.0023">
        <ele>12.63</ele>
        <time>2016-12-06T19:30:28Z</time>
      </trkpt>
      <trkpt lat="14.21384" lon="-61.00214">
        <ele>11.67</ele>
        <time>2016-12-06T19:30:42Z</time>
      </trkpt>
      <trkpt lat="14.21412" lon="-61.00203">
        <ele>13.12</ele>
        <time>2016-12-06T19:30:55Z</time>
      </trkpt>
      <trkpt lat="14.21438" lon="-61.00193">
        <ele>13.12</ele>
        <time>2016-12-06T19:31:07Z</time>
      </trkpt>
      <trkpt lat="14.21462" lon="-61.00182">
        <ele>13.6</ele>
        <time>2016-12-06T19:31:18Z</time>
      </trkpt>
      <trkpt lat="14.21491" lon="-61.00173">
        <ele>13.6</ele>
        <time>2016-12-06T19:31:30Z</time>
      </trkpt>
      <trkpt lat="14.21518" lon="-61.00163">
        <ele>13.12</ele>
        <time>2016-12-06T19:31:42Z</time>
      </trkpt>
      <trkpt lat="14.21552" lon="-61.0015">
        <ele>13.6</ele>
        <time>2016-12-06T19:31:56Z</time>
      </trkpt>
      <trkpt lat="14.21576" lon="-61.00141">
        <ele>13.6</ele>
        <time>2016-12-06T19:32:06Z</time>
      </trkpt>
      <trkpt lat="14.21606" lon="-61.00127">
        <ele>13.12</ele>
        <time>2016-12-06T19:32:19Z</time>
      </trkpt>
      <trkpt lat="14.21628" lon="-61.00117">
        <ele>12.15</ele>
        <time>2016-12-06T19:32:29Z</time>
      </trkpt>
      <trkpt lat="14.21666" lon="-61.00101">
        <ele>13.12</ele>
        <time>2016-12-06T19:32:45Z</time>
      </trkpt>
      <trkpt lat="14.21695" lon="-61.0009">
        <ele>13.12</ele>
        <time>2016-12-06T19:32:58Z</time>
      </trkpt>
      <trkpt lat="14.21728" lon="-61.0008">
        <ele>13.6</ele>
        <time>2016-12-06T19:33:12Z</time>
      </trkpt>
      <trkpt lat="14.21748" lon="-61.00073">
        <ele>13.6</ele>
        <time>2016-12-06T19:33:21Z</time>
      </trkpt>
      <trkpt lat="14.2177" lon="-61.00061">
        <ele>13.6</ele>
        <time>2016-12-06T19:33:32Z</time>
      </trkpt>
      <trkpt lat="14.21783" lon="-61.00053">
        <ele>12.15</ele>
        <time>2016-12-06T19:33:39Z</time>
      </trkpt>
      <trkpt lat="14.2179" lon="-61.00049">
        <ele>12.63</ele>
        <time>2016-12-06T19:33:43Z</time>
      </trkpt>
      <trkpt lat="14.21804" lon="-61.00045">
        <ele>12.63</ele>
        <time>2016-12-06T19:33:50Z</time>
      </trkpt>
      <trkpt lat="14.21835" lon="-61.00033">
        <ele>12.63</ele>
        <time>2016-12-06T19:34:04Z</time>
      </trkpt>
      <trkpt lat="14.21854" lon="-61.00027">
        <ele>12.63</ele>
        <time>2016-12-06T19:34:13Z</time>
      </trkpt>
      <trkpt lat="14.2188" lon="-61.00017">
        <ele>13.12</ele>
        <time>2016-12-06T19:34:25Z</time>
      </trkpt>
      <trkpt lat="14.21905" lon="-61.00007">
        <ele>13.12</ele>
        <time>2016-12-06T19:34:36Z</time>
      </trkpt>
      <trkpt lat="14.21909" lon="-61.00006">
        <ele>13.6</ele>
        <time>2016-12-06T19:34:38Z</time>
      </trkpt>
      <trkpt lat="14.21936" lon="-60.99993">
        <ele>13.6</ele>
        <time>2016-12-06T19:34:51Z</time>
      </trkpt>
      <trkpt lat="14.21952" lon="-60.99985">
        <ele>12.63</ele>
        <time>2016-12-06T19:35:00Z</time>
      </trkpt>
      <trkpt lat="14.21972" lon="-60.99976">
        <ele>12.63</ele>
        <time>2016-12-06T19:35:11Z</time>
      </trkpt>
      <trkpt lat="14.22007" lon="-60.99963">
        <ele>12.63</ele>
        <time>2016-12-06T19:35:26Z</time>
      </trkpt>
      <trkpt lat="14.22033" lon="-60.99954">
        <ele>13.12</ele>
        <time>2016-12-06T19:35:37Z</time>
      </trkpt>
      <trkpt lat="14.22035" lon="-60.99953">
        <ele>13.6</ele>
        <time>2016-12-06T19:35:38Z</time>
      </trkpt>
      <trkpt lat="14.22047" lon="-60.9995">
        <ele>13.6</ele>
        <time>2016-12-06T19:35:43Z</time>
      </trkpt>
      <trkpt lat="14.22076" lon="-60.9994">
        <ele>12.63</ele>
        <time>2016-12-06T19:35:56Z</time>
      </trkpt>
      <trkpt lat="14.22098" lon="-60.99933">
        <ele>13.12</ele>
        <time>2016-12-06T19:36:06Z</time>
      </trkpt>
      <trkpt lat="14.22129" lon="-60.99922">
        <ele>13.6</ele>
        <time>2016-12-06T19:36:19Z</time>
      </trkpt>
      <trkpt lat="14.22158" lon="-60.9991">
        <ele>13.12</ele>
        <time>2016-12-06T19:36:31Z</time>
      </trkpt>
      <trkpt lat="14.22189" lon="-60.999">
        <ele>12.63</ele>
        <time>2016-12-06T19:36:44Z</time>
      </trkpt>
      <trkpt lat="14.22225" lon="-60.99887">
        <ele>12.63</ele>
        <time>2016-12-06T19:36:58Z</time>
      </trkpt>
      <trkpt lat="14.22255" lon="-60.99875">
        <ele>11.67</ele>
        <time>2016-12-06T19:37:11Z</time>
      </trkpt>
      <trkpt lat="14.22288" lon="-60.99861">
        <ele>12.15</ele>
        <time>2016-12-06T19:37:25Z</time>
      </trkpt>
      <trkpt lat="14.22323" lon="-60.99846">
        <ele>12.15</ele>
        <time>2016-12-06T19:37:40Z</time>
      </trkpt>
      <trkpt lat="14.22363" lon="-60.99828">
        <ele>12.63</ele>
        <time>2016-12-06T19:37:57Z</time>
      </trkpt>
      <trkpt lat="14.22384" lon="-60.99819">
        <ele>12.63</ele>
        <time>2016-12-06T19:38:07Z</time>
      </trkpt>
      <trkpt lat="14.22409" lon="-60.9981">
        <ele>13.12</ele>
        <time>2016-12-06T19:38:19Z</time>
      </trkpt>
      <trkpt lat="14.2243" lon="-60.99799">
        <ele>12.15</ele>
        <time>2016-12-06T19:38:30Z</time>
      </trkpt>
      <trkpt lat="14.22458" lon="-60.99789">
        <ele>12.15</ele>
        <time>2016-12-06T19:38:43Z</time>
      </trkpt>
      <trkpt lat="14.22479" lon="-60.99781">
        <ele>12.15</ele>
        <time>2016-12-06T19:38:53Z</time>
      </trkpt>
      <trkpt lat="14.22485" lon="-60.99778">
        <ele>11.67</ele>
        <time>2016-12-06T19:38:56Z</time>
      </trkpt>
      <trkpt lat="14.22493" lon="-60.99775">
        <ele>11.67</ele>
        <time>2016-12-06T19:39:00Z</time>
      </trkpt>
      <trkpt lat="14.2252" lon="-60.99768">
        <ele>10.71</ele>
        <time>2016-12-06T19:39:13Z</time>
      </trkpt>
      <trkpt lat="14.22555" lon="-60.99753">
        <ele>10.23</ele>
        <time>2016-12-06T19:39:30Z</time>
      </trkpt>
      <trkpt lat="14.2258" lon="-60.99742">
        <ele>10.23</ele>
        <time>2016-12-06T19:39:42Z</time>
      </trkpt>
      <trkpt lat="14.22591" lon="-60.99739">
        <ele>10.23</ele>
        <time>2016-12-06T19:39:48Z</time>
      </trkpt>
      <trkpt lat="14.22613" lon="-60.9973">
        <ele>11.67</ele>
        <time>2016-12-06T19:40:00Z</time>
      </trkpt>
      <trkpt lat="14.22641" lon="-60.99719">
        <ele>11.19</ele>
        <time>2016-12-06T19:40:14Z</time>
      </trkpt>
      <trkpt lat="14.22666" lon="-60.99711">
        <ele>11.19</ele>
        <time>2016-12-06T19:40:25Z</time>
      </trkpt>
      <trkpt lat="14.22697" lon="-60.997">
        <ele>10.71</ele>
        <time>2016-12-06T19:40:39Z</time>
      </trkpt>
      <trkpt lat="14.22702" lon="-60.99698">
        <ele>10.71</ele>
        <time>2016-12-06T19:40:41Z</time>
      </trkpt>
      <trkpt lat="14.22715" lon="-60.99693">
        <ele>11.19</ele>
        <time>2016-12-06T19:40:47Z</time>
      </trkpt>
      <trkpt lat="14.22748" lon="-60.99678">
        <ele>10.23</ele>
        <time>2016-12-06T19:41:02Z</time>
      </trkpt>
      <trkpt lat="14.22779" lon="-60.99665">
        <ele>9.75</ele>
        <time>2016-12-06T19:41:15Z</time>
      </trkpt>
      <trkpt lat="14.22815" lon="-60.99652">
        <ele>10.71</ele>
        <time>2016-12-06T19:41:29Z</time>
      </trkpt>
      <trkpt lat="14.22857" lon="-60.99635">
        <ele>10.23</ele>
        <time>2016-12-06T19:41:45Z</time>
      </trkpt>
      <trkpt lat="14.22891" lon="-60.99618">
        <ele>9.75</ele>
        <time>2016-12-06T19:42:00Z</time>
      </trkpt>
      <trkpt lat="14.22925" lon="-60.99601">
        <ele>9.27</ele>
        <time>2016-12-06T19:42:15Z</time>
      </trkpt>
      <trkpt lat="14.22965" lon="-60.99582">
        <ele>9.75</ele>
        <time>2016-12-06T19:42:32Z</time>
      </trkpt>
      <trkpt lat="14.22998" lon="-60.99568">
        <ele>10.23</ele>
        <time>2016-12-06T19:42:46Z</time>
      </trkpt>
      <trkpt lat="14.23025" lon="-60.99558">
        <ele>10.71</ele>
        <time>2016-12-06T19:42:57Z</time>
      </trkpt>
      <trkpt lat="14.2303" lon="-60.99556">
        <ele>10.71</ele>
        <time>2016-12-06T19:42:59Z</time>
      </trkpt>
      <trkpt lat="14.23044" lon="-60.99552">
        <ele>10.71</ele>
        <time>2016-12-06T19:43:05Z</time>
      </trkpt>
      <trkpt lat="14.23057" lon="-60.99547">
        <ele>11.19</ele>
        <time>2016-12-06T19:43:10Z</time>
      </trkpt>
      <trkpt lat="14.23083" lon="-60.9954">
        <ele>12.15</ele>
        <time>2016-12-06T19:43:21Z</time>
      </trkpt>
      <trkpt lat="14.23091" lon="-60.99538">
        <ele>11.67</ele>
        <time>2016-12-06T19:43:24Z</time>
      </trkpt>
      <trkpt lat="14.23118" lon="-60.99528">
        <ele>11.67</ele>
        <time>2016-12-06T19:43:35Z</time>
      </trkpt>
      <trkpt lat="14.23135" lon="-60.99521">
        <ele>11.19</ele>
        <time>2016-12-06T19:43:42Z</time>
      </trkpt>
      <trkpt lat="14.23159" lon="-60.99513">
        <ele>11.19</ele>
        <time>2016-12-06T19:43:53Z</time>
      </trkpt>
      <trkpt lat="14.23161" lon="-60.99512">
        <ele>11.19</ele>
        <time>2016-12-06T19:43:54Z</time>
      </trkpt>
      <trkpt lat="14.23196" lon="-60.99499">
        <ele>10.71</ele>
        <time>2016-12-06T19:44:08Z</time>
      </trkpt>
      <trkpt lat="14.23227" lon="-60.99486">
        <ele>10.71</ele>
        <time>2016-12-06T19:44:21Z</time>
      </trkpt>
      <trkpt lat="14.23246" lon="-60.99477">
        <ele>10.71</ele>
        <time>2016-12-06T19:44:30Z</time>
      </trkpt>
      <trkpt lat="14.23277" lon="-60.99464">
        <ele>10.71</ele>
        <time>2016-12-06T19:44:44Z</time>
      </trkpt>
      <trkpt lat="14.23304" lon="-60.99456">
        <ele>11.19</ele>
        <time>2016-12-06T19:44:55Z</time>
      </trkpt>
      <trkpt lat="14.23334" lon="-60.99445">
        <ele>11.19</ele>
        <time>2016-12-06T19:45:09Z</time>
      </trkpt>
      <trkpt lat="14.23359" lon="-60.99433">
        <ele>10.71</ele>
        <time>2016-12-06T19:45:21Z</time>
      </trkpt>
      <trkpt lat="14.23387" lon="-60.99418">
        <ele>10.71</ele>
        <time>2016-12-06T19:45:34Z</time>
      </trkpt>
      <trkpt lat="14.23421" lon="-60.99406">
        <ele>11.19</ele>
        <time>2016-12-06T19:45:48Z</time>
      </trkpt>
      <trkpt lat="14.23445" lon="-60.99398">
        <ele>10.71</ele>
        <time>2016-12-06T19:45:58Z</time>
      </trkpt>
      <trkpt lat="14.23477" lon="-60.99387">
        <ele>11.19</ele>
        <time>2016-12-06T19:46:11Z</time>
      </trkpt>
      <trkpt lat="14.23501" lon="-60.99376">
        <ele>11.19</ele>
        <time>2016-12-06T19:46:21Z</time>
      </trkpt>
      <trkpt lat="14.23531" lon="-60.99365">
        <ele>11.19</ele>
        <time>2016-12-06T19:46:34Z</time>
      </trkpt>
      <trkpt lat="14.23555" lon="-60.99356">
        <ele>10.71</ele>
        <time>2016-12-06T19:46:45Z</time>
      </trkpt>
      <trkpt lat="14.23585" lon="-60.99346">
        <ele>10.71</ele>
        <time>2016-12-06T19:46:58Z</time>
      </trkpt>
      <trkpt lat="14.2362" lon="-60.99331">
        <ele>10.23</ele>
        <time>2016-12-06T19:47:13Z</time>
      </trkpt>
      <trkpt lat="14.23649" lon="-60.99317">
        <ele>9.27</ele>
        <time>2016-12-06T19:47:26Z</time>
      </trkpt>
      <trkpt lat="14.23672" lon="-60.99308">
        <ele>9.75</ele>
        <time>2016-12-06T19:47:35Z</time>
      </trkpt>
      <trkpt lat="14.23699" lon="-60.993">
        <ele>9.27</ele>
        <time>2016-12-06T19:47:46Z</time>
      </trkpt>
      <trkpt lat="14.23719" lon="-60.99294">
        <ele>9.75</ele>
        <time>2016-12-06T19:47:54Z</time>
      </trkpt>
      <trkpt lat="14.23728" lon="-60.99291">
        <ele>9.75</ele>
        <time>2016-12-06T19:47:58Z</time>
      </trkpt>
      <trkpt lat="14.23765" lon="-60.99276">
        <ele>8.79</ele>
        <time>2016-12-06T19:48:13Z</time>
      </trkpt>
      <trkpt lat="14.23797" lon="-60.99262">
        <ele>8.79</ele>
        <time>2016-12-06T19:48:26Z</time>
      </trkpt>
      <trkpt lat="14.23828" lon="-60.99248">
        <ele>8.79</ele>
        <time>2016-12-06T19:48:39Z</time>
      </trkpt>
      <trkpt lat="14.23857" lon="-60.99236">
        <ele>7.35</ele>
        <time>2016-12-06T19:48:51Z</time>
      </trkpt>
      <trkpt lat="14.23888" lon="-60.99227">
        <ele>7.83</ele>
        <time>2016-12-06T19:49:03Z</time>
      </trkpt>
      <trkpt lat="14.23912" lon="-60.99219">
        <ele>8.31</ele>
        <time>2016-12-06T19:49:14Z</time>
      </trkpt>
      <trkpt lat="14.23943" lon="-60.9921">
        <ele>8.79</ele>
        <time>2016-12-06T19:49:27Z</time>
      </trkpt>
      <trkpt lat="14.23976" lon="-60.992">
        <ele>10.23</ele>
        <time>2016-12-06T19:49:40Z</time>
      </trkpt>
      <trkpt lat="14.24012" lon="-60.99184">
        <ele>10.71</ele>
        <time>2016-12-06T19:49:56Z</time>
      </trkpt>
      <trkpt lat="14.24036" lon="-60.99173">
        <ele>10.71</ele>
        <time>2016-12-06T19:50:07Z</time>
      </trkpt>
      <trkpt lat="14.24064" lon="-60.99161">
        <ele>10.71</ele>
        <time>2016-12-06T19:50:20Z</time>
      </trkpt>
      <trkpt lat="14.24095" lon="-60.99149">
        <ele>11.19</ele>
        <time>2016-12-06T19:50:33Z</time>
      </trkpt>
      <trkpt lat="14.24127" lon="-60.99138">
        <ele>11.19</ele>
        <time>2016-12-06T19:50:46Z</time>
      </trkpt>
      <trkpt lat="14.2416" lon="-60.99127">
        <ele>11.19</ele>
        <time>2016-12-06T19:50:59Z</time>
      </trkpt>
      <trkpt lat="14.24183" lon="-60.99117">
        <ele>10.71</ele>
        <time>2016-12-06T19:51:09Z</time>
      </trkpt>
      <trkpt lat="14.24207" lon="-60.99106">
        <ele>11.19</ele>
        <time>2016-12-06T19:51:20Z</time>
      </trkpt>
      <trkpt lat="14.24235" lon="-60.99095">
        <ele>9.27</ele>
        <time>2016-12-06T19:51:32Z</time>
      </trkpt>
      <trkpt lat="14.24262" lon="-60.99086">
        <ele>9.27</ele>
        <time>2016-12-06T19:51:43Z</time>
      </trkpt>
      <trkpt lat="14.24293" lon="-60.99073">
        <ele>9.75</ele>
        <time>2016-12-06T19:51:56Z</time>
      </trkpt>
      <trkpt lat="14.24309" lon="-60.99067">
        <ele>8.79</ele>
        <time>2016-12-06T19:52:04Z</time>
      </trkpt>
      <trkpt lat="14.24341" lon="-60.99055">
        <ele>8.79</ele>
        <time>2016-12-06T19:52:18Z</time>
      </trkpt>
      <trkpt lat="14.24369" lon="-60.99046">
        <ele>8.31</ele>
        <time>2016-12-06T19:52:29Z</time>
      </trkpt>
      <trkpt lat="14.24399" lon="-60.99035">
        <ele>8.79</ele>
        <time>2016-12-06T19:52:41Z</time>
      </trkpt>
      <trkpt lat="14.24428" lon="-60.99026">
        <ele>9.75</ele>
        <time>2016-12-06T19:52:53Z</time>
      </trkpt>
      <trkpt lat="14.24461" lon="-60.99013">
        <ele>9.27</ele>
        <time>2016-12-06T19:53:06Z</time>
      </trkpt>
      <trkpt lat="14.24494" lon="-60.99001">
        <ele>8.79</ele>
        <time>2016-12-06T19:53:19Z</time>
      </trkpt>
      <trkpt lat="14.24517" lon="-60.98991">
        <ele>8.79</ele>
        <time>2016-12-06T19:53:29Z</time>
      </trkpt>
      <trkpt lat="14.24539" lon="-60.98985">
        <ele>8.79</ele>
        <time>2016-12-06T19:53:39Z</time>
      </trkpt>
      <trkpt lat="14.2457" lon="-60.98973">
        <ele>7.83</ele>
        <time>2016-12-06T19:53:52Z</time>
      </trkpt>
      <trkpt lat="14.24592" lon="-60.98966">
        <ele>8.79</ele>
        <time>2016-12-06T19:54:02Z</time>
      </trkpt>
      <trkpt lat="14.24628" lon="-60.98954">
        <ele>9.27</ele>
        <time>2016-12-06T19:54:16Z</time>
      </trkpt>
      <trkpt lat="14.24654" lon="-60.98944">
        <ele>8.79</ele>
        <time>2016-12-06T19:54:27Z</time>
      </trkpt>
      <trkpt lat="14.24686" lon="-60.98932">
        <ele>10.23</ele>
        <time>2016-12-06T19:54:40Z</time>
      </trkpt>
      <trkpt lat="14.24712" lon="-60.98924">
        <ele>9.75</ele>
        <time>2016-12-06T19:54:51Z</time>
      </trkpt>
      <trkpt lat="14.24737" lon="-60.98916">
        <ele>8.79</ele>
        <time>2016-12-06T19:55:01Z</time>
      </trkpt>
      <trkpt lat="14.24759" lon="-60.98909">
        <ele>8.79</ele>
        <time>2016-12-06T19:55:10Z</time>
      </trkpt>
      <trkpt lat="14.24777" lon="-60.98903">
        <ele>8.79</ele>
        <time>2016-12-06T19:55:18Z</time>
      </trkpt>
      <trkpt lat="14.24807" lon="-60.98892">
        <ele>8.31</ele>
        <time>2016-12-06T19:55:30Z</time>
      </trkpt>
      <trkpt lat="14.24831" lon="-60.98882">
        <ele>9.27</ele>
        <time>2016-12-06T19:55:41Z</time>
      </trkpt>
      <trkpt lat="14.24864" lon="-60.98867">
        <ele>8.31</ele>
        <time>2016-12-06T19:55:55Z</time>
      </trkpt>
      <trkpt lat="14.24889" lon="-60.98856">
        <ele>8.31</ele>
        <time>2016-12-06T19:56:06Z</time>
      </trkpt>
      <trkpt lat="14.24916" lon="-60.98845">
        <ele>8.79</ele>
        <time>2016-12-06T19:56:17Z</time>
      </trkpt>
      <trkpt lat="14.24946" lon="-60.98833">
        <ele>8.79</ele>
        <time>2016-12-06T19:56:29Z</time>
      </trkpt>
      <trkpt lat="14.24974" lon="-60.98822">
        <ele>8.31</ele>
        <time>2016-12-06T19:56:41Z</time>
      </trkpt>
      <trkpt lat="14.25004" lon="-60.98811">
        <ele>7.35</ele>
        <time>2016-12-06T19:56:53Z</time>
      </trkpt>
      <trkpt lat="14.2503" lon="-60.988">
        <ele>7.83</ele>
        <time>2016-12-06T19:57:04Z</time>
      </trkpt>
      <trkpt lat="14.25053" lon="-60.9879">
        <ele>7.83</ele>
        <time>2016-12-06T19:57:14Z</time>
      </trkpt>
      <trkpt lat="14.25088" lon="-60.98776">
        <ele>7.83</ele>
        <time>2016-12-06T19:57:28Z</time>
      </trkpt>
      <trkpt lat="14.25118" lon="-60.98764">
        <ele>7.83</ele>
        <time>2016-12-06T19:57:40Z</time>
      </trkpt>
      <trkpt lat="14.25147" lon="-60.98753">
        <ele>8.31</ele>
        <time>2016-12-06T19:57:52Z</time>
      </trkpt>
      <trkpt lat="14.25173" lon="-60.98742">
        <ele>8.31</ele>
        <time>2016-12-06T19:58:03Z</time>
      </trkpt>
      <trkpt lat="14.25199" lon="-60.98733">
        <ele>8.31</ele>
        <time>2016-12-06T19:58:14Z</time>
      </trkpt>
      <trkpt lat="14.25226" lon="-60.98721">
        <ele>8.31</ele>
        <time>2016-12-06T19:58:25Z</time>
      </trkpt>
      <trkpt lat="14.25255" lon="-60.9871">
        <ele>7.35</ele>
        <time>2016-12-06T19:58:37Z</time>
      </trkpt>
      <trkpt lat="14.25285" lon="-60.98698">
        <ele>6.87</ele>
        <time>2016-12-06T19:58:49Z</time>
      </trkpt>
      <trkpt lat="14.2531" lon="-60.98687">
        <ele>7.83</ele>
        <time>2016-12-06T19:59:00Z</time>
      </trkpt>
      <trkpt lat="14.25337" lon="-60.98674">
        <ele>7.83</ele>
        <time>2016-12-06T19:59:12Z</time>
      </trkpt>
      <trkpt lat="14.25362" lon="-60.98663">
        <ele>7.83</ele>
        <time>2016-12-06T19:59:23Z</time>
      </trkpt>
      <trkpt lat="14.25385" lon="-60.98651">
        <ele>7.35</ele>
        <time>2016-12-06T19:59:34Z</time>
      </trkpt>
      <trkpt lat="14.25414" lon="-60.98641">
        <ele>7.35</ele>
        <time>2016-12-06T19:59:46Z</time>
      </trkpt>
      <trkpt lat="14.25435" lon="-60.98634">
        <ele>7.35</ele>
        <time>2016-12-06T19:59:55Z</time>
      </trkpt>
      <trkpt lat="14.25455" lon="-60.98624">
        <ele>6.39</ele>
        <time>2016-12-06T20:00:04Z</time>
      </trkpt>
      <trkpt lat="14.25486" lon="-60.98612">
        <ele>6.87</ele>
        <time>2016-12-06T20:00:17Z</time>
      </trkpt>
      <trkpt lat="14.25516" lon="-60.98606">
        <ele>7.35</ele>
        <time>2016-12-06T20:00:28Z</time>
      </trkpt>
      <trkpt lat="14.25555" lon="-60.98593">
        <ele>8.31</ele>
        <time>2016-12-06T20:00:43Z</time>
      </trkpt>
      <trkpt lat="14.2558" lon="-60.98583">
        <ele>8.31</ele>
        <time>2016-12-06T20:00:54Z</time>
      </trkpt>
      <trkpt lat="14.25607" lon="-60.98571">
        <ele>7.35</ele>
        <time>2016-12-06T20:01:06Z</time>
      </trkpt>
      <trkpt lat="14.25629" lon="-60.9856">
        <ele>7.83</ele>
        <time>2016-12-06T20:01:16Z</time>
      </trkpt>
      <trkpt lat="14.25656" lon="-60.98549">
        <ele>6.87</ele>
        <time>2016-12-06T20:01:28Z</time>
      </trkpt>
      <trkpt lat="14.25687" lon="-60.98535">
        <ele>6.39</ele>
        <time>2016-12-06T20:01:41Z</time>
      </trkpt>
      <trkpt lat="14.2571" lon="-60.98528">
        <ele>6.87</ele>
        <time>2016-12-06T20:01:50Z</time>
      </trkpt>
      <trkpt lat="14.25729" lon="-60.98523">
        <ele>6.87</ele>
        <time>2016-12-06T20:01:58Z</time>
      </trkpt>
      <trkpt lat="14.25762" lon="-60.98511">
        <ele>6.39</ele>
        <time>2016-12-06T20:02:11Z</time>
      </trkpt>
      <trkpt lat="14.25791" lon="-60.98498">
        <ele>6.39</ele>
        <time>2016-12-06T20:02:23Z</time>
      </trkpt>
      <trkpt lat="14.2582" lon="-60.98485">
        <ele>6.87</ele>
        <time>2016-12-06T20:02:36Z</time>
      </trkpt>
      <trkpt lat="14.25844" lon="-60.98473">
        <ele>7.35</ele>
        <time>2016-12-06T20:02:47Z</time>
      </trkpt>
      <trkpt lat="14.2587" lon="-60.98462">
        <ele>7.35</ele>
        <time>2016-12-06T20:02:58Z</time>
      </trkpt>
      <trkpt lat="14.25899" lon="-60.98452">
        <ele>7.83</ele>
        <time>2016-12-06T20:03:10Z</time>
      </trkpt>
      <trkpt lat="14.25931" lon="-60.9844">
        <ele>7.35</ele>
        <time>2016-12-06T20:03:23Z</time>
      </trkpt>
      <trkpt lat="14.25952" lon="-60.98431">
        <ele>8.31</ele>
        <time>2016-12-06T20:03:32Z</time>
      </trkpt>
      <trkpt lat="14.25983" lon="-60.9842">
        <ele>8.31</ele>
        <time>2016-12-06T20:03:44Z</time>
      </trkpt>
      <trkpt lat="14.26009" lon="-60.9841">
        <ele>8.79</ele>
        <time>2016-12-06T20:03:55Z</time>
      </trkpt>
      <trkpt lat="14.26029" lon="-60.98404">
        <ele>7.35</ele>
        <time>2016-12-06T20:04:04Z</time>
      </trkpt>
      <trkpt lat="14.26059" lon="-60.9839">
        <ele>7.83</ele>
        <time>2016-12-06T20:04:17Z</time>
      </trkpt>
      <trkpt lat="14.26088" lon="-60.98379">
        <ele>8.31</ele>
        <time>2016-12-06T20:04:29Z</time>
      </trkpt>
      <trkpt lat="14.26112" lon="-60.98369">
        <ele>8.79</ele>
        <time>2016-12-06T20:04:39Z</time>
      </trkpt>
      <trkpt lat="14.26149" lon="-60.98353">
        <ele>8.31</ele>
        <time>2016-12-06T20:04:54Z</time>
      </trkpt>
      <trkpt lat="14.26177" lon="-60.98343">
        <ele>6.87</ele>
        <time>2016-12-06T20:05:05Z</time>
      </trkpt>
      <trkpt lat="14.26215" lon="-60.98329">
        <ele>5.91</ele>
        <time>2016-12-06T20:05:19Z</time>
      </trkpt>
      <trkpt lat="14.26246" lon="-60.98316">
        <ele>6.39</ele>
        <time>2016-12-06T20:05:31Z</time>
      </trkpt>
      <trkpt lat="14.26279" lon="-60.98303">
        <ele>7.83</ele>
        <time>2016-12-06T20:05:44Z</time>
      </trkpt>
      <trkpt lat="14.26308" lon="-60.9829">
        <ele>7.35</ele>
        <time>2016-12-06T20:05:56Z</time>
      </trkpt>
      <trkpt lat="14.26334" lon="-60.98276">
        <ele>6.87</ele>
        <time>2016-12-06T20:06:08Z</time>
      </trkpt>
      <trkpt lat="14.26361" lon="-60.98266">
        <ele>7.83</ele>
        <time>2016-12-06T20:06:19Z</time>
      </trkpt>
      <trkpt lat="14.26382" lon="-60.98257">
        <ele>7.83</ele>
        <time>2016-12-06T20:06:28Z</time>
      </trkpt>
      <trkpt lat="14.2641" lon="-60.98247">
        <ele>8.31</ele>
        <time>2016-12-06T20:06:39Z</time>
      </trkpt>
      <trkpt lat="14.26445" lon="-60.98237">
        <ele>7.35</ele>
        <time>2016-12-06T20:06:52Z</time>
      </trkpt>
      <trkpt lat="14.26477" lon="-60.98226">
        <ele>6.87</ele>
        <time>2016-12-06T20:07:04Z</time>
      </trkpt>
      <trkpt lat="14.26506" lon="-60.98215">
        <ele>7.35</ele>
        <time>2016-12-06T20:07:15Z</time>
      </trkpt>
      <trkpt lat="14.26532" lon="-60.98204">
        <ele>6.87</ele>
        <time>2016-12-06T20:07:26Z</time>
      </trkpt>
      <trkpt lat="14.26553" lon="-60.98196">
        <ele>7.35</ele>
        <time>2016-12-06T20:07:36Z</time>
      </trkpt>
      <trkpt lat="14.26582" lon="-60.98184">
        <ele>7.83</ele>
        <time>2016-12-06T20:07:48Z</time>
      </trkpt>
      <trkpt lat="14.2661" lon="-60.98175">
        <ele>8.31</ele>
        <time>2016-12-06T20:08:01Z</time>
      </trkpt>
      <trkpt lat="14.26641" lon="-60.98162">
        <ele>8.31</ele>
        <time>2016-12-06T20:08:14Z</time>
      </trkpt>
      <trkpt lat="14.2667" lon="-60.98149">
        <ele>8.31</ele>
        <time>2016-12-06T20:08:27Z</time>
      </trkpt>
      <trkpt lat="14.26693" lon="-60.98141">
        <ele>9.27</ele>
        <time>2016-12-06T20:08:37Z</time>
      </trkpt>
      <trkpt lat="14.26726" lon="-60.98131">
        <ele>7.83</ele>
        <time>2016-12-06T20:08:50Z</time>
      </trkpt>
      <trkpt lat="14.26757" lon="-60.98122">
        <ele>7.35</ele>
        <time>2016-12-06T20:09:02Z</time>
      </trkpt>
      <trkpt lat="14.26784" lon="-60.98112">
        <ele>7.83</ele>
        <time>2016-12-06T20:09:13Z</time>
      </trkpt>
      <trkpt lat="14.26806" lon="-60.98102">
        <ele>9.27</ele>
        <time>2016-12-06T20:09:23Z</time>
      </trkpt>
      <trkpt lat="14.26833" lon="-60.98091">
        <ele>9.75</ele>
        <time>2016-12-06T20:09:35Z</time>
      </trkpt>
      <trkpt lat="14.26853" lon="-60.98087">
        <ele>8.79</ele>
        <time>2016-12-06T20:09:43Z</time>
      </trkpt>
      <trkpt lat="14.26864" lon="-60.98086">
        <ele>8.31</ele>
        <time>2016-12-06T20:09:48Z</time>
      </trkpt>
      <trkpt lat="14.26902" lon="-60.98076">
        <ele>6.39</ele>
        <time>2016-12-06T20:10:03Z</time>
      </trkpt>
      <trkpt lat="14.26939" lon="-60.98062">
        <ele>6.39</ele>
        <time>2016-12-06T20:10:17Z</time>
      </trkpt>
      <trkpt lat="14.26959" lon="-60.98054">
        <ele>6.87</ele>
        <time>2016-12-06T20:10:26Z</time>
      </trkpt>
      <trkpt lat="14.26988" lon="-60.98043">
        <ele>8.31</ele>
        <time>2016-12-06T20:10:38Z</time>
      </trkpt>
      <trkpt lat="14.27017" lon="-60.98032">
        <ele>8.79</ele>
        <time>2016-12-06T20:10:50Z</time>
      </trkpt>
      <trkpt lat="14.27043" lon="-60.98022">
        <ele>7.83</ele>
        <time>2016-12-06T20:11:01Z</time>
      </trkpt>
      <trkpt lat="14.27065" lon="-60.98016">
        <ele>7.83</ele>
        <time>2016-12-06T20:11:11Z</time>
      </trkpt>
      <trkpt lat="14.27091" lon="-60.98005">
        <ele>7.83</ele>
        <time>2016-12-06T20:11:23Z</time>
      </trkpt>
      <trkpt lat="14.27111" lon="-60.97998">
        <ele>7.35</ele>
        <time>2016-12-06T20:11:32Z</time>
      </trkpt>
      <trkpt lat="14.27147" lon="-60.97987">
        <ele>6.39</ele>
        <time>2016-12-06T20:11:46Z</time>
      </trkpt>
      <trkpt lat="14.27181" lon="-60.97977">
        <ele>6.39</ele>
        <time>2016-12-06T20:11:59Z</time>
      </trkpt>
      <trkpt lat="14.27205" lon="-60.97971">
        <ele>6.87</ele>
        <time>2016-12-06T20:12:09Z</time>
      </trkpt>
      <trkpt lat="14.27228" lon="-60.97966">
        <ele>7.35</ele>
        <time>2016-12-06T20:12:19Z</time>
      </trkpt>
      <trkpt lat="14.27258" lon="-60.97955">
        <ele>6.87</ele>
        <time>2016-12-06T20:12:32Z</time>
      </trkpt>
      <trkpt lat="14.27278" lon="-60.9795">
        <ele>7.35</ele>
        <time>2016-12-06T20:12:41Z</time>
      </trkpt>
      <trkpt lat="14.27301" lon="-60.97939">
        <ele>7.83</ele>
        <time>2016-12-06T20:12:52Z</time>
      </trkpt>
      <trkpt lat="14.27324" lon="-60.9793">
        <ele>7.83</ele>
        <time>2016-12-06T20:13:02Z</time>
      </trkpt>
      <trkpt lat="14.27347" lon="-60.97921">
        <ele>7.35</ele>
        <time>2016-12-06T20:13:12Z</time>
      </trkpt>
      <trkpt lat="14.27382" lon="-60.97909">
        <ele>6.87</ele>
        <time>2016-12-06T20:13:26Z</time>
      </trkpt>
      <trkpt lat="14.27417" lon="-60.97897">
        <ele>6.87</ele>
        <time>2016-12-06T20:13:40Z</time>
      </trkpt>
      <trkpt lat="14.27444" lon="-60.97887">
        <ele>6.87</ele>
        <time>2016-12-06T20:13:51Z</time>
      </trkpt>
      <trkpt lat="14.27469" lon="-60.97877">
        <ele>6.87</ele>
        <time>2016-12-06T20:14:02Z</time>
      </trkpt>
      <trkpt lat="14.27499" lon="-60.97865">
        <ele>6.87</ele>
        <time>2016-12-06T20:14:15Z</time>
      </trkpt>
      <trkpt lat="14.27525" lon="-60.97855">
        <ele>5.91</ele>
        <time>2016-12-06T20:14:26Z</time>
      </trkpt>
      <trkpt lat="14.27557" lon="-60.97842">
        <ele>5.91</ele>
        <time>2016-12-06T20:14:40Z</time>
      </trkpt>
      <trkpt lat="14.27588" lon="-60.97831">
        <ele>5.42</ele>
        <time>2016-12-06T20:14:53Z</time>
      </trkpt>
      <trkpt lat="14.27616" lon="-60.97821">
        <ele>5.42</ele>
        <time>2016-12-06T20:15:05Z</time>
      </trkpt>
      <trkpt lat="14.27638" lon="-60.97813">
        <ele>4.94</ele>
        <time>2016-12-06T20:15:15Z</time>
      </trkpt>
      <trkpt lat="14.27674" lon="-60.97801">
        <ele>5.91</ele>
        <time>2016-12-06T20:15:29Z</time>
      </trkpt>
      <trkpt lat="14.27708" lon="-60.97791">
        <ele>5.91</ele>
        <time>2016-12-06T20:15:42Z</time>
      </trkpt>
      <trkpt lat="14.27733" lon="-60.97785">
        <ele>5.91</ele>
        <time>2016-12-06T20:15:52Z</time>
      </trkpt>
      <trkpt lat="14.27763" lon="-60.97775">
        <ele>6.39</ele>
        <time>2016-12-06T20:16:05Z</time>
      </trkpt>
      <trkpt lat="14.27793" lon="-60.97766">
        <ele>6.39</ele>
        <time>2016-12-06T20:16:18Z</time>
      </trkpt>
      <trkpt lat="14.27816" lon="-60.97757">
        <ele>6.87</ele>
        <time>2016-12-06T20:16:28Z</time>
      </trkpt>
      <trkpt lat="14.27845" lon="-60.97746">
        <ele>8.31</ele>
        <time>2016-12-06T20:16:41Z</time>
      </trkpt>
      <trkpt lat="14.27878" lon="-60.97731">
        <ele>8.31</ele>
        <time>2016-12-06T20:16:56Z</time>
      </trkpt>
      <trkpt lat="14.27902" lon="-60.97721">
        <ele>9.27</ele>
        <time>2016-12-06T20:17:08Z</time>
      </trkpt>
      <trkpt lat="14.27926" lon="-60.97711">
        <ele>9.27</ele>
        <time>2016-12-06T20:17:19Z</time>
      </trkpt>
      <trkpt lat="14.27952" lon="-60.97699">
        <ele>9.27</ele>
        <time>2016-12-06T20:17:31Z</time>
      </trkpt>
      <trkpt lat="14.27974" lon="-60.9769">
        <ele>9.27</ele>
        <time>2016-12-06T20:17:42Z</time>
      </trkpt>
      <trkpt lat="14.28001" lon="-60.97678">
        <ele>9.75</ele>
        <time>2016-12-06T20:17:54Z</time>
      </trkpt>
      <trkpt lat="14.28027" lon="-60.97668">
        <ele>9.27</ele>
        <time>2016-12-06T20:18:05Z</time>
      </trkpt>
      <trkpt lat="14.28054" lon="-60.97655">
        <ele>10.23</ele>
        <time>2016-12-06T20:18:17Z</time>
      </trkpt>
      <trkpt lat="14.2808" lon="-60.97642">
        <ele>10.71</ele>
        <time>2016-12-06T20:18:29Z</time>
      </trkpt>
      <trkpt lat="14.28104" lon="-60.97633">
        <ele>9.75</ele>
        <time>2016-12-06T20:18:41Z</time>
      </trkpt>
      <trkpt lat="14.28125" lon="-60.97621">
        <ele>9.27</ele>
        <time>2016-12-06T20:18:53Z</time>
      </trkpt>
      <trkpt lat="14.2815" lon="-60.97609">
        <ele>8.31</ele>
        <time>2016-12-06T20:19:05Z</time>
      </trkpt>
      <trkpt lat="14.28188" lon="-60.97595">
        <ele>8.79</ele>
        <time>2016-12-06T20:19:20Z</time>
      </trkpt>
      <trkpt lat="14.2822" lon="-60.97581">
        <ele>8.31</ele>
        <time>2016-12-06T20:19:33Z</time>
      </trkpt>
      <trkpt lat="14.28243" lon="-60.9757">
        <ele>8.31</ele>
        <time>2016-12-06T20:19:44Z</time>
      </trkpt>
      <trkpt lat="14.28272" lon="-60.97557">
        <ele>7.83</ele>
        <time>2016-12-06T20:19:57Z</time>
      </trkpt>
      <trkpt lat="14.28302" lon="-60.97542">
        <ele>8.31</ele>
        <time>2016-12-06T20:20:10Z</time>
      </trkpt>
      <trkpt lat="14.28337" lon="-60.97526">
        <ele>8.31</ele>
        <time>2016-12-06T20:20:25Z</time>
      </trkpt>
      <trkpt lat="14.28366" lon="-60.97511">
        <ele>9.27</ele>
        <time>2016-12-06T20:20:38Z</time>
      </trkpt>
      <trkpt lat="14.28395" lon="-60.97497">
        <ele>9.75</ele>
        <time>2016-12-06T20:20:51Z</time>
      </trkpt>
      <trkpt lat="14.28425" lon="-60.97485">
        <ele>8.79</ele>
        <time>2016-12-06T20:21:04Z</time>
      </trkpt>
      <trkpt lat="14.28453" lon="-60.97473">
        <ele>9.27</ele>
        <time>2016-12-06T20:21:17Z</time>
      </trkpt>
      <trkpt lat="14.2848" lon="-60.97462">
        <ele>9.75</ele>
        <time>2016-12-06T20:21:29Z</time>
      </trkpt>
      <trkpt lat="14.28503" lon="-60.97452">
        <ele>7.35</ele>
        <time>2016-12-06T20:21:40Z</time>
      </trkpt>
      <trkpt lat="14.28534" lon="-60.97438">
        <ele>9.27</ele>
        <time>2016-12-06T20:21:54Z</time>
      </trkpt>
      <trkpt lat="14.28562" lon="-60.97425">
        <ele>9.75</ele>
        <time>2016-12-06T20:22:08Z</time>
      </trkpt>
      <trkpt lat="14.28592" lon="-60.97411">
        <ele>9.75</ele>
        <time>2016-12-06T20:22:22Z</time>
      </trkpt>
      <trkpt lat="14.28624" lon="-60.97397">
        <ele>9.75</ele>
        <time>2016-12-06T20:22:36Z</time>
      </trkpt>
      <trkpt lat="14.28653" lon="-60.97385">
        <ele>11.67</ele>
        <time>2016-12-06T20:22:49Z</time>
      </trkpt>
      <trkpt lat="14.28687" lon="-60.97368">
        <ele>11.19</ele>
        <time>2016-12-06T20:23:05Z</time>
      </trkpt>
      <trkpt lat="14.28723" lon="-60.97353">
        <ele>10.23</ele>
        <time>2016-12-06T20:23:21Z</time>
      </trkpt>
      <trkpt lat="14.28747" lon="-60.9734">
        <ele>9.75</ele>
        <time>2016-12-06T20:23:34Z</time>
      </trkpt>
      <trkpt lat="14.28783" lon="-60.97322">
        <ele>9.27</ele>
        <time>2016-12-06T20:23:50Z</time>
      </trkpt>
      <trkpt lat="14.28807" lon="-60.97308">
        <ele>8.79</ele>
        <time>2016-12-06T20:24:01Z</time>
      </trkpt>
      <trkpt lat="14.28832" lon="-60.97296">
        <ele>7.83</ele>
        <time>2016-12-06T20:24:13Z</time>
      </trkpt>
      <trkpt lat="14.28854" lon="-60.97286">
        <ele>7.35</ele>
        <time>2016-12-06T20:24:24Z</time>
      </trkpt>
      <trkpt lat="14.28887" lon="-60.97273">
        <ele>5.42</ele>
        <time>2016-12-06T20:24:38Z</time>
      </trkpt>
      <trkpt lat="14.28922" lon="-60.97255">
        <ele>6.39</ele>
        <time>2016-12-06T20:24:54Z</time>
      </trkpt>
      <trkpt lat="14.28959" lon="-60.97237">
        <ele>8.31</ele>
        <time>2016-12-06T20:25:11Z</time>
      </trkpt>
      <trkpt lat="14.28989" lon="-60.97218">
        <ele>8.79</ele>
        <time>2016-12-06T20:25:26Z</time>
      </trkpt>
      <trkpt lat="14.29013" lon="-60.97205">
        <ele>8.79</ele>
        <time>2016-12-06T20:25:38Z</time>
      </trkpt>
      <trkpt lat="14.2904" lon="-60.97189">
        <ele>7.35</ele>
        <time>2016-12-06T20:25:52Z</time>
      </trkpt>
      <trkpt lat="14.29067" lon="-60.97172">
        <ele>8.31</ele>
        <time>2016-12-06T20:26:05Z</time>
      </trkpt>
      <trkpt lat="14.29097" lon="-60.97156">
        <ele>7.83</ele>
        <time>2016-12-06T20:26:19Z</time>
      </trkpt>
      <trkpt lat="14.29127" lon="-60.9714">
        <ele>8.31</ele>
        <time>2016-12-06T20:26:32Z</time>
      </trkpt>
      <trkpt lat="14.2915" lon="-60.97126">
        <ele>7.83</ele>
        <time>2016-12-06T20:26:43Z</time>
      </trkpt>
      <trkpt lat="14.29183" lon="-60.97107">
        <ele>8.31</ele>
        <time>2016-12-06T20:26:57Z</time>
      </trkpt>
      <trkpt lat="14.2921" lon="-60.97092">
        <ele>7.35</ele>
        <time>2016-12-06T20:27:09Z</time>
      </trkpt>
      <trkpt lat="14.29244" lon="-60.9707">
        <ele>7.35</ele>
        <time>2016-12-06T20:27:24Z</time>
      </trkpt>
      <trkpt lat="14.2928" lon="-60.97051">
        <ele>9.27</ele>
        <time>2016-12-06T20:27:40Z</time>
      </trkpt>
      <trkpt lat="14.29309" lon="-60.97035">
        <ele>8.31</ele>
        <time>2016-12-06T20:27:53Z</time>
      </trkpt>
      <trkpt lat="14.29339" lon="-60.97021">
        <ele>8.79</ele>
        <time>2016-12-06T20:28:06Z</time>
      </trkpt>
      <trkpt lat="14.29367" lon="-60.97004">
        <ele>8.31</ele>
        <time>2016-12-06T20:28:19Z</time>
      </trkpt>
      <trkpt lat="14.294" lon="-60.96984">
        <ele>7.83</ele>
        <time>2016-12-06T20:28:34Z</time>
      </trkpt>
      <trkpt lat="14.29437" lon="-60.96962">
        <ele>7.35</ele>
        <time>2016-12-06T20:28:50Z</time>
      </trkpt>
      <trkpt lat="14.29462" lon="-60.96945">
        <ele>8.31</ele>
        <time>2016-12-06T20:29:03Z</time>
      </trkpt>
      <trkpt lat="14.295" lon="-60.96922">
        <ele>6.87</ele>
        <time>2016-12-06T20:29:20Z</time>
      </trkpt>
      <trkpt lat="14.29526" lon="-60.96906">
        <ele>7.83</ele>
        <time>2016-12-06T20:29:33Z</time>
      </trkpt>
      <trkpt lat="14.29561" lon="-60.96884">
        <ele>8.31</ele>
        <time>2016-12-06T20:29:49Z</time>
      </trkpt>
      <trkpt lat="14.29594" lon="-60.96869">
        <ele>9.27</ele>
        <time>2016-12-06T20:30:03Z</time>
      </trkpt>
      <trkpt lat="14.29621" lon="-60.96855">
        <ele>8.31</ele>
        <time>2016-12-06T20:30:15Z</time>
      </trkpt>
      <trkpt lat="14.29659" lon="-60.96835">
        <ele>7.35</ele>
        <time>2016-12-06T20:30:31Z</time>
      </trkpt>
      <trkpt lat="14.29696" lon="-60.96816">
        <ele>7.35</ele>
        <time>2016-12-06T20:30:47Z</time>
      </trkpt>
      <trkpt lat="14.29734" lon="-60.96793">
        <ele>7.35</ele>
        <time>2016-12-06T20:31:04Z</time>
      </trkpt>
      <trkpt lat="14.29771" lon="-60.96771">
        <ele>6.87</ele>
        <time>2016-12-06T20:31:20Z</time>
      </trkpt>
      <trkpt lat="14.2981" lon="-60.96748">
        <ele>7.35</ele>
        <time>2016-12-06T20:31:36Z</time>
      </trkpt>
      <trkpt lat="14.29839" lon="-60.96734">
        <ele>7.35</ele>
        <time>2016-12-06T20:31:50Z</time>
      </trkpt>
      <trkpt lat="14.29869" lon="-60.96721">
        <ele>6.87</ele>
        <time>2016-12-06T20:32:03Z</time>
      </trkpt>
      <trkpt lat="14.29908" lon="-60.96704">
        <ele>6.87</ele>
        <time>2016-12-06T20:32:19Z</time>
      </trkpt>
      <trkpt lat="14.29939" lon="-60.96694">
        <ele>7.35</ele>
        <time>2016-12-06T20:32:32Z</time>
      </trkpt>
      <trkpt lat="14.29975" lon="-60.96675">
        <ele>7.83</ele>
        <time>2016-12-06T20:32:47Z</time>
      </trkpt>
      <trkpt lat="14.30005" lon="-60.96659">
        <ele>8.79</ele>
        <time>2016-12-06T20:33:01Z</time>
      </trkpt>
      <trkpt lat="14.30039" lon="-60.96644">
        <ele>7.83</ele>
        <time>2016-12-06T20:33:16Z</time>
      </trkpt>
      <trkpt lat="14.30079" lon="-60.96627">
        <ele>7.83</ele>
        <time>2016-12-06T20:33:32Z</time>
      </trkpt>
      <trkpt lat="14.30115" lon="-60.96611">
        <ele>7.83</ele>
        <time>2016-12-06T20:33:47Z</time>
      </trkpt>
      <trkpt lat="14.30153" lon="-60.96591">
        <ele>7.83</ele>
        <time>2016-12-06T20:34:03Z</time>
      </trkpt>
      <trkpt lat="14.3019" lon="-60.96574">
        <ele>8.79</ele>
        <time>2016-12-06T20:34:18Z</time>
      </trkpt>
      <trkpt lat="14.30219" lon="-60.96558">
        <ele>9.75</ele>
        <time>2016-12-06T20:34:31Z</time>
      </trkpt>
      <trkpt lat="14.30248" lon="-60.96543">
        <ele>9.75</ele>
        <time>2016-12-06T20:34:44Z</time>
      </trkpt>
      <trkpt lat="14.30277" lon="-60.96528">
        <ele>9.27</ele>
        <time>2016-12-06T20:34:58Z</time>
      </trkpt>
      <trkpt lat="14.30306" lon="-60.96512">
        <ele>9.27</ele>
        <time>2016-12-06T20:35:12Z</time>
      </trkpt>
      <trkpt lat="14.30335" lon="-60.965">
        <ele>8.79</ele>
        <time>2016-12-06T20:35:24Z</time>
      </trkpt>
      <trkpt lat="14.30361" lon="-60.96488">
        <ele>9.27</ele>
        <time>2016-12-06T20:35:36Z</time>
      </trkpt>
      <trkpt lat="14.30389" lon="-60.96471">
        <ele>8.79</ele>
        <time>2016-12-06T20:35:49Z</time>
      </trkpt>
      <trkpt lat="14.30421" lon="-60.96455">
        <ele>8.79</ele>
        <time>2016-12-06T20:36:03Z</time>
      </trkpt>
      <trkpt lat="14.30461" lon="-60.96437">
        <ele>8.31</ele>
        <time>2016-12-06T20:36:19Z</time>
      </trkpt>
      <trkpt lat="14.30497" lon="-60.96419">
        <ele>8.79</ele>
        <time>2016-12-06T20:36:34Z</time>
      </trkpt>
      <trkpt lat="14.30531" lon="-60.96405">
        <ele>9.27</ele>
        <time>2016-12-06T20:36:48Z</time>
      </trkpt>
      <trkpt lat="14.30562" lon="-60.96386">
        <ele>9.27</ele>
        <time>2016-12-06T20:37:02Z</time>
      </trkpt>
      <trkpt lat="14.30596" lon="-60.96371">
        <ele>9.27</ele>
        <time>2016-12-06T20:37:17Z</time>
      </trkpt>
      <trkpt lat="14.30636" lon="-60.96352">
        <ele>9.27</ele>
        <time>2016-12-06T20:37:34Z</time>
      </trkpt>
      <trkpt lat="14.30647" lon="-60.96348">
        <ele>9.27</ele>
        <time>2016-12-06T20:37:39Z</time>
      </trkpt>
      <trkpt lat="14.30655" lon="-60.96344">
        <ele>9.27</ele>
        <time>2016-12-06T20:37:43Z</time>
      </trkpt>
      <trkpt lat="14.30687" lon="-60.96324">
        <ele>9.27</ele>
        <time>2016-12-06T20:37:58Z</time>
      </trkpt>
      <trkpt lat="14.3072" lon="-60.96305">
        <ele>10.71</ele>
        <time>2016-12-06T20:38:13Z</time>
      </trkpt>
      <trkpt lat="14.30755" lon="-60.96288">
        <ele>11.19</ele>
        <time>2016-12-06T20:38:28Z</time>
      </trkpt>
      <trkpt lat="14.30793" lon="-60.96271">
        <ele>10.71</ele>
        <time>2016-12-06T20:38:44Z</time>
      </trkpt>
      <trkpt lat="14.30827" lon="-60.96253">
        <ele>10.23</ele>
        <time>2016-12-06T20:38:59Z</time>
      </trkpt>
      <trkpt lat="14.30867" lon="-60.96232">
        <ele>8.31</ele>
        <time>2016-12-06T20:39:16Z</time>
      </trkpt>
      <trkpt lat="14.309" lon="-60.96219">
        <ele>8.31</ele>
        <time>2016-12-06T20:39:30Z</time>
      </trkpt>
      <trkpt lat="14.30941" lon="-60.962">
        <ele>7.35</ele>
        <time>2016-12-06T20:39:47Z</time>
      </trkpt>
      <trkpt lat="14.30971" lon="-60.96185">
        <ele>7.83</ele>
        <time>2016-12-06T20:40:00Z</time>
      </trkpt>
      <trkpt lat="14.31006" lon="-60.96168">
        <ele>8.31</ele>
        <time>2016-12-06T20:40:14Z</time>
      </trkpt>
      <trkpt lat="14.31044" lon="-60.9615">
        <ele>9.27</ele>
        <time>2016-12-06T20:40:30Z</time>
      </trkpt>
      <trkpt lat="14.31076" lon="-60.96133">
        <ele>9.27</ele>
        <time>2016-12-06T20:40:44Z</time>
      </trkpt>
      <trkpt lat="14.31113" lon="-60.96115">
        <ele>8.31</ele>
        <time>2016-12-06T20:40:59Z</time>
      </trkpt>
      <trkpt lat="14.31148" lon="-60.96095">
        <ele>8.31</ele>
        <time>2016-12-06T20:41:15Z</time>
      </trkpt>
      <trkpt lat="14.31181" lon="-60.96077">
        <ele>8.31</ele>
        <time>2016-12-06T20:41:29Z</time>
      </trkpt>
      <trkpt lat="14.3121" lon="-60.96063">
        <ele>8.79</ele>
        <time>2016-12-06T20:41:42Z</time>
      </trkpt>
      <trkpt lat="14.31247" lon="-60.96046">
        <ele>8.31</ele>
        <time>2016-12-06T20:41:57Z</time>
      </trkpt>
      <trkpt lat="14.31284" lon="-60.96028">
        <ele>8.79</ele>
        <time>2016-12-06T20:42:12Z</time>
      </trkpt>
      <trkpt lat="14.31326" lon="-60.9601">
        <ele>7.83</ele>
        <time>2016-12-06T20:42:28Z</time>
      </trkpt>
      <trkpt lat="14.31359" lon="-60.95995">
        <ele>8.31</ele>
        <time>2016-12-06T20:42:41Z</time>
      </trkpt>
      <trkpt lat="14.31396" lon="-60.95979">
        <ele>7.35</ele>
        <time>2016-12-06T20:42:55Z</time>
      </trkpt>
      <trkpt lat="14.31425" lon="-60.95964">
        <ele>7.35</ele>
        <time>2016-12-06T20:43:07Z</time>
      </trkpt>
      <trkpt lat="14.31452" lon="-60.9595">
        <ele>7.83</ele>
        <time>2016-12-06T20:43:19Z</time>
      </trkpt>
      <trkpt lat="14.31491" lon="-60.9593">
        <ele>9.27</ele>
        <time>2016-12-06T20:43:36Z</time>
      </trkpt>
      <trkpt lat="14.31525" lon="-60.95916">
        <ele>8.79</ele>
        <time>2016-12-06T20:43:50Z</time>
      </trkpt>
      <trkpt lat="14.31559" lon="-60.95901">
        <ele>8.79</ele>
        <time>2016-12-06T20:44:04Z</time>
      </trkpt>
      <trkpt lat="14.31597" lon="-60.95882">
        <ele>9.27</ele>
        <time>2016-12-06T20:44:20Z</time>
      </trkpt>
      <trkpt lat="14.31641" lon="-60.95861">
        <ele>9.27</ele>
        <time>2016-12-06T20:44:38Z</time>
      </trkpt>
      <trkpt lat="14.3168" lon="-60.95842">
        <ele>8.79</ele>
        <time>2016-12-06T20:44:54Z</time>
      </trkpt>
      <trkpt lat="14.31715" lon="-60.95824">
        <ele>9.27</ele>
        <time>2016-12-06T20:45:08Z</time>
      </trkpt>
      <trkpt lat="14.31752" lon="-60.95806">
        <ele>8.79</ele>
        <time>2016-12-06T20:45:23Z</time>
      </trkpt>
      <trkpt lat="14.31791" lon="-60.95785">
        <ele>8.79</ele>
        <time>2016-12-06T20:45:40Z</time>
      </trkpt>
      <trkpt lat="14.31821" lon="-60.95769">
        <ele>8.79</ele>
        <time>2016-12-06T20:45:53Z</time>
      </trkpt>
      <trkpt lat="14.31857" lon="-60.95752">
        <ele>9.27</ele>
        <time>2016-12-06T20:46:08Z</time>
      </trkpt>
      <trkpt lat="14.31891" lon="-60.95736">
        <ele>9.27</ele>
        <time>2016-12-06T20:46:22Z</time>
      </trkpt>
      <trkpt lat="14.31934" lon="-60.95713">
        <ele>8.79</ele>
        <time>2016-12-06T20:46:40Z</time>
      </trkpt>
      <trkpt lat="14.31975" lon="-60.95696">
        <ele>8.79</ele>
        <time>2016-12-06T20:46:56Z</time>
      </trkpt>
      <trkpt lat="14.32013" lon="-60.95678">
        <ele>7.83</ele>
        <time>2016-12-06T20:47:11Z</time>
      </trkpt>
      <trkpt lat="14.32044" lon="-60.95664">
        <ele>7.83</ele>
        <time>2016-12-06T20:47:23Z</time>
      </trkpt>
      <trkpt lat="14.32077" lon="-60.95648">
        <ele>7.35</ele>
        <time>2016-12-06T20:47:36Z</time>
      </trkpt>
      <trkpt lat="14.32112" lon="-60.95632">
        <ele>7.35</ele>
        <time>2016-12-06T20:47:50Z</time>
      </trkpt>
      <trkpt lat="14.3215" lon="-60.95615">
        <ele>7.35</ele>
        <time>2016-12-06T20:48:05Z</time>
      </trkpt>
      <trkpt lat="14.32191" lon="-60.95596">
        <ele>7.35</ele>
        <time>2016-12-06T20:48:21Z</time>
      </trkpt>
      <trkpt lat="14.32229" lon="-60.95578">
        <ele>7.35</ele>
        <time>2016-12-06T20:48:36Z</time>
      </trkpt>
      <trkpt lat="14.32265" lon="-60.95563">
        <ele>7.35</ele>
        <time>2016-12-06T20:48:51Z</time>
      </trkpt>
      <trkpt lat="14.32295" lon="-60.95552">
        <ele>7.83</ele>
        <time>2016-12-06T20:49:03Z</time>
      </trkpt>
      <trkpt lat="14.32326" lon="-60.95536">
        <ele>7.83</ele>
        <time>2016-12-06T20:49:16Z</time>
      </trkpt>
      <trkpt lat="14.32366" lon="-60.95517">
        <ele>7.83</ele>
        <time>2016-12-06T20:49:32Z</time>
      </trkpt>
      <trkpt lat="14.32401" lon="-60.95499">
        <ele>6.87</ele>
        <time>2016-12-06T20:49:46Z</time>
      </trkpt>
      <trkpt lat="14.32438" lon="-60.95483">
        <ele>7.83</ele>
        <time>2016-12-06T20:50:01Z</time>
      </trkpt>
      <trkpt lat="14.32467" lon="-60.95471">
        <ele>7.35</ele>
        <time>2016-12-06T20:50:14Z</time>
      </trkpt>
      <trkpt lat="14.32501" lon="-60.95455">
        <ele>7.35</ele>
        <time>2016-12-06T20:50:28Z</time>
      </trkpt>
      <trkpt lat="14.32541" lon="-60.95435">
        <ele>7.35</ele>
        <time>2016-12-06T20:50:44Z</time>
      </trkpt>
      <trkpt lat="14.3258" lon="-60.95416">
        <ele>7.35</ele>
        <time>2016-12-06T20:51:00Z</time>
      </trkpt>
      <trkpt lat="14.3262" lon="-60.95396">
        <ele>7.35</ele>
        <time>2016-12-06T20:51:16Z</time>
      </trkpt>
      <trkpt lat="14.32651" lon="-60.95382">
        <ele>7.83</ele>
        <time>2016-12-06T20:51:29Z</time>
      </trkpt>
      <trkpt lat="14.32693" lon="-60.95363">
        <ele>9.27</ele>
        <time>2016-12-06T20:51:46Z</time>
      </trkpt>
      <trkpt lat="14.32729" lon="-60.95349">
        <ele>8.79</ele>
        <time>2016-12-06T20:52:00Z</time>
      </trkpt>
      <trkpt lat="14.32765" lon="-60.95332">
        <ele>8.79</ele>
        <time>2016-12-06T20:52:14Z</time>
      </trkpt>
      <trkpt lat="14.32802" lon="-60.95316">
        <ele>8.79</ele>
        <time>2016-12-06T20:52:28Z</time>
      </trkpt>
      <trkpt lat="14.32846" lon="-60.95297">
        <ele>9.27</ele>
        <time>2016-12-06T20:52:45Z</time>
      </trkpt>
      <trkpt lat="14.32886" lon="-60.9528">
        <ele>9.27</ele>
        <time>2016-12-06T20:53:00Z</time>
      </trkpt>
      <trkpt lat="14.32916" lon="-60.95267">
        <ele>8.79</ele>
        <time>2016-12-06T20:53:12Z</time>
      </trkpt>
      <trkpt lat="14.32953" lon="-60.95254">
        <ele>8.31</ele>
        <time>2016-12-06T20:53:26Z</time>
      </trkpt>
      <trkpt lat="14.32993" lon="-60.95237">
        <ele>9.27</ele>
        <time>2016-12-06T20:53:41Z</time>
      </trkpt>
      <trkpt lat="14.33031" lon="-60.95218">
        <ele>8.79</ele>
        <time>2016-12-06T20:53:57Z</time>
      </trkpt>
      <trkpt lat="14.33065" lon="-60.952">
        <ele>8.31</ele>
        <time>2016-12-06T20:54:11Z</time>
      </trkpt>
      <trkpt lat="14.33102" lon="-60.95183">
        <ele>7.83</ele>
        <time>2016-12-06T20:54:26Z</time>
      </trkpt>
      <trkpt lat="14.33132" lon="-60.9517">
        <ele>8.31</ele>
        <time>2016-12-06T20:54:38Z</time>
      </trkpt>
      <trkpt lat="14.33164" lon="-60.95155">
        <ele>8.31</ele>
        <time>2016-12-06T20:54:52Z</time>
      </trkpt>
      <trkpt lat="14.33194" lon="-60.95142">
        <ele>8.79</ele>
        <time>2016-12-06T20:55:04Z</time>
      </trkpt>
      <trkpt lat="14.3323" lon="-60.95126">
        <ele>8.79</ele>
        <time>2016-12-06T20:55:18Z</time>
      </trkpt>
      <trkpt lat="14.33257" lon="-60.95114">
        <ele>8.79</ele>
        <time>2016-12-06T20:55:29Z</time>
      </trkpt>
      <trkpt lat="14.33295" lon="-60.95098">
        <ele>8.79</ele>
        <time>2016-12-06T20:55:44Z</time>
      </trkpt>
      <trkpt lat="14.3333" lon="-60.95083">
        <ele>8.79</ele>
        <time>2016-12-06T20:55:58Z</time>
      </trkpt>
      <trkpt lat="14.33364" lon="-60.95069">
        <ele>7.83</ele>
        <time>2016-12-06T20:56:13Z</time>
      </trkpt>
      <trkpt lat="14.33402" lon="-60.9505">
        <ele>7.83</ele>
        <time>2016-12-06T20:56:29Z</time>
      </trkpt>
      <trkpt lat="14.33437" lon="-60.95035">
        <ele>8.31</ele>
        <time>2016-12-06T20:56:43Z</time>
      </trkpt>
      <trkpt lat="14.33476" lon="-60.95018">
        <ele>8.79</ele>
        <time>2016-12-06T20:56:58Z</time>
      </trkpt>
      <trkpt lat="14.33511" lon="-60.95002">
        <ele>8.31</ele>
        <time>2016-12-06T20:57:12Z</time>
      </trkpt>
      <trkpt lat="14.33552" lon="-60.94983">
        <ele>8.79</ele>
        <time>2016-12-06T20:57:29Z</time>
      </trkpt>
      <trkpt lat="14.33588" lon="-60.94968">
        <ele>8.31</ele>
        <time>2016-12-06T20:57:43Z</time>
      </trkpt>
      <trkpt lat="14.33628" lon="-60.94951">
        <ele>8.31</ele>
        <time>2016-12-06T20:57:58Z</time>
      </trkpt>
      <trkpt lat="14.33665" lon="-60.94936">
        <ele>8.31</ele>
        <time>2016-12-06T20:58:13Z</time>
      </trkpt>
      <trkpt lat="14.33699" lon="-60.94921">
        <ele>8.31</ele>
        <time>2016-12-06T20:58:27Z</time>
      </trkpt>
      <trkpt lat="14.33734" lon="-60.94906">
        <ele>7.83</ele>
        <time>2016-12-06T20:58:41Z</time>
      </trkpt>
      <trkpt lat="14.3376" lon="-60.94892">
        <ele>7.83</ele>
        <time>2016-12-06T20:58:53Z</time>
      </trkpt>
      <trkpt lat="14.33792" lon="-60.94877">
        <ele>7.83</ele>
        <time>2016-12-06T20:59:07Z</time>
      </trkpt>
      <trkpt lat="14.33831" lon="-60.94858">
        <ele>8.31</ele>
        <time>2016-12-06T20:59:24Z</time>
      </trkpt>
      <trkpt lat="14.33871" lon="-60.94842">
        <ele>8.31</ele>
        <time>2016-12-06T20:59:40Z</time>
      </trkpt>
      <trkpt lat="14.33899" lon="-60.94831">
        <ele>8.31</ele>
        <time>2016-12-06T20:59:51Z</time>
      </trkpt>
      <trkpt lat="14.33938" lon="-60.94816">
        <ele>8.31</ele>
        <time>2016-12-06T21:00:06Z</time>
      </trkpt>
      <trkpt lat="14.33977" lon="-60.948">
        <ele>7.83</ele>
        <time>2016-12-06T21:00:21Z</time>
      </trkpt>
      <trkpt lat="14.34011" lon="-60.94787">
        <ele>7.83</ele>
        <time>2016-12-06T21:00:34Z</time>
      </trkpt>
      <trkpt lat="14.34043" lon="-60.94774">
        <ele>8.31</ele>
        <time>2016-12-06T21:00:47Z</time>
      </trkpt>
      <trkpt lat="14.34084" lon="-60.94755">
        <ele>8.31</ele>
        <time>2016-12-06T21:01:03Z</time>
      </trkpt>
      <trkpt lat="14.34121" lon="-60.94741">
        <ele>8.79</ele>
        <time>2016-12-06T21:01:17Z</time>
      </trkpt>
      <trkpt lat="14.34157" lon="-60.94726">
        <ele>8.79</ele>
        <time>2016-12-06T21:01:31Z</time>
      </trkpt>
      <trkpt lat="14.34206" lon="-60.94705">
        <ele>8.31</ele>
        <time>2016-12-06T21:01:50Z</time>
      </trkpt>
      <trkpt lat="14.34238" lon="-60.9469">
        <ele>7.83</ele>
        <time>2016-12-06T21:02:03Z</time>
      </trkpt>
      <trkpt lat="14.34274" lon="-60.94674">
        <ele>8.31</ele>
        <time>2016-12-06T21:02:17Z</time>
      </trkpt>
      <trkpt lat="14.34316" lon="-60.94657">
        <ele>8.79</ele>
        <time>2016-12-06T21:02:34Z</time>
      </trkpt>
      <trkpt lat="14.34352" lon="-60.9464">
        <ele>8.31</ele>
        <time>2016-12-06T21:02:49Z</time>
      </trkpt>
      <trkpt lat="14.34384" lon="-60.94622">
        <ele>8.31</ele>
        <time>2016-12-06T21:03:03Z</time>
      </trkpt>
      <trkpt lat="14.34386" lon="-60.94621">
        <ele>8.31</ele>
        <time>2016-12-06T21:03:04Z</time>
      </trkpt>
    </trkseg>
  </trk>
</gpx>